[[{"header":{"parameterUnit":"m.s-1","parameterCategory":1,"la1":30.6,"la2":29.2853,"lo1":-89.7004,"lo2":-87.6739,"dy":0.0162,"dx":0.0183,"nx":112,"ny":82,"refTime":"2023-07-27T06:00:00:Z","depth":0,"parameterNumber":2,"parameterNumberName":"U-component_of_WINDS"},"data":[0.0,0.0,0.0,0.0,0.0,0.0,0.0,0.0,0.0,0.0,0.0,0.0,0.0,0.0,0.0,0.0,0.0,0.0,0.0,0.0,0.0,0.0,0.0,0.0,0.0,0.0,0.0,0.0,0.0,0.0,0.0,0.0,0.0,0.0,0.0,0.0,0.0,0.0,0.0,0.0,0.0,0.0,0.0,0.0,0.0,0.0,0.0,0.0,0.0,0.0,0.0,0.0,0.0,0.0,0.0,0.0,0.0,0.0,0.0,0.0,0.0,0.0,0.0,0.0,0.0,0.0,0.0,0.0,0.0,0.0,0.0,0.0,0.0,0.0,0.0,0.0,0.0,0.0,0.0,0.0,0.0,0.0,0.0,0.0,0.0,0.0,0.0,0.0,0.0,0.0,0.0,-1.65,-1.65,-1.65,-1.65,-1.65,-1.65,-1.65,0.0,0.0,0.0,0.0,0.0,0.0,0.0,0.0,0.0,0.0,0.0,0.0,0.0,0.0,0.0,0.0,0.0,0.0,0.0,0.0,0.0,0.0,0.0,0.0,0.0,0.0,0.0,0.0,0.0,0.0,0.0,0.0,0.0,0.0,0.0,0.0,0.0,0.0,0.0,0.0,0.0,0.0,0.0,0.0,0.0,0.0,0.0,0.0,0.0,0.0,0.0,0.0,0.0,0.0,0.0,0.0,0.0,0.0,0.0,0.0,0.0,0.0,0.0,0.0,0.0,0.0,0.0,0.0,0.0,0.0,0.0,0.0,0.0,0.0,0.0,0.0,0.0,0.0,0.0,0.0,0.0,0.0,0.0,0.0,0.0,0.0,0.0,0.0,0.0,0.0,0.0,0.0,0.0,0.0,0.0,0.0,0.0,0.0,0.0,0.0,0.0,0.0,0.0,0.0,-1.65,-1.65,-1.65,-1.65,-1.65,-1.65,-1.65,-1.65,0.0,0.0,0.0,0.0,0.0,0.0,0.0,0.0,0.0,0.0,0.0,0.0,0.0,0.0,0.0,0.0,0.0,0.0,0.0,0.0,0.0,0.0,0.0,0.0,0.0,0.0,0.0,0.0,0.0,0.0,0.0,0.0,0.0,0.0,0.0,0.0,0.0,0.0,0.0,0.0,0.0,0.0,0.0,0.0,0.0,0.0,0.0,0.0,0.0,0.0,0.0,0.0,0.0,0.0,0.0,0.0,0.0,0.0,0.0,0.0,0.0,0.0,0.0,0.0,0.0,0.0,0.0,0.0,0.0,0.0,0.0,0.0,0.0,0.0,0.0,0.0,0.0,0.0,0.0,0.0,0.0,0.0,0.0,0.0,0.0,0.0,0.0,0.0,0.0,0.0,0.0,0.0,0.0,0.0,0.0,0.0,0.0,0.0,0.0,0.0,0.0,0.0,0.0,-1.65,-1.65,-1.65,-1.65,-1.65,-1.65,-1.65,-1.65,-1.65,-1.65,0.0,0.0,0.0,0.0,0.0,0.0,0.0,0.0,0.0,0.0,0.0,0.0,0.0,0.0,0.0,0.0,0.0,0.0,0.0,0.0,0.0,0.0,0.0,0.0,0.0,0.0,0.0,0.0,0.0,0.0,0.0,0.0,0.0,0.0,0.0,0.0,0.0,0.0,0.0,0.0,0.0,0.0,0.0,0.0,0.0,0.0,0.0,0.0,0.0,0.0,0.0,0.0,0.0,0.0,0.0,0.0,0.0,0.0,0.0,0.0,0.0,0.0,0.0,0.0,0.0,0.0,0.0,0.0,0.0,0.0,0.0,0.0,0.0,0.0,0.0,0.0,0.0,0.0,0.0,0.0,0.0,0.0,0.0,0.0,0.0,0.0,0.0,0.0,0.0,0.0,0.0,0.0,0.0,0.0,0.0,0.0,0.0,0.0,0.0,0.0,0.0,0.0,-1.65,-1.65,-1.65,-1.65,-1.65,-1.65,-1.65,-1.65,-1.65,-1.65,0.0,0.0,0.0,0.0,0.0,0.0,0.0,0.0,0.0,0.0,0.0,0.0,0.0,0.0,0.0,0.0,0.0,0.0,0.0,0.0,0.0,0.0,0.0,0.0,0.0,0.0,0.0,0.0,0.0,0.0,0.0,0.0,0.0,0.0,0.0,0.0,0.0,0.0,0.0,0.0,0.0,0.0,0.0,0.0,0.0,0.0,0.0,0.0,0.0,0.0,0.0,0.0,0.0,0.0,0.0,0.0,0.0,0.0,0.0,0.0,0.0,0.0,0.0,0.0,0.0,0.0,0.0,0.0,0.0,0.0,0.0,0.0,0.0,0.0,0.0,0.0,0.0,0.0,0.0,0.0,0.0,0.0,0.0,0.0,0.0,0.0,0.0,0.0,0.0,0.0,0.0,0.0,0.0,0.0,0.0,0.0,0.0,0.0,0.0,0.0,0.0,0.0,-1.65,-1.65,-1.65,-1.65,-1.65,-1.65,-1.65,-1.65,-1.65,-1.65,0.0,0.0,0.0,0.0,0.0,0.0,0.0,0.0,0.0,0.0,0.0,0.0,0.0,0.0,0.0,0.0,0.0,0.0,0.0,0.0,0.0,0.0,0.0,0.0,0.0,0.0,0.0,0.0,0.0,0.0,0.0,0.0,0.0,0.0,0.0,0.0,0.0,0.0,0.0,0.0,0.0,0.0,0.0,0.0,0.0,0.0,0.0,0.0,0.0,0.0,0.0,0.0,0.0,0.0,0.0,0.0,0.0,0.0,0.0,0.0,0.0,0.0,0.0,0.0,0.0,0.0,0.0,0.0,0.0,0.0,0.0,0.0,0.0,0.0,0.0,0.0,0.0,0.0,0.0,0.0,0.0,0.0,0.0,0.0,0.0,0.0,0.0,0.0,0.0,0.0,0.0,0.0,0.0,0.0,0.0,0.0,0.0,0.0,0.0,0.0,0.0,0.0,-1.65,-1.65,0.0,-1.65,-1.65,-1.65,-1.65,-1.65,-1.65,0.0,0.0,0.0,0.0,0.0,0.0,0.0,0.0,0.0,0.0,0.0,0.0,0.0,0.0,0.0,0.0,0.0,0.0,0.0,0.0,0.0,0.0,0.0,0.0,0.0,0.0,0.0,0.0,0.0,0.0,0.0,0.0,0.0,0.0,0.0,0.0,0.0,0.0,0.0,0.0,0.0,0.0,0.0,0.0,0.0,0.0,0.0,0.0,0.0,0.0,0.0,0.0,0.0,0.0,0.0,0.0,0.0,0.0,0.0,0.0,0.0,0.0,0.0,0.0,0.0,0.0,0.0,0.0,0.0,0.0,0.0,0.0,0.0,0.0,0.0,0.0,0.0,0.0,0.0,0.0,0.0,0.0,0.0,0.0,0.0,0.0,0.0,0.0,0.0,0.0,0.0,0.0,0.0,0.0,0.0,0.0,0.0,0.0,0.0,0.0,0.0,0.0,-1.65,-1.65,-1.65,0.0,-1.65,-1.65,-1.65,-1.65,-1.65,-1.65,0.0,0.0,0.0,0.0,0.0,0.0,0.0,0.0,0.0,0.0,0.0,0.0,0.0,0.0,0.0,0.0,0.0,0.0,0.0,0.0,0.0,0.0,0.0,0.0,0.0,0.0,0.0,0.0,0.0,0.0,0.0,0.0,0.0,0.0,0.0,0.0,0.0,0.0,0.0,0.0,0.0,0.0,0.0,0.0,0.0,0.0,0.0,0.0,0.0,0.0,0.0,0.0,0.0,0.0,0.0,0.0,0.0,0.0,0.0,0.0,0.0,0.0,0.0,0.0,0.0,0.0,0.0,0.0,0.0,0.0,0.0,0.0,0.0,0.0,0.0,0.0,0.0,0.0,0.0,0.0,0.0,0.0,0.0,0.0,0.0,0.0,0.0,0.0,0.0,0.0,0.0,0.0,0.0,0.0,0.0,0.0,0.0,0.0,0.0,0.0,0.0,0.0,-1.65,-1.65,-1.65,-1.65,-1.65,-1.65,-1.65,-1.65,-1.65,0.0,0.0,0.0,0.0,0.0,0.0,0.0,0.0,0.0,0.0,0.0,0.0,0.0,0.0,0.0,0.0,0.0,0.0,0.0,0.0,0.0,0.0,0.0,0.0,0.0,0.0,0.0,0.0,0.0,0.0,0.0,0.0,0.0,0.0,0.0,0.0,0.0,0.0,0.0,0.0,0.0,0.0,0.0,0.0,0.0,0.0,0.0,0.0,0.0,0.0,0.0,0.0,0.0,0.0,0.0,0.0,0.0,0.0,0.0,0.0,0.0,0.0,0.0,0.0,0.0,0.0,0.0,0.0,0.0,0.0,0.0,0.0,0.0,0.0,0.0,0.0,0.0,0.0,0.0,0.0,0.0,0.0,0.0,0.0,0.0,0.0,0.0,0.0,0.0,0.0,0.0,0.0,0.0,0.0,0.0,0.0,0.0,0.0,0.0,0.0,0.0,0.0,0.0,-1.65,-1.65,-1.65,-1.65,-1.65,-1.65,-1.65,-1.65,-1.65,-1.65,0.0,0.0,0.0,0.0,0.0,0.0,0.0,0.0,0.0,0.0,0.0,0.0,0.0,0.0,0.0,0.0,0.0,0.0,0.0,0.0,0.0,0.0,0.0,0.0,0.0,0.0,0.0,0.0,0.0,0.0,0.0,0.0,0.0,0.0,0.0,0.0,0.0,0.0,0.0,0.0,0.0,0.0,0.0,0.0,0.0,0.0,0.0,0.0,0.0,0.0,0.0,0.0,0.0,0.0,0.0,0.0,0.0,0.0,0.0,0.0,0.0,0.0,0.0,0.0,0.0,0.0,0.0,0.0,0.0,0.0,0.0,0.0,0.0,0.0,0.0,0.0,0.0,0.0,0.0,0.0,0.0,0.0,0.0,0.0,0.0,0.0,0.0,0.0,0.0,0.0,0.0,0.0,0.0,0.0,0.0,0.0,0.0,0.0,0.0,0.0,0.0,0.0,-1.6835,-1.6638,-1.6588,-1.6835,-1.6638,-1.65,-1.65,-1.65,-1.65,-1.65,0.0,0.0,0.0,0.0,0.0,0.0,0.0,0.0,0.0,0.0,0.0,0.0,0.0,0.0,0.0,0.0,0.0,0.0,0.0,0.0,0.0,0.0,0.0,0.0,0.0,0.0,0.0,0.0,0.0,0.0,0.0,0.0,0.0,0.0,0.0,0.0,0.0,0.0,0.0,0.0,0.0,0.0,0.0,0.0,0.0,0.0,0.0,0.0,0.0,0.0,0.0,0.0,0.0,0.0,0.0,0.0,0.0,0.0,0.0,0.0,0.0,0.0,0.0,0.0,0.0,0.0,0.0,0.0,0.0,0.0,0.0,0.0,0.0,0.0,0.0,0.0,0.0,0.0,0.0,0.0,0.0,0.0,0.0,0.0,0.0,0.0,0.0,0.0,0.0,0.0,0.0,0.0,0.0,0.0,0.0,0.0,0.0,0.0,0.0,0.0,0.0,0.0,-1.7348,-1.6974,-1.6861,-1.736,-1.6911,-1.655,-1.65,-1.65,-1.65,-1.65,0.0,0.0,0.0,0.0,0.0,0.0,0.0,0.0,0.0,0.0,0.0,0.0,0.0,0.0,0.0,0.0,0.0,0.0,0.0,0.0,0.0,0.0,0.0,0.0,0.0,0.0,0.0,0.0,0.0,0.0,0.0,0.0,0.0,0.0,0.0,0.0,0.0,0.0,0.0,0.0,0.0,0.0,0.0,0.0,0.0,0.0,0.0,0.0,0.0,0.0,0.0,0.0,0.0,0.0,0.0,0.0,0.0,0.0,0.0,0.0,-2.0952,0.0,0.0,0.0,0.0,0.0,0.0,0.0,0.0,0.0,0.0,0.0,0.0,0.0,0.0,0.0,0.0,0.0,0.0,0.0,0.0,0.0,0.0,0.0,0.0,0.0,0.0,0.0,0.0,0.0,0.0,0.0,0.0,0.0,0.0,0.0,0.0,0.0,0.0,0.0,0.0,0.0,-1.7448,-1.7652,-1.7727,-1.7436,-1.7285,-1.7011,-1.6538,-1.65,-1.65,-1.65,-1.65,0.0,0.0,0.0,0.0,0.0,0.0,0.0,0.0,0.0,0.0,0.0,0.0,0.0,0.0,0.0,0.0,0.0,0.0,0.0,0.0,0.0,0.0,0.0,0.0,0.0,0.0,0.0,0.0,0.0,0.0,0.0,0.0,0.0,0.0,0.0,0.0,0.0,0.0,0.0,0.0,0.0,0.0,0.0,0.0,0.0,0.0,0.0,0.0,0.0,0.0,0.0,0.0,0.0,0.0,0.0,0.0,0.0,0.0,0.0,0.0,-2.1765,0.0,0.0,0.0,0.0,0.0,0.0,0.0,0.0,0.0,0.0,0.0,0.0,0.0,0.0,0.0,0.0,0.0,0.0,0.0,0.0,0.0,0.0,0.0,0.0,0.0,0.0,0.0,0.0,0.0,0.0,0.0,0.0,0.0,0.0,0.0,0.0,0.0,0.0,0.0,0.0,-1.8179,-1.8191,-1.8191,-1.8179,-1.7725,-1.7262,-1.6961,-1.6663,-1.65,-1.65,-1.65,0.0,0.0,0.0,0.0,0.0,0.0,0.0,0.0,0.0,0.0,0.0,0.0,0.0,0.0,0.0,0.0,0.0,0.0,0.0,0.0,0.0,0.0,0.0,0.0,0.0,0.0,0.0,0.0,0.0,0.0,0.0,0.0,0.0,0.0,0.0,0.0,0.0,0.0,0.0,0.0,0.0,0.0,0.0,0.0,0.0,0.0,0.0,0.0,0.0,0.0,0.0,0.0,0.0,-2.7348,-2.714,-2.6698,-2.6473,-2.6074,-2.5486,-2.4028,-2.3203,-2.2828,-2.2094,0.0,0.0,0.0,0.0,0.0,0.0,0.0,0.0,0.0,0.0,0.0,0.0,0.0,0.0,0.0,0.0,0.0,0.0,0.0,0.0,0.0,0.0,0.0,0.0,-2.0465,-2.01,-2.01,0.0,0.0,0.0,0.0,0.0,0.0,0.0,0.0,0.0,0.0,0.0,-1.8958,-1.8706,-1.8618,-1.8958,-1.8216,-1.7626,-1.7561,-1.6999,-1.6672,-1.6672,-1.655,-1.65,0.0,0.0,0.0,0.0,0.0,0.0,0.0,0.0,0.0,0.0,0.0,0.0,0.0,0.0,0.0,0.0,0.0,0.0,0.0,0.0,0.0,0.0,0.0,0.0,0.0,0.0,0.0,0.0,0.0,0.0,0.0,0.0,-2.759,-2.7355,0.0,0.0,0.0,0.0,0.0,0.0,0.0,0.0,0.0,0.0,0.0,0.0,0.0,-2.6761,-2.733,-2.8498,-2.937,-2.9998,-3.0574,-3.0814,-3.0724,-3.0104,-2.9794,-2.9592,-2.7497,0.0,-2.3997,-2.3225,0.0,0.0,0.0,0.0,0.0,0.0,0.0,0.0,0.0,0.0,0.0,0.0,0.0,0.0,0.0,0.0,0.0,0.0,0.0,0.0,0.0,0.0,-2.1292,-2.1395,-2.1317,-2.1267,0.0,-2.0489,-1.9798,-1.9798,-1.9798,0.0,0.0,0.0,0.0,0.0,0.0,0.0,-1.9058,-1.9334,-1.9447,-1.9045,-1.887,-1.8594,-1.8141,-1.7589,-1.7285,-1.7285,-1.6798,-1.65,-1.65,-1.65,0.0,0.0,0.0,0.0,0.0,0.0,0.0,0.0,0.0,0.0,0.0,0.0,0.0,0.0,0.0,0.0,0.0,0.0,0.0,0.0,0.0,0.0,0.0,0.0,0.0,0.0,0.0,0.0,0.0,-2.7479,-2.7696,-2.8366,-2.7284,-2.6596,0.0,0.0,0.0,0.0,0.0,0.0,0.0,0.0,0.0,-2.8338,-2.9011,-2.9505,-2.9804,-3.0387,-3.0806,-3.1062,-3.1735,-3.1854,-3.1511,-3.157,-3.1435,-3.0975,-2.9593,-2.8049,-2.6343,-2.4394,-2.3258,-2.2744,0.0,0.0,0.0,0.0,-2.2744,-2.2744,-2.2744,-2.2744,-2.2706,-2.2498,0.0,0.0,0.0,0.0,0.0,0.0,0.0,0.0,0.0,0.0,-2.1568,-2.1882,-2.1707,-2.1568,-2.1882,-2.1317,-2.0665,0.0,-2.0024,-1.9798,-1.9798,0.0,0.0,0.0,0.0,-1.9723,-1.9497,-1.966,-1.971,-1.9459,-1.9171,-1.8907,-1.8669,-1.8166,-1.784,-1.784,-1.7313,-1.6999,-1.6999,-1.6999,-1.7124,0.0,0.0,0.0,0.0,0.0,0.0,0.0,0.0,0.0,0.0,0.0,0.0,0.0,0.0,0.0,0.0,0.0,0.0,0.0,0.0,0.0,0.0,0.0,0.0,0.0,0.0,0.0,0.0,-2.7843,-2.8052,-2.906,-2.7944,-2.7124,0.0,0.0,0.0,0.0,0.0,0.0,-2.9295,-2.9819,-3.0298,-3.0746,-3.1406,-3.175,-3.175,-3.2093,-3.2258,-3.2273,-3.2931,-3.299,-3.2527,-3.2871,-3.2751,-3.2213,-3.1273,-3.017,-2.8803,-2.5949,-2.4227,-2.3333,-2.3333,-2.3233,-2.3108,-2.3108,-2.3195,-2.3333,-2.3333,-2.3333,-2.3333,-2.3333,-2.3233,-2.3032,-2.2619,0.0,0.0,0.0,0.0,-2.1907,-2.1907,-2.1907,-2.202,-2.2393,-2.2209,-2.202,-2.2406,-2.2083,-2.1543,0.0,-2.044,-2.0024,-2.0024,0.0,0.0,0.0,0.0,-1.9798,-1.9798,-1.9798,-1.9798,-1.9798,-1.9434,-1.9196,-1.9196,-1.8707,-1.8393,-1.8393,-1.7903,-1.7589,-1.7589,-1.7589,-1.7664,-1.7802,0.0,0.0,0.0,0.0,0.0,0.0,0.0,0.0,0.0,0.0,0.0,0.0,0.0,0.0,0.0,0.0,0.0,0.0,0.0,0.0,0.0,0.0,0.0,0.0,0.0,0.0,0.0,0.0,0.0,-2.8568,-2.8456,0.0,0.0,0.0,0.0,-2.8442,-2.9624,-3.0627,-3.1316,-3.1391,-3.1421,-3.1451,-3.2093,-3.2437,-3.2437,-3.3709,-3.4354,-3.4369,-3.5026,-3.534,-3.5295,-3.4666,-3.4384,-3.4261,-3.2759,-3.1789,-3.1017,-2.813,-2.5764,-2.3954,-2.3954,-2.3584,-2.3108,-2.3108,-2.3446,-2.3954,-2.3954,-2.3954,-2.3954,-2.3954,-2.359,-2.3095,-2.307,-2.3045,0.0,0.0,-2.302,-2.302,-2.302,-2.302,-2.3032,-2.3058,-2.3045,-2.3032,-2.3058,-2.2631,-2.2108,0.0,-2.1031,-2.0641,-2.0641,0.0,-1.9798,-1.9798,-1.9798,-1.9798,-1.9798,-1.9798,-1.9798,-1.9798,-1.9773,-1.9761,-1.9761,-1.9259,-1.8958,-1.8958,-1.8468,-1.8166,-1.8166,-1.8166,-1.8405,-1.8907,-1.8945,0.0,0.0,0.0,0.0,0.0,0.0,0.0,0.0,0.0,0.0,0.0,0.0,0.0,0.0,0.0,0.0,0.0,0.0,0.0,0.0,0.0,0.0,0.0,0.0,0.0,0.0,0.0,0.0,-3.0268,-3.0395,0.0,-2.9789,-2.9956,-3.0195,-3.0434,-3.0883,-3.1436,-3.2093,-3.2557,-3.2991,-3.341,-3.4083,-3.4442,-3.4442,-3.4906,-3.513,-3.5145,-3.5385,-3.5504,-3.5489,-3.525,-3.513,-3.513,-3.4572,-3.3636,-3.2421,-3.0438,-2.8171,-2.5886,-2.49,-2.4374,-2.4186,-2.4186,-2.4324,-2.4519,-2.4519,-2.4293,-2.3941,-2.3534,-2.3271,-2.3108,-2.3108,-2.3108,-2.3108,-2.3108,-2.3108,-2.3108,-2.3108,-2.3108,-2.3108,-2.3108,-2.3108,-2.3108,-2.3108,-2.2945,-2.2656,-2.2121,-2.1307,-2.0578,-2.0201,-1.9936,-1.9798,-1.9798,-1.9798,-1.9798,-1.9798,-1.9798,-1.9798,-1.9798,-1.9798,-1.9798,-1.9798,-1.9623,-1.9497,-1.9497,-1.9008,-1.8707,-1.8707,-1.8707,-1.8807,-1.9008,-1.9334,-1.9334,0.0,0.0,0.0,0.0,0.0,0.0,0.0,0.0,0.0,0.0,0.0,0.0,0.0,0.0,0.0,0.0,0.0,0.0,0.0,0.0,0.0,0.0,0.0,0.0,0.0,0.0,-3.0751,-3.1925,-3.2334,-3.2407,-3.2183,-3.2168,-3.2258,-3.2512,-3.2497,-3.2811,-3.3484,-3.3933,-3.4382,-3.4801,-3.5265,-3.5504,-3.5504,-3.5504,-3.5504,-3.5504,-3.5504,-3.5504,-3.5504,-3.5504,-3.5504,-3.5504,-3.5504,-3.4928,-3.3857,-3.2355,-3.0583,-2.8557,-2.6052,-2.4938,-2.4788,-2.4788,-2.4901,-2.5084,-2.5084,-2.4732,-2.418,-2.3584,-2.3258,-2.3108,-2.3108,-2.3108,-2.3108,-2.3108,-2.3108,-2.3108,-2.3108,-2.3108,-2.3108,-2.3108,-2.3108,-2.3108,-2.3108,-2.3108,-2.2882,-2.2184,-2.1443,-2.0792,-2.0188,-1.9924,-1.9798,-1.9798,-1.9798,-1.9798,-1.9798,-1.9798,-1.9798,-1.9798,-1.9798,-1.9798,-1.9798,-1.9798,-1.9798,-1.9798,-1.9472,-1.9259,-1.9259,-1.9259,-1.9259,-1.9259,-1.9623,-1.9635,-1.9259,0.0,0.0,0.0,0.0,0.0,0.0,0.0,0.0,0.0,0.0,0.0,0.0,0.0,0.0,0.0,0.0,0.0,0.0,0.0,0.0,0.0,0.0,0.0,-3.0228,-3.1493,-3.2637,-3.3398,-3.4137,-3.4354,-3.3679,-3.3619,-3.3873,-3.4518,-3.4563,-3.4863,-3.5504,-3.5534,-3.5549,-3.5564,-3.5549,-3.5534,-3.5534,-3.5519,-3.5504,-3.5504,-3.5504,-3.5504,-3.5504,-3.5504,-3.5504,-3.5504,-3.5489,-3.5474,-3.535,-3.3784,-3.2757,-3.1732,-2.742,-2.5388,-2.4903,-2.4877,-2.5172,-2.5598,-2.5598,-2.5272,-2.4725,-2.4205,-2.364,-2.3158,-2.3133,-2.3133,-2.3133,-2.3108,-2.3108,-2.3108,-2.3108,-2.3108,-2.3108,-2.3108,-2.3108,-2.3108,-2.3108,-2.3108,-2.2782,-2.1732,-2.1506,-2.1358,-2.0767,-2.0201,-1.9798,-1.9798,-1.9798,0.0,-1.9798,-1.9798,-1.9798,-1.9798,-1.9798,-1.9798,-1.9798,-1.9798,-1.9798,-1.9798,-1.9798,-1.9798,-1.9798,-1.9798,-1.9798,-1.9798,-1.9798,-1.9798,-1.9798,0.0,0.0,0.0,0.0,0.0,0.0,0.0,0.0,0.0,0.0,0.0,0.0,0.0,0.0,0.0,0.0,0.0,0.0,0.0,0.0,0.0,0.0,-3.183,-3.2447,-3.331,-3.4331,-3.5524,-3.6187,-3.6522,-3.6357,-3.6327,-3.6222,-3.5953,-3.5971,-3.6013,-3.6207,-3.6222,-3.6432,-3.6866,-3.6447,-3.6222,-3.6222,-3.5744,-3.5504,-3.5504,-3.5504,-3.5504,-3.5504,-3.5504,-3.5504,-3.5474,-3.4981,-3.4756,-3.4635,-3.2584,-3.1642,-3.1315,-2.9485,-2.8012,-2.6876,-2.6459,-2.6019,-2.5598,-2.5598,-2.5498,-2.5297,-2.4738,-2.4462,-2.4249,-2.3879,-2.3766,-2.3665,-2.3221,-2.3108,-2.3108,-2.3108,-2.3108,-2.3108,-2.3108,-2.3108,-2.3108,-2.3108,-2.3108,-2.2895,-2.2221,-2.2083,-2.1644,-2.0275,-1.9911,-1.9798,-1.9798,-1.9798,0.0,-1.9798,-1.9798,-1.9798,-1.9798,-1.9798,-1.9798,-1.9798,-1.9798,-1.9798,-1.9798,-1.9798,-1.9798,-1.9798,-1.9798,-1.9798,-1.9798,-1.9798,-1.9798,0.0,0.0,0.0,0.0,0.0,0.0,0.0,0.0,0.0,0.0,0.0,0.0,0.0,0.0,0.0,0.0,0.0,0.0,0.0,0.0,0.0,0.0,-3.2802,-3.3727,-3.4926,-3.5446,-3.6103,-3.715,-3.7853,-3.8257,-3.8257,-3.7988,-3.7674,-3.7315,-3.703,-3.6881,-3.6881,-3.6881,-3.7045,-3.7404,-3.706,-3.6746,-3.6492,-3.6103,-3.5774,-3.5504,-3.5504,-3.5504,-3.5504,-3.5504,-3.5504,-3.5489,-3.5085,-3.4906,-3.4799,-3.3242,-3.2405,0.0,0.0,0.0,0.0,0.0,-2.6036,-2.5561,-2.5347,-2.5121,-2.4883,-2.4582,-2.4469,-2.4418,-2.4092,-2.4004,-2.3929,-2.359,-2.3296,-2.3108,-2.3108,-2.3108,-2.3108,-2.3108,-2.3108,-2.3108,-2.3108,-2.3108,-2.2945,-2.2393,-2.2309,0.0,-2.0715,-2.0514,-2.0514,-2.0514,-2.0514,-2.0514,-2.0514,-2.0514,-2.0514,-2.0514,-2.03,-2.0289,-2.0489,-2.0075,0.0,0.0,0.0,-1.9798,-1.9798,-1.9798,0.0,0.0,0.0,-1.9798,-1.9798,0.0,0.0,0.0,-1.9339,-1.9186,0.0,0.0,0.0,0.0,0.0,0.0,0.0,0.0,0.0,0.0,0.0,0.0,0.0,0.0,0.0,0.0,-3.4697,-3.5504,-3.7464,-3.7674,-3.7853,-3.8437,-3.905,-3.9388,-3.9388,-3.8871,-3.8467,-3.8407,-3.7853,-3.7524,-3.7524,0.0,0.0,0.0,0.0,-3.7255,-3.6716,-3.6626,-3.6267,-3.5609,-3.5609,-3.5579,-3.5504,-3.5504,-3.5504,-3.5504,-3.5429,-3.5385,-3.534,-3.4651,-3.3932,-3.2893,-2.938,-2.7946,-2.7728,-2.6358,-2.5815,-2.5656,-2.5104,0.0,0.0,-2.413,-2.413,-2.4155,-2.4029,-2.4004,-2.4004,-2.4004,-2.359,-2.3133,-2.3258,-2.3195,-2.312,-2.3183,-2.3158,-2.3108,-2.3108,-2.3108,-2.2957,-2.2468,-2.2397,-2.2246,-2.1757,-2.1568,-2.1493,-2.1493,-2.1493,-2.1493,-2.1493,-2.1493,-2.1493,-2.1493,0.0,0.0,-2.1443,-2.0514,-2.0125,-2.0666,-2.0125,-1.9861,-1.9987,-1.9924,-1.9924,-1.9987,-1.9924,-1.9899,-1.9899,-1.9836,-1.9798,-1.9773,-1.9123,-1.8821,0.0,0.0,0.0,0.0,0.0,0.0,0.0,0.0,0.0,0.0,0.0,0.0,0.0,0.0,0.0,-3.5116,-3.6172,-3.7539,-3.9544,-3.9364,-3.908,-3.92,-3.9298,-3.9388,-3.9388,-3.929,-3.899,-3.8437,-3.8272,-3.8197,-3.8197,-3.8197,-3.8452,-3.902,-3.8497,-3.8138,-3.8018,-3.7494,-3.6926,-3.6297,0.0,0.0,-3.5504,-3.5504,-3.5504,-3.5474,-3.4921,-3.4698,-3.4653,-3.3963,-3.2877,-3.154,-3.0297,-2.9501,-2.8939,-2.7731,-2.7013,-2.6544,-2.5737,-2.5686,-2.5871,-2.4946,-2.4946,-2.5121,-2.4255,-2.4004,0.0,-2.4004,-2.359,-2.3308,-2.4224,-2.3785,-2.3221,-2.3715,-2.3446,-2.3108,-2.3108,-2.3108,-2.307,-2.297,-2.2945,-2.2907,-2.2807,-2.2083,-2.1493,-2.1493,-2.1493,-2.1493,-2.1493,-2.1493,-2.1493,-2.1493,-2.1018,-2.0918,-2.1443,-2.0905,-2.0578,-2.0679,-2.0125,-2.0213,-2.1129,-2.0767,-2.0729,-2.1154,-2.0754,-2.0528,-2.0528,-2.0024,-1.9798,-1.9798,-1.9643,-1.9579,0.0,0.0,0.0,0.0,0.0,0.0,0.0,0.0,0.0,0.0,0.0,-3.351,0.0,0.0,-3.636,-3.7743,-3.8497,-3.9379,-4.0696,-4.0606,-4.0277,-3.9948,-3.9619,-3.9388,-3.9388,-3.9388,-3.9275,-3.8931,-3.8901,-3.8901,-3.8901,-3.8901,-3.9065,-3.9373,-3.9095,-3.8736,-3.8392,-3.8063,-3.7584,-3.6941,-3.6626,-3.6312,-3.5983,-3.5654,-3.5504,-3.5489,-3.5145,-3.4996,-3.4936,-3.4262,-3.3343,-3.2292,-3.166,-3.0492,-2.9087,-2.8265,-2.7773,-2.7382,-2.625,-2.5839,-2.5736,-2.5025,-2.4996,-2.5159,-2.4883,-2.4795,-2.4795,-2.4795,-2.4406,-2.4086,-2.465,-2.4374,-2.3948,-2.3991,-2.3778,-2.3459,-2.317,-2.3108,-2.3108,-2.3108,-2.3108,-2.3108,-2.3108,-2.2644,-2.2309,-2.2309,-2.2309,-2.2309,-2.2309,-2.2309,-2.2309,-2.2309,-2.182,-2.1707,-2.2272,-2.1807,-2.1408,-2.1119,-2.0815,-2.0903,-2.1496,-2.1257,-2.1232,-2.1481,-2.1245,-2.0968,-2.0691,-2.0402,-2.0087,-1.9811,-2.01,-2.0075,0.0,0.0,0.0,0.0,0.0,0.0,0.0,0.0,-3.2048,-3.338,-3.4188,-3.51,-3.6582,-3.7479,-3.8556,-4.0307,-4.0591,-4.0861,-4.1654,-4.1549,-4.119,-4.0651,-4.0008,-3.9568,-3.9568,-3.9499,-3.9388,-3.9388,-3.9388,-3.9388,-3.9388,-3.9388,-3.9388,-3.9388,-3.9388,-3.9155,-3.8601,-3.8586,-3.8257,-3.7599,-3.6971,-3.6596,-3.6462,-3.5804,-3.5504,-3.5504,-3.5504,-3.5504,-3.5459,-3.4906,-3.4277,-3.3634,-3.3095,-3.1638,-2.9771,-2.8918,-2.8608,-2.8402,-2.7016,-2.6253,-2.5864,-2.5412,-2.5371,-2.5493,-2.565,-2.5686,-2.5679,-2.5627,-2.5222,-2.4838,-2.5084,-2.4983,-2.4675,-2.4268,-2.4079,-2.3841,-2.3233,-2.3108,-2.3108,-2.3108,-2.3108,-2.3108,-2.3108,-2.3108,-2.3108,-2.3108,-2.3108,-2.3108,-2.3108,-2.3108,-2.3108,-2.3108,-2.2606,-2.2456,-2.2907,-2.2543,-2.2171,-2.1832,-2.1606,-2.1581,-2.1794,-2.1707,-2.1694,-2.1807,-2.1707,-2.143,-2.1018,-2.0905,-2.0616,-2.0137,-2.0629,-2.0553,-2.8502,-2.8801,-2.9666,-3.0778,-3.1227,-3.2288,0.0,0.0,-3.6178,-3.7464,-3.8272,-3.8631,-3.8257,-3.9215,-4.0337,-4.113,-4.1265,-4.1698,-4.2901,-4.2117,-4.1354,-4.128,-4.0696,-4.0292,-4.0292,-3.9768,-3.9388,-3.9388,-3.9388,-3.9388,-3.9388,-3.9388,-3.9388,-3.9388,-3.9388,-3.9343,-3.9305,-3.9305,-3.896,-3.8272,-3.7629,-3.7015,-3.6462,-3.5804,-3.5504,-3.5504,-3.5504,-3.5504,-3.5489,-3.5429,-3.4981,-3.4384,-3.4324,-3.375,-3.276,-3.0797,-3.0063,-2.9841,-2.8446,-2.8236,-2.8394,-2.7377,-2.7388,-2.7605,-2.6419,-2.6038,-2.5999,-2.5679,-2.5222,-2.5046,-2.6059,-2.5548,-2.4775,-2.4713,-2.4356,-2.3841,-2.3233,-2.3108,-2.3108,-2.3108,-2.3108,-2.3108,-2.3108,-2.3108,-2.3108,-2.3108,-2.3108,-2.3108,-2.3108,-2.3108,-2.3108,-2.3108,-2.2606,-2.2305,-2.2368,-2.2347,-2.2498,-2.2895,-2.2033,-2.1933,-2.2882,-2.2443,-2.2418,-2.2907,-2.2443,-2.2184,-2.2121,-2.1631,-2.1395,-2.1305,-2.1395,-2.1131,-3.0464,-3.0479,0.0,0.0,-3.3514,-3.5385,-3.703,-3.7823,-3.8452,-3.9364,-4.0098,-4.0591,-4.0718,-4.1474,-4.2192,0.0,-4.2521,-4.2716,-4.3215,-4.2536,-4.1856,-4.1467,-4.0457,-3.9828,-3.9828,-3.9574,-3.9388,-3.9388,-3.9388,-3.9553,-3.9963,-3.9993,-3.9993,-3.9993,-3.9993,-3.9798,-3.9388,-3.9388,-3.9275,-3.8975,-3.7913,-3.727,-3.6985,-3.5968,-3.5504,-3.5504,-3.5504,-3.5504,-3.5504,-3.5504,-3.5325,-3.504,-3.4668,-3.4339,-3.3872,-3.2196,-3.1589,-3.1366,-2.9931,-2.9359,-2.9141,-2.8485,-2.8266,-2.8149,-2.7875,-2.779,-2.7642,-2.7007,-2.6666,-2.647,-2.6497,-2.6147,-2.5686,-2.536,-2.5096,-2.4782,-2.4199,-2.4086,-2.423,-2.4761,-2.452,-2.4437,-2.4944,-2.4357,-2.3796,-2.3796,-2.3395,-2.3108,-2.3108,-2.3108,-2.3108,-2.3108,-2.2895,-2.2757,-2.2757,-2.2757,-2.2857,-2.3095,-2.2669,-2.2631,-2.3083,-2.2882,-2.2869,-2.3095,-2.2882,-2.2606,-2.2309,-2.2083,-2.1807,-2.1493,-2.182,-2.1845,-3.1301,0.0,0.0,-3.3559,-3.6073,-3.8377,-3.8931,-3.9798,-4.0681,-4.1339,-4.1564,-4.1826,-4.2306,-4.2596,-4.2851,-4.303,-4.306,-4.306,-4.306,-4.2506,-4.1826,-4.0935,-3.9828,-3.9065,-3.8886,-3.9035,-3.9215,-3.9373,-3.9553,-3.9903,-4.0367,-4.0576,-4.0591,-4.0412,-4.0397,-4.0083,-3.9388,-3.9388,-3.9388,-3.9373,-3.8242,-3.7584,-3.736,-3.6088,-3.5504,-3.5504,-3.5504,-3.5504,-3.5504,-3.5504,-3.5504,-3.5459,-3.4966,-3.4788,-3.4653,-3.3484,-3.2946,-3.2602,-3.135,-3.0732,-3.0468,-3.0076,-2.9709,-2.9395,-2.9554,-2.9474,-2.9192,-2.8298,-2.8051,-2.792,-2.7351,-2.7196,-2.6987,-2.6143,-2.6134,-2.611,-2.5326,-2.5313,-2.5678,-2.6319,-2.6046,-2.5899,-2.653,-2.5608,-2.4731,-2.4572,-2.385,-2.3283,-2.312,-2.3108,-2.3108,-2.3108,-2.3108,-2.3108,-2.3108,-2.3108,-2.3108,-2.3108,-2.3108,-2.3108,-2.3108,-2.3108,-2.3108,-2.3108,-2.3108,-2.2907,-2.2506,-2.2506,-2.2305,-2.1945,-2.2347,-2.2506,0.0,0.0,-3.4053,-3.6626,-3.8796,-4.0816,-4.2761,-4.321,-4.3364,-4.4062,-4.321,-4.2381,-4.2396,-4.1886,-4.1692,-4.2321,-4.2425,-4.2425,-4.2425,-4.1856,-4.0935,-3.9634,-3.8856,-3.8167,0.0,-3.8048,-3.8691,-3.9328,-4.0008,-4.0382,-4.0397,-4.101,-4.1055,-4.0427,-4.0397,-4.0083,-3.9388,-3.9388,-3.9388,-3.9373,-3.8691,-3.8018,-3.736,-3.6088,-3.5504,-3.5504,-3.5504,-3.5504,-3.5504,-3.5504,-3.5504,-3.5504,-3.5489,-3.5474,-3.5385,-3.4681,-3.4039,-3.3365,-3.2676,-3.2856,-3.3274,-3.2617,-3.2378,-3.2213,-3.138,-3.0715,-3.0072,-2.9223,-2.8971,-2.8939,-2.8939,-2.8907,-2.8566,-2.7189,-2.7516,-2.7742,-2.6343,-2.6671,-2.724,-2.727,-2.7256,-2.7242,-2.7272,-2.66,-2.5849,-2.5253,-2.4502,-2.3766,-2.3183,-2.3108,-2.3108,-2.3108,-2.3108,-2.3108,-2.3108,-2.3108,-2.3108,-2.3108,-2.3108,-2.3108,-2.3108,-2.3108,-2.3108,-2.3108,-2.3108,-2.3095,-2.3083,-2.3083,-2.307,-2.3058,-2.307,-2.3083,0.0,0.0,-3.6731,-3.9379,-4.1534,-4.3284,-4.4392,-4.4646,-4.4332,-4.324,-4.1968,-4.0786,-3.9925,-3.9544,-3.9619,-4.0292,-4.1145,-4.1752,-4.1752,-4.1931,-4.1257,-3.899,-3.8527,0.0,0.0,0.0,0.0,-3.8691,-3.9364,-4.0127,-4.101,-4.1707,-4.1767,-4.107,-4.1055,-4.0531,-3.9388,-3.9388,-3.9388,-3.9373,-3.8272,-3.7404,-3.6761,-3.5908,-3.5504,-3.5504,-3.5504,-3.5504,-3.5504,-3.5504,-3.5504,-3.5504,-3.5504,-3.5504,-3.5474,-3.525,-3.5011,-3.4666,-3.3559,-3.3305,-3.3455,-3.3245,-3.2871,-3.2452,-3.2138,-3.193,-3.1484,-3.0217,-3.0472,-3.0899,-2.9933,-2.9984,-3.0214,-2.9745,-2.9485,-2.9269,-2.8776,-2.8546,-2.8597,-2.9188,-2.8937,-2.8798,-2.9332,-2.7975,-2.6284,-2.4648,-2.3837,-2.3333,-2.3133,-2.3108,-2.3108,-2.3108,-2.3108,-2.3108,-2.3108,-2.3108,-2.3108,-2.3108,-2.3108,-2.3108,-2.3108,-2.3108,-2.3108,-2.3108,-2.3108,-2.3108,-2.3108,-2.3108,-2.3108,-2.3108,-2.3108,-2.3108,0.0,-3.715,-3.911,-4.1758,-4.3748,-4.514,-4.5559,-4.5289,-4.4392,-4.2455,-4.0576,-3.8931,-3.7599,-3.7165,-3.7285,-3.8227,-3.9275,-4.0217,-4.0935,-4.1018,-4.0524,-3.926,-3.8676,0.0,0.0,0.0,0.0,-3.8362,-3.9469,-4.0487,-4.1324,-4.2051,-4.2096,-4.1399,-4.1145,-4.0502,-3.9388,-3.9388,-3.9388,-3.9373,-3.8048,-3.721,-3.6791,-3.5908,-3.5504,-3.5504,-3.5504,-3.5504,-3.5504,-3.5504,-3.5504,-3.5504,-3.5504,-3.5504,-3.5504,-3.5504,-3.5504,-3.534,-3.4233,-3.4008,-3.4173,-3.3933,-3.3559,-3.3215,-3.3215,-3.3051,-3.2646,-3.1703,-3.2019,-3.2465,-3.151,-3.1568,-3.1803,-3.1509,-3.1342,-3.1187,-3.0852,-3.0485,-3.0416,-3.0993,-3.0528,-3.025,-3.0753,-2.9262,-2.7432,-2.5761,-2.4797,-2.3986,-2.318,-2.3335,-2.3424,-2.3138,-2.3108,-2.3108,-2.3108,-2.3108,-2.3108,-2.3108,-2.3108,-2.3108,-2.3108,-2.3108,-2.3108,-2.3108,-2.3108,-2.3108,-2.3108,-2.3108,-2.3108,-2.3108,-2.3108,-2.3108,-3.6178,-3.8616,-4.122,-4.3778,-4.5379,-4.6264,-4.6234,-4.5185,-4.3599,-4.1594,-3.905,-3.6806,0.0,0.0,-3.4848,-3.6163,-3.7015,-3.8182,-4.0127,-3.9379,-3.908,0.0,0.0,0.0,0.0,0.0,0.0,-3.8497,0.0,-4.1392,-4.1467,-4.2051,-4.2096,-4.1399,-4.0741,-4.0083,-3.9388,-3.9388,-3.9388,-3.9373,-3.8093,-3.7434,-3.736,-3.6133,-3.5534,-3.5504,-3.5504,-3.5504,-3.5504,-3.5504,-3.5504,-3.5504,-3.5504,-3.5504,-3.5504,-3.5504,-3.5504,-3.5415,-3.4788,-3.4966,-3.54,-3.4773,-3.4533,-3.4503,-3.4503,-3.4069,-3.3544,-3.3499,-3.3544,-3.3589,-3.3559,-3.3574,-3.3389,-3.2576,-3.2956,-3.3314,-3.2501,-3.2426,-3.2557,-3.2497,-3.1959,-3.1511,-3.1438,-3.0338,-2.9157,-2.8277,-2.7201,-2.5685,-2.3496,-2.3852,-2.4002,-2.3198,-2.3108,-2.3108,-2.3108,-2.3108,-2.3108,-2.3108,-2.3108,-2.3108,-2.3108,-2.3108,-2.3108,-2.3108,-2.3108,-2.3108,-2.3108,-2.3108,-2.3108,-2.3108,-2.3108,-2.3108,-3.937,-4.1683,-4.3718,-4.5394,-4.6025,-4.6187,-4.5678,-4.3778,-4.1429,-3.8931,-3.6327,-3.3933,0.0,0.0,0.0,-3.4771,-3.7195,0.0,-4.0262,-4.1354,0.0,0.0,0.0,-4.0232,-3.9245,-3.9604,0.0,0.0,-4.0367,-4.107,-4.2096,-4.2306,-4.2096,-4.1399,-4.0741,-4.0083,-3.9388,-3.9388,-3.9388,-3.9373,-3.8556,-3.7883,-3.7375,-3.6596,-3.5968,-3.5504,-3.5504,-3.5504,-3.5504,-3.5504,-3.5504,-3.5504,-3.5504,-3.5504,-3.5504,-3.5504,-3.5504,-3.5489,-3.5295,-3.5355,-3.5474,-3.5295,-3.4906,-3.4503,-3.4503,-3.4384,-3.4159,-3.3634,-3.4218,-3.4876,-3.4352,-3.4607,-3.4916,-3.4708,-3.4465,-3.4186,-3.3951,-3.357,-3.3095,-3.2617,-3.1959,-3.1307,-3.0703,-3.0319,-2.9484,-2.7716,-2.7665,-2.7056,-2.4935,-2.4455,-2.4002,-2.3198,-2.3108,-2.3108,-2.3108,-2.3108,-2.3108,-2.3108,-2.3108,-2.3108,-2.3108,-2.3108,-2.3108,-2.3108,-2.3108,-2.3108,-2.3108,-2.3108,-2.3108,-2.3108,-2.3108,-2.3108,-4.1272,-4.3464,-4.5304,-4.5753,-4.5873,-4.5394,-4.3554,-4.1549,-3.9155,-3.5923,-3.3619,0.0,0.0,0.0,0.0,0.0,0.0,0.0,-3.9709,-4.0883,-4.16,0.0,-4.1758,0.0,-4.0786,-4.1055,-4.1265,0.0,-4.1265,-4.1617,-4.2366,-4.2396,-4.2096,-4.1399,-4.0741,-4.0083,-3.9388,-3.9388,-3.9388,-3.9373,-3.8721,-3.8197,-3.7808,-3.6896,-3.6282,-3.5923,0.0,-3.5504,-3.5504,-3.5504,-3.5504,-3.5534,-3.5818,-3.5759,-3.5549,-3.5833,-3.5744,-3.5504,-3.5504,-3.5504,-3.5504,-3.5504,-3.525,-3.4921,-3.4921,-3.4921,-3.4846,-3.4472,-3.4921,-3.5415,-3.5026,-3.522,-3.5504,-3.5504,-3.5205,-3.4921,-3.4921,-3.4397,-3.3724,-3.308,-3.2392,-3.1812,-3.1352,-3.1027,-3.044,-2.926,-2.8942,-2.8309,-2.6812,-2.5552,-2.4366,-2.3215,-2.3108,-2.3108,-2.3108,-2.3108,-2.3245,-2.359,-2.3305,-2.3245,-2.3619,-2.3632,-2.3454,-2.3108,-2.3454,-2.3454,-2.3108,-2.3108,-2.3108,-2.3108,-2.3108,-2.3108,-4.256,-4.4496,-4.6172,-4.5589,-4.5229,-4.4212,-4.0995,-3.902,-3.6806,-3.3021,0.0,0.0,-2.8682,0.0,-3.0133,-3.1421,0.0,-3.5833,-3.894,-3.9574,-4.0561,-4.2886,-4.2776,-4.253,-4.253,-4.253,-4.253,-4.253,-4.253,-4.253,-4.253,-4.244,-4.2051,-4.1265,-4.0606,-3.9993,-3.9424,-3.9388,-3.9388,-3.9373,-3.8721,-3.8392,-3.8347,-3.7075,-3.6492,-3.6447,-3.5789,-3.5549,-3.5639,-3.5639,-3.5684,-3.5818,-3.6387,-3.6252,-3.5833,-3.6402,-3.6193,-3.5639,-3.5639,-3.5579,-3.5504,-3.5504,-3.5504,-3.5504,-3.5504,-3.5504,-3.5504,-3.5504,-3.5504,-3.5504,-3.5504,-3.5504,-3.5504,-3.5504,-3.5504,-3.5504,-3.5504,-3.4966,-3.4339,-3.3739,-3.3021,-3.2512,-3.2512,-3.1944,-3.1466,-3.1376,-3.0357,-2.9275,-2.8379,-2.6679,-2.5007,-2.356,-2.3424,-2.3365,-2.3275,-2.3365,-2.3649,-2.4263,-2.3738,-2.3708,-2.4436,-2.4452,-2.4105,-2.3424,-2.4002,-2.4002,-2.3424,-2.3305,-2.3305,-2.3382,-2.3305,-2.3245,-4.4317,-4.5544,-4.6249,-4.6172,-4.493,-4.3,-4.0217,-3.7285,0.0,0.0,0.0,-2.8682,-2.7929,-2.916,0.0,-3.2093,0.0,0.0,0.0,0.0,-4.1414,0.0,0.0,0.0,0.0,0.0,0.0,0.0,0.0,-4.3125,-4.3125,-4.2656,-4.1856,-4.0606,-3.9933,-3.9529,-3.9388,-3.9388,-3.9388,-3.9373,-3.8721,-3.8392,-3.8347,-3.7075,-3.6492,-3.6447,-3.5789,0.0,-3.6312,-3.6312,-3.6611,-3.709,-3.721,-3.718,-3.709,-3.721,-3.6851,-3.6312,-3.6312,-3.5953,-3.5504,-3.5504,-3.5504,-3.5504,-3.5504,-3.5504,-3.5504,-3.5504,-3.5504,-3.5504,-3.5504,-3.5504,-3.5504,-3.5504,-3.5504,-3.5504,-3.5504,-3.4966,-3.4474,-3.4354,-3.3335,-3.2512,-3.2512,-3.1944,-3.1316,-3.0776,-3.0058,-2.9112,-2.7815,-2.6876,-2.5973,-2.5091,-2.5007,-2.4753,-2.4147,-2.4639,-2.4809,-2.4321,-2.4724,-2.5063,-2.5203,-2.5203,-2.5147,-2.5007,-2.4538,-2.4538,-2.5007,-2.4394,-2.4394,-2.4979,-2.4366,-2.4089,-4.4855,-4.5798,-4.6115,-4.5454,-4.3554,-4.1063,-3.8012,0.0,0.0,0.0,0.0,-2.8354,-2.7735,0.0,0.0,0.0,0.0,0.0,0.0,0.0,0.0,0.0,0.0,0.0,0.0,0.0,0.0,0.0,0.0,-4.329,-4.329,-4.2716,-4.1961,-4.0935,-4.0277,-3.9768,-3.9388,-3.9388,-3.9388,-3.9373,-3.8721,-3.8392,-3.8362,-3.7404,-3.6971,-3.6941,-3.6626,-3.6671,-3.6971,-3.6971,-3.715,-3.7434,-3.7778,-3.7719,-3.7449,-3.7793,-3.7315,-3.6492,-3.6492,-3.6058,-3.5504,-3.5504,-3.5504,-3.5504,-3.5504,-3.5504,-3.5504,-3.5504,-3.5504,-3.5504,-3.5504,-3.5504,-3.5504,-3.5504,-3.5504,-3.5504,-3.5504,-3.525,-3.5011,-3.5011,-3.4218,-3.3529,-3.3529,-3.2706,-3.1899,-3.1599,-3.0702,-2.9829,-2.9156,-2.8191,-2.7045,-2.5578,-2.5398,-2.5259,-2.4908,-2.5203,-2.5398,-2.5425,-2.5425,-2.5563,-2.596,-2.5987,-2.5783,-2.5398,-2.5425,-2.5425,-2.5398,-2.5035,-2.5035,-2.537,-2.4652,-2.4509,-4.4556,-4.5484,-4.5813,-4.4616,-4.2237,-3.9313,-3.598,-3.3633,0.0,0.0,-2.8487,-2.8359,-2.7885,0.0,0.0,0.0,0.0,0.0,0.0,0.0,0.0,0.0,0.0,0.0,0.0,0.0,0.0,0.0,0.0,0.0,-4.329,-4.2716,-4.2096,-4.1399,-4.0741,-4.0083,-3.9388,-3.9388,-3.9388,-3.9373,-3.8721,-3.8392,-3.8362,-3.7704,-3.7404,-3.7404,-3.7404,-3.7494,-3.7614,-3.7614,-3.7704,-3.7898,-3.8407,-3.8302,-3.7898,-3.8422,-3.7883,-3.6881,-3.6731,-3.6252,-3.5684,-3.5549,-3.5504,-3.5504,-3.5504,-3.5504,-3.5504,-3.5504,-3.5504,-3.5504,-3.5504,-3.5504,-3.5504,-3.5504,-3.5504,-3.5504,-3.5504,-3.5504,-3.5504,-3.5504,-3.4951,-3.4503,-3.4503,-3.3499,-3.2677,-3.2512,-3.1495,-3.0672,-3.0522,-2.9505,-2.8095,-2.6269,-2.5976,-2.581,-2.5646,-2.5783,-2.6054,-2.6484,-2.6108,-2.6135,-2.6721,-2.6747,-2.6469,-2.5892,-2.6283,-2.6283,-2.5864,-2.5701,-2.5728,-2.5864,-2.5119,-2.5063,-4.3314,-4.4436,-4.5214,-4.4496,-4.1893,-3.8616,-3.5332,0.0,0.0,0.0,-2.8487,-2.8487,-2.8431,-2.8521,0.0,0.0,0.0,0.0,0.0,0.0,0.0,0.0,0.0,0.0,0.0,0.0,0.0,0.0,0.0,0.0,-4.329,-4.2716,-4.2096,-4.1399,-4.0741,-4.0083,-3.9388,-3.9388,-3.9388,-3.9373,-3.8721,-3.8392,-3.8362,-3.7704,-3.7404,-3.7404,-3.7404,-3.7749,0.0,-3.8302,-3.8676,-3.9209,-3.9269,-3.9254,-3.9209,-3.9305,-3.8856,-3.8123,-3.7539,-3.6926,-3.6297,-3.5699,-3.5504,-3.5504,-3.5504,-3.5504,-3.5504,-3.5504,-3.5504,-3.5504,-3.5504,-3.5504,-3.5504,-3.5504,-3.5504,-3.5504,-3.5504,-3.5504,-3.5504,-3.5504,-3.4951,-3.4503,-3.4503,-3.3873,-3.32,-3.2602,-3.1869,-3.1182,-3.0582,-2.9909,-2.9209,-2.8378,-2.7754,-2.7111,-2.6457,-2.7008,-2.7137,-2.6537,-2.706,-2.7433,-2.7484,-2.7484,-2.7458,-2.7408,-2.68,-2.68,-2.7408,-2.6747,-2.6747,-2.7382,-2.6628,-2.6336,-4.2233,-4.3419,-4.3868,-4.2806,-4.0367,-3.7432,-3.4486,0.0,0.0,-2.8828,-2.8487,-2.8391,-2.8018,-2.7986,-2.8438,0.0,0.0,0.0,0.0,0.0,0.0,0.0,0.0,0.0,0.0,0.0,0.0,0.0,0.0,0.0,-4.329,-4.2716,-4.2096,-4.1399,-4.0741,-4.0083,-3.9388,-3.9388,-3.9388,-3.9373,-3.8721,-3.8392,-3.8377,-3.8123,-3.8003,-3.8018,-3.8437,-3.8766,0.0,-3.9005,-3.917,-3.9388,-3.9388,-3.9388,-3.9388,-3.9388,-3.8736,-3.7764,-3.7494,-3.6746,-3.5848,-3.5594,-3.5504,-3.5504,-3.5504,-3.5504,-3.5504,-3.5504,-3.5504,-3.5504,-3.5504,-3.5504,-3.5504,-3.5504,-3.5504,-3.5504,-3.5504,-3.5504,-3.5504,-3.5504,-3.528,-3.51,-3.51,-3.4532,-3.3858,-3.32,-3.2512,-3.1854,-3.1182,-3.0552,-3.0043,-2.9774,-2.8816,-2.7906,-2.7233,-2.7433,-2.7458,-2.7178,-2.7433,-2.76,-2.76,-2.76,-2.76,-2.76,-2.7306,-2.7306,-2.76,-2.7306,-2.7306,-2.7575,-2.6826,-2.6747,-4.0323,-4.152,-4.1914,-4.1025,-3.8772,-3.6211,0.0,0.0,-3.0359,-2.9053,-2.8919,-2.8787,-2.8018,-2.786,-2.8188,0.0,0.0,0.0,0.0,0.0,0.0,0.0,0.0,0.0,0.0,0.0,0.0,0.0,0.0,0.0,-4.3045,-4.2432,-4.1901,-4.1384,-4.0741,-4.0083,-3.9388,-3.9388,-3.9388,-3.9373,-3.8931,-3.8586,-3.8407,-3.8601,-3.8586,-3.8422,-3.9125,-3.9388,0.0,-3.9388,-3.9388,-3.9388,-3.9388,-3.929,-3.911,-3.911,-3.8392,-3.7375,-3.721,-3.6552,-3.5759,-3.5564,-3.5504,-3.5504,-3.5504,-3.5504,-3.5504,-3.5504,-3.5504,-3.5504,-3.5504,-3.5504,-3.5504,-3.5504,-3.5504,-3.5504,-3.5504,-3.5504,-3.5504,-3.5504,-3.5504,-3.5504,-3.5504,-3.51,-3.4562,-3.3888,-3.3395,-3.2781,-3.1914,-3.1376,-3.0941,-3.0552,-2.9699,-2.8816,-2.7974,-2.7705,-2.76,-2.76,-2.76,-2.76,-2.76,-2.76,-2.76,-2.76,-2.76,-2.76,-2.76,-2.76,-2.76,-2.76,-2.706,-2.7086,-3.7244,-3.8444,-3.9454,-3.9403,-3.7397,-3.5075,0.0,0.0,-3.0925,-2.964,-2.9886,-2.9913,-2.8709,-2.8487,-2.8517,-2.8591,-2.916,0.0,0.0,0.0,0.0,0.0,0.0,0.0,0.0,0.0,0.0,0.0,0.0,0.0,-4.244,-4.1782,-4.1384,-4.1422,-4.0741,-4.0083,-3.9388,-3.9388,-3.9388,-3.9388,-3.9373,-3.905,-3.8407,-3.9095,-3.9035,-3.8422,-3.9125,-3.9388,0.0,-3.9388,-3.9388,-3.9388,-3.9388,-3.9005,-3.8407,-3.8407,-3.7973,-3.7315,-3.6716,-3.6492,-3.6372,-3.5714,-3.5504,-3.5504,-3.5504,-3.5504,-3.5504,-3.5504,-3.5504,-3.5504,-3.5504,-3.5504,-3.5504,-3.5504,-3.5504,-3.5504,-3.5504,-3.5504,-3.5504,-3.5504,-3.5504,-3.5504,-3.5504,-3.5489,-3.5265,-3.4593,-3.4488,-3.3978,-3.2677,-3.2467,-3.1988,-3.0642,-3.0492,-2.9968,-2.8697,-2.7989,-2.76,-2.76,-2.76,-2.76,-2.76,-2.76,-2.76,-2.76,-2.76,-2.76,-2.76,-2.76,-2.76,-2.76,-2.76,-2.76,-3.5521,-3.6609,-3.7188,-3.6692,-3.5301,-3.3578,-3.1813,-3.0717,-2.9824,-2.8967,-2.8943,-2.8966,-2.8559,-2.8165,-2.8188,-2.9139,-2.9472,0.0,0.0,0.0,0.0,0.0,0.0,0.0,0.0,0.0,0.0,0.0,0.0,0.0,-4.241,-4.1347,-4.0711,-4.0711,-4.0068,-3.9634,-3.9388,-3.9388,-3.9388,-3.9388,-3.9388,-3.9305,-3.9095,-3.932,-3.9269,-3.911,-3.9334,-3.9388,-3.9388,-3.9388,-3.9388,-3.9328,-3.8901,-3.8586,-3.8332,-3.7883,-3.7315,-3.6746,-3.6552,-3.6193,-3.5789,-3.5579,-3.5504,-3.5504,-3.5504,-3.5504,-3.5504,-3.5504,-3.5504,-3.5504,-3.5504,-3.5504,-3.5504,-3.5504,-3.5504,-3.5504,-3.5504,-3.5504,-3.5504,-3.5504,-3.5504,-3.5504,-3.5504,-3.5504,-3.5265,-3.4608,-3.4503,-3.4039,-3.2677,-3.2512,-3.2153,-3.1271,-3.0763,-2.9983,-2.8712,-2.8397,-2.8094,-2.763,-2.76,-2.76,-2.76,-2.76,-2.76,-2.76,-2.76,-2.76,-2.76,-2.76,-2.76,-2.76,-2.76,-2.76,0.0,-3.442,-3.5071,-3.4639,-3.3762,0.0,0.0,-3.0466,-2.9626,-2.8975,-2.885,-2.8709,-2.8222,-2.8042,-2.8132,-2.876,-2.9277,0.0,0.0,0.0,0.0,0.0,0.0,0.0,0.0,0.0,0.0,0.0,0.0,0.0,-4.1677,-4.0846,-4.0292,-4.0038,-3.9634,-3.9388,-3.9388,-3.9388,-3.9388,-3.9388,-3.9388,-3.9388,-3.9388,-3.9388,-3.9388,-3.9388,-3.9388,-3.9388,0.0,-3.9388,-3.9275,-3.899,-3.8556,-3.8093,-3.7629,-3.721,-3.6656,-3.6118,-3.6118,-3.5848,-3.5504,-3.5504,-3.5504,-3.5504,-3.5504,-3.5504,-3.5504,-3.5504,-3.5504,-3.5504,-3.5504,-3.5504,-3.5504,-3.5504,-3.5504,-3.5504,-3.5504,-3.5504,-3.5504,-3.5504,-3.5504,-3.5504,-3.5504,-3.5504,-3.5355,-3.4936,-3.4861,-3.4382,-3.3051,-3.2886,-3.2512,-3.16,-3.1122,-3.0434,-2.9415,-2.8876,-2.8412,-2.8004,-2.775,-2.76,-2.76,-2.76,-2.76,-2.76,-2.76,-2.76,-2.76,-2.76,-2.76,-2.76,-2.76,-2.76,0.0,0.0,0.0,0.0,0.0,0.0,0.0,-3.1199,0.0,-2.9518,-2.9406,-2.9081,-2.8005,-2.8146,-2.8308,-2.7956,-2.8839,0.0,0.0,0.0,0.0,0.0,0.0,0.0,0.0,0.0,0.0,0.0,0.0,0.0,-4.0427,-4.0352,-4.0023,-3.9364,-3.9313,-3.9313,-3.9313,-3.9313,-3.9313,-3.9313,-3.9313,-3.9313,-3.9349,-3.9269,-3.9239,0.0,-3.9334,-3.932,-3.9239,-3.9334,-3.8931,-3.8317,-3.8272,-3.7524,-3.6477,-3.6432,-3.6028,-3.5504,-3.5504,-3.5504,-3.5504,-3.5504,-3.5504,-3.5504,-3.5504,-3.5504,-3.5504,-3.5504,-3.5504,-3.5504,-3.5504,-3.5504,-3.5504,-3.5504,-3.5504,-3.5504,-3.5504,-3.5504,-3.5504,-3.5504,-3.5504,-3.5504,-3.5504,-3.5504,-3.5504,-3.5504,-3.5504,-3.5026,-3.3664,-3.3499,-3.2991,-3.1645,-3.1511,-3.1241,-3.0627,-2.9445,-2.8727,-2.8667,-2.8049,-2.766,-2.766,-2.763,-2.76,-2.76,-2.76,-2.76,-2.76,-2.76,-2.76,-2.76,-2.76,-2.76,-2.9395,0.0,-3.1695,-3.1695,0.0,0.0,0.0,0.0,-3.0123,0.0,0.0,0.0,0.0,-2.8715,-2.8435,0.0,0.0,0.0,0.0,0.0,0.0,0.0,0.0,0.0,0.0,0.0,0.0,0.0,0.0,-4.0561,-4.0412,-3.9918,-3.9334,-3.8661,-3.8631,-3.8631,-3.8631,-3.8631,-3.8631,-3.8631,-3.8631,-3.8631,-3.8616,-3.8108,-3.7883,-3.7913,-3.8407,-3.8347,-3.7913,-3.8422,-3.8242,-3.7599,-3.712,-3.6746,-3.6432,-3.5923,-3.5639,-3.5504,-3.5504,-3.5504,-3.5504,-3.5504,-3.5504,-3.5504,-3.5504,-3.5504,-3.5504,-3.5504,-3.5504,-3.5504,-3.5504,-3.5504,-3.5504,-3.5504,-3.5504,-3.5504,-3.5504,-3.5504,-3.5504,-3.5504,-3.5504,-3.5504,-3.5504,-3.5504,-3.5504,-3.5504,-3.5504,-3.5026,-3.3664,-3.3499,-3.2991,-3.1645,-3.1511,-3.1436,-3.1271,-3.0537,-2.9864,-2.9385,-2.8727,-2.8353,-2.8353,-2.7884,-2.76,-2.76,-2.76,-2.76,-2.76,-2.76,-2.76,-2.76,-2.76,-2.76,-2.9397,-3.0328,-3.119,-3.119,-3.0938,-3.072,0.0,0.0,0.0,0.0,0.0,0.0,0.0,0.0,0.0,0.0,0.0,0.0,0.0,0.0,0.0,0.0,0.0,0.0,0.0,0.0,0.0,0.0,0.0,-3.9813,-3.9499,-3.914,-3.8631,-3.7958,-3.7659,-3.7644,-3.7943,-3.7943,-3.7943,-3.7943,-3.7943,-3.7943,-3.7928,-3.7569,-3.7569,-3.7853,-3.7913,-3.7913,-3.7853,-3.7913,-3.7569,-3.6941,-3.6611,-3.6297,-3.5998,-3.5639,-3.5504,-3.5504,-3.5504,-3.5504,-3.5504,-3.5504,-3.5504,-3.5504,-3.5504,-3.5504,-3.5504,-3.5504,-3.5504,-3.5504,-3.5504,-3.5504,-3.5504,-3.5504,-3.5504,-3.5504,-3.5504,-3.5504,-3.5504,-3.5504,-3.5504,-3.5504,-3.5504,-3.5504,-3.5504,-3.5504,-3.5504,-3.5026,-3.3664,-3.3499,-3.2991,-3.1645,-3.1511,-3.1511,-3.1511,-3.1167,-3.0702,-3.0043,-2.94,-2.8921,-2.8607,-2.8248,-2.7914,-2.76,-2.76,-2.76,-2.76,-2.76,-2.76,-2.76,-2.76,-2.76,-2.9736,-3.0463,-3.1055,-3.1157,-3.119,-3.119,0.0,0.0,0.0,0.0,0.0,0.0,0.0,0.0,0.0,0.0,0.0,0.0,0.0,0.0,0.0,0.0,0.0,0.0,0.0,0.0,0.0,0.0,0.0,-3.8856,-3.8272,-3.8242,-3.7943,-3.7285,-3.6761,-3.6686,-3.712,-3.7225,-3.727,-3.727,-3.727,-3.727,-3.727,-3.7165,-3.7419,-3.7928,0.0,0.0,-3.7913,-3.7449,-3.6896,-3.6342,-3.6342,-3.5998,-3.5504,-3.5504,-3.5504,-3.5504,-3.5504,-3.5504,-3.5504,-3.5504,-3.5504,-3.5504,-3.5504,-3.5504,-3.5504,-3.5504,-3.5504,-3.5504,-3.5504,-3.5504,-3.5504,-3.5504,-3.5504,-3.5504,-3.5504,-3.5504,-3.5504,-3.5504,-3.5504,-3.5504,-3.5504,-3.5504,-3.5504,-3.5504,-3.5504,-3.5026,-3.3664,-3.3499,-3.2991,-3.1645,-3.1511,-3.1511,-3.1511,-3.1511,-3.1256,-3.0702,-3.0073,-2.9412,-2.8637,-2.8607,-2.8278,-2.76,-2.76,-2.76,-2.76,-2.76,-2.76,-2.76,-2.76,-2.76,-2.8941,-2.9702,-3.0429,-3.1038,-3.119,-3.119,-3.119,0.0,0.0,0.0,0.0,0.0,0.0,0.0,0.0,0.0,0.0,0.0,0.0,0.0,0.0,0.0,0.0,0.0,0.0,0.0,0.0,0.0,0.0,-3.7674,-3.7569,-3.7554,-3.727,-3.6656,-3.6537,-3.6267,-3.5804,-3.6342,-3.6626,-3.6626,-3.6626,-3.6626,-3.6611,-3.6043,-3.5848,-3.5968,0.0,-3.6372,-3.5983,-3.6447,-3.6252,-3.5654,-3.5654,-3.5594,-3.5504,-3.5504,-3.5504,-3.5504,-3.5504,-3.5504,-3.5504,-3.5504,-3.5504,-3.5504,-3.5504,-3.5504,-3.5504,-3.5504,-3.5504,-3.5504,-3.5504,-3.5504,-3.5504,-3.5504,-3.5504,-3.5504,-3.5504,-3.5504,-3.5504,-3.5504,-3.5504,-3.5504,-3.5504,-3.5504,-3.5504,-3.5504,-3.5504,-3.5026,-3.3664,-3.3499,-3.2991,-3.1645,-3.1511,-3.1511,-3.1511,-3.1511,-3.1466,-3.1346,-3.0746,-2.9834,-2.8652,-2.8607,-2.8278,-2.76,-2.76,-2.76,-2.76,-2.76,-2.76,-2.76,-2.76,-2.76,-2.8366,-2.9499,-3.0683,-3.0615,-3.0903,-3.119,-3.119,0.0,0.0,0.0,0.0,0.0,0.0,0.0,0.0,0.0,0.0,0.0,0.0,0.0,0.0,0.0,0.0,0.0,0.0,0.0,0.0,0.0,0.0,0.0,-3.6926,-3.6911,-3.6611,-3.5968,-3.5953,-3.5804,-3.5504,-3.5804,-3.5953,-3.5953,-3.5953,-3.5953,-3.5953,-3.5639,-3.5699,-3.6028,0.0,-3.5983,-3.6028,-3.5983,-3.5774,-3.5504,-3.5504,-3.5504,-3.5504,-3.5504,-3.5504,-3.5504,-3.5504,-3.5504,-3.5504,-3.5504,-3.5504,-3.5504,-3.5504,-3.5504,-3.5504,-3.5504,-3.5504,-3.5504,-3.5504,-3.5504,-3.5504,-3.5504,-3.5504,-3.5504,-3.5504,-3.5504,-3.5504,-3.5504,-3.5504,-3.5504,-3.5504,-3.5504,-3.5504,-3.5504,-3.5504,-3.5145,-3.4189,-3.3709,-3.3125,-3.2138,-3.172,-3.1511,-3.1511,-3.1511,-3.1511,-3.1511,-3.0567,-2.9744,-2.9146,-2.8427,-2.7914,-2.76,-2.76,-2.76,-2.76,-2.76,-2.76,-2.76,-2.76,-2.76,-2.7908,-2.9058,-3.0362,-3.014,0.0,-3.1241,-3.141,0.0,0.0,0.0,0.0,0.0,0.0,0.0,0.0,0.0,0.0,0.0,0.0,0.0,0.0,0.0,0.0,0.0,0.0,0.0,0.0,0.0,0.0,0.0,-3.6282,-3.6252,-3.6028,-3.5519,-3.5504,-3.5504,-3.5504,-3.5504,-3.5504,-3.5504,-3.5504,-3.5504,-3.5504,-3.5504,-3.5774,-3.6237,-3.5729,-3.5789,-3.6222,-3.5714,-3.5504,-3.5504,-3.5504,-3.5504,-3.5504,-3.5504,-3.5504,-3.5504,-3.5504,-3.5504,-3.5504,-3.5504,-3.5504,-3.5504,-3.5504,-3.5504,-3.5504,-3.5504,-3.5504,-3.5504,-3.5504,-3.5504,-3.5504,-3.5504,-3.5504,-3.5504,-3.5504,-3.5504,-3.5504,-3.5504,-3.5504,-3.5504,-3.5504,-3.5504,-3.5504,-3.5504,-3.537,-3.5011,-3.4369,-3.3664,-3.3021,-3.2333,-3.1809,-3.1511,-3.1511,-3.1361,-3.1271,-3.1271,-3.0357,-2.9696,-2.9397,-2.8378,-2.7764,-2.76,-2.76,-2.76,-2.76,-2.76,-2.76,-2.76,-2.76,-2.76,-2.7621,-2.7925,-2.8382,-2.9751,0.0,0.0,-3.2056,-3.2226,0.0,0.0,0.0,0.0,0.0,0.0,0.0,0.0,0.0,0.0,0.0,0.0,0.0,0.0,0.0,0.0,0.0,0.0,0.0,0.0,0.0,0.0,-3.5579,-3.5579,-3.5549,-3.5504,-3.5504,-3.5504,-3.5504,-3.5504,-3.5504,-3.5504,-3.5504,-3.5504,-3.5504,-3.5504,-3.5534,-3.5579,-3.5534,-3.5534,-3.5564,-3.5534,-3.5504,-3.5504,-3.5504,-3.5504,-3.5504,-3.5504,-3.5504,-3.5504,-3.5504,-3.5504,-3.5504,-3.5504,-3.5504,-3.5504,-3.5504,-3.5504,-3.5504,-3.5504,-3.5504,-3.5504,-3.5504,-3.5504,-3.5504,-3.5504,-3.5504,-3.5504,-3.5504,-3.5504,-3.5504,-3.5504,-3.5504,-3.5504,-3.5504,-3.5504,-3.5504,-3.5504,-3.4966,-3.4339,-3.3649,-3.2991,-3.2303,-3.1645,-3.1525,-3.1511,-3.1511,-3.0913,-3.0567,-3.0567,-3.0492,-2.9909,-2.8727,-2.8577,-2.8233,-2.76,-2.76,-2.76,-2.76,-2.76,-2.76,-2.76,-2.76,-2.76,-2.7165,-2.8163,-2.9261,-2.9381,0.0,0.0,0.0,0.0,0.0,0.0,0.0,0.0,0.0,0.0,0.0,0.0,0.0,0.0,0.0,0.0,0.0,0.0,0.0,0.0,0.0,0.0,0.0,0.0,0.0,0.0,-3.5504,-3.5504,-3.5504,-3.5504,-3.5504,-3.5504,-3.5504,-3.5504,-3.5504,-3.5504,-3.5504,-3.5504,-3.5504,-3.5504,-3.5504,-3.5504,-3.5504,-3.5504,-3.5504,-3.5504,-3.5504,-3.5504,-3.5504,-3.5504,-3.5504,-3.5504,-3.5504,-3.5504,-3.5504,-3.5504,-3.5504,-3.5504,-3.5504,-3.5504,-3.5504,-3.5504,-3.5504,-3.5504,-3.5504,-3.5504,-3.5504,-3.5504,-3.5504,-3.5504,-3.5504,-3.5504,-3.5504,-3.5504,-3.5504,-3.5504,-3.5504,-3.5504,-3.5504,-3.5504,-3.5504,-3.5504,-3.4921,-3.4414,-3.4159,-3.317,-3.2392,-3.2138,-3.175,-3.1511,-3.1511,-3.0883,-3.0342,-2.9953,-2.9549,-2.9101,-2.8622,-2.8188,-2.7869,-2.76,-2.76,-2.76,-2.76,-2.76,-2.76,-2.76,-2.76,-2.76,-2.6843,-2.7841,-2.9025,0.0,0.0,0.0,0.0,0.0,0.0,0.0,0.0,0.0,0.0,0.0,0.0,0.0,0.0,0.0,0.0,0.0,0.0,0.0,0.0,0.0,0.0,0.0,0.0,0.0,0.0,0.0,0.0,-3.5504,-3.5504,-3.5504,-3.5295,-3.5295,-3.5504,-3.5295,-3.5295,-3.5504,-3.5504,-3.5504,-3.5504,-3.5504,-3.5504,-3.5504,-3.5504,-3.5504,-3.5504,-3.5504,-3.5504,-3.5504,-3.5504,-3.5504,-3.5504,-3.5504,-3.5504,-3.5504,-3.5504,-3.5504,-3.5504,-3.5504,-3.5504,-3.5504,-3.5504,-3.5504,-3.5504,-3.5504,-3.5504,-3.5504,-3.5504,-3.5504,-3.5504,-3.5504,-3.5504,-3.5504,-3.5504,-3.5504,-3.5504,-3.5504,-3.5504,-3.5504,-3.5504,-3.5504,-3.5429,-3.522,-3.4607,-3.4098,-3.3888,-3.2886,-3.2168,-3.2168,-3.1765,-3.1511,-3.1511,-3.0717,-3.0028,-2.9636,-2.8757,-2.8278,-2.8278,-2.7839,-2.76,-2.76,-2.76,-2.76,-2.76,-2.76,-2.76,-2.76,-2.76,-2.76,-2.6691,-2.6708,0.0,0.0,0.0,0.0,0.0,0.0,0.0,0.0,0.0,0.0,0.0,0.0,0.0,0.0,0.0,0.0,0.0,0.0,0.0,0.0,0.0,0.0,0.0,0.0,0.0,0.0,0.0,0.0,0.0,-3.5504,-3.5504,-3.5504,-3.4863,-3.4801,-3.5489,-3.4848,-3.4801,-3.5489,-3.5489,-3.5489,-3.5504,-3.5504,-3.5504,-3.5504,-3.5504,-3.5504,-3.5504,-3.5504,-3.5504,-3.5504,-3.5504,-3.5504,-3.5504,-3.5504,-3.5504,-3.5504,-3.5504,-3.5504,-3.5504,-3.5504,-3.5504,-3.5504,-3.5504,-3.5504,-3.5504,-3.5504,-3.5504,-3.5504,-3.5504,-3.5504,-3.5504,-3.5504,-3.5504,-3.5504,-3.5504,-3.5504,-3.5504,-3.5504,-3.5504,-3.5504,-3.5504,-3.5504,-3.5265,-3.4623,-3.3918,-3.326,-3.2587,-3.1914,-3.1511,-3.1511,-3.1511,-3.1511,-3.1511,-3.0328,-2.9606,-2.9606,-2.8349,-2.76,-2.76,-2.76,-2.76,-2.76,-2.76,-2.76,-2.76,-2.76,-2.76,-2.76,-2.76,-2.76,-2.6691,-2.7503,0.0,0.0,0.0,0.0,0.0,0.0,0.0,0.0,0.0,0.0,0.0,0.0,0.0,0.0,0.0,0.0,0.0,0.0,0.0,0.0,0.0,0.0,0.0,0.0,0.0,0.0,0.0,0.0,0.0,-3.5504,-3.5504,-3.5504,-3.4863,-3.4608,-3.4786,-3.4128,-3.3888,-3.4083,-3.4083,-3.4592,-3.5504,-3.5504,-3.5504,-3.5504,-3.5504,-3.5504,-3.5504,-3.5504,-3.5504,-3.5504,-3.5504,-3.5504,-3.5504,-3.5504,-3.5504,-3.5504,-3.5504,-3.5504,-3.5504,-3.5504,-3.5504,-3.5504,-3.5504,-3.5504,-3.5504,-3.5504,-3.5504,-3.5504,-3.5504,-3.5504,-3.5504,-3.5504,-3.5504,-3.5504,-3.5504,-3.5504,-3.5504,-3.5504,-3.5504,-3.5504,-3.5504,-3.5504,-3.5429,-3.5235,-3.4233,-3.3095,-3.1929,-3.163,-3.1511,-3.1511,-3.1511,-3.1511,-3.1511,-3.0328,-2.9606,-2.9606,-2.8349,-2.76,-2.76,-2.76,-2.76,-2.76,-2.76,-2.76,-2.76,-2.76,-2.76,-2.76,-2.76,-2.76,-2.7063,0.0,0.0,0.0,0.0,0.0,0.0,0.0,0.0,0.0,0.0,0.0,0.0,0.0,0.0,0.0,0.0,0.0,0.0,0.0,0.0,0.0,0.0,0.0,0.0,0.0,0.0,0.0,0.0,0.0,0.0,-3.4711,-3.4711,-3.4711,-3.4053,-3.3829,-3.4114,-3.344,-3.3245,-3.3499,-3.3499,-3.3918,-3.4711,-3.4711,-3.4711,-3.4726,-3.4981,-3.51,-3.51,-3.51,-3.51,-3.51,-3.51,-3.5265,-3.5504,-3.5504,-3.5504,-3.5474,-3.519,-3.51,-3.51,-3.51,-3.51,-3.5145,-3.5429,-3.531,-3.516,-3.5429,-3.531,-3.516,-3.5429,-3.5504,-3.5504,-3.5504,-3.5504,-3.5504,-3.5504,-3.5504,-3.5504,-3.5504,-3.5504,-3.5504,-3.5504,-3.5504,-3.5325,-3.4786,-3.3574,-3.2392,-3.16,-3.1511,-3.1511,-3.1511,-3.1511,-3.1511,-3.1511,-3.0552,-2.9849,-2.9621,-2.8603,-2.7884,-2.76,-2.76,-2.76,-2.76,-2.76,-2.76,-2.76,-2.76,-2.76,-2.76,-2.76,-2.76,0.0,0.0,0.0,0.0,0.0,0.0,0.0,0.0,0.0,0.0,0.0,0.0,0.0,0.0,0.0,0.0,0.0,0.0,0.0,0.0,0.0,0.0,0.0,0.0,0.0,0.0,0.0,0.0,0.0,0.0,0.0,-3.3499,-3.3499,-3.3499,-3.2856,-3.2796,-3.3395,-3.2751,-3.2721,-3.332,-3.332,-3.332,-3.332,-3.344,-3.3499,-3.3529,-3.4128,-3.4414,-3.4414,-3.4414,-3.4414,-3.4414,-3.4414,-3.4771,-3.5325,-3.5325,-3.5325,-3.5235,-3.4607,-3.4414,-3.4429,-3.4488,-3.4474,-3.4548,-3.5205,-3.4936,-3.4548,-3.5145,-3.4876,-3.4578,-3.5235,-3.537,-3.534,-3.54,-3.5459,-3.5504,-3.5504,-3.5504,-3.5504,-3.5504,-3.5504,-3.5504,-3.5504,-3.5504,-3.504,-3.3694,-3.2392,-3.157,-3.1511,-3.1511,-3.1511,-3.1511,-3.1511,-3.1511,-3.1511,-3.0851,-3.0178,-2.9636,-2.8906,-2.8233,-2.763,-2.76,-2.76,-2.76,-2.76,-2.76,-2.76,-2.76,-2.76,-2.76,-2.76,-2.76,0.0,0.0,0.0,0.0,0.0,0.0,0.0,0.0,0.0,0.0,0.0,0.0,0.0,0.0,0.0,0.0,0.0,0.0,0.0,0.0,0.0,0.0,0.0,0.0,0.0,0.0,0.0,0.0,0.0,0.0,-3.3499,-3.3499,-3.3499,-3.3499,-3.2856,-3.2557,-3.2721,-3.2049,-3.1795,-3.1929,-3.1929,-3.1929,-3.1959,-3.3021,-3.3499,-3.3499,-3.3649,-3.3709,-3.3709,-3.3709,-3.3709,-3.3709,-3.3709,-3.3799,-3.3933,-3.3933,-3.3933,-3.3903,-3.3769,-3.3709,-3.3784,-3.4339,-3.4128,-3.3829,-3.4502,-3.4233,-3.3739,-3.3888,-3.3829,-3.3858,-3.4548,-3.4307,-3.4053,-3.4608,-3.5115,-3.5504,-3.5504,-3.5504,-3.5504,-3.5504,-3.5504,-3.5504,-3.5504,-3.5504,-3.504,-3.3694,-3.2826,-3.2093,-3.157,-3.1511,-3.1511,-3.1511,-3.1511,-3.1511,-3.1511,-3.0447,-2.9756,-2.9621,-2.8483,-2.775,-2.76,-2.76,-2.76,-2.76,-2.76,-2.76,-2.76,-2.76,-2.76,-2.76,-2.76,-2.76,0.0,0.0,0.0,0.0,0.0,0.0,0.0,0.0,0.0,0.0,0.0,0.0,0.0,0.0,0.0,0.0,0.0,0.0,0.0,0.0,0.0,0.0,0.0,0.0,0.0,0.0,0.0,0.0,0.0,-3.1614,-3.1614,-3.1898,-3.1928,-3.1629,-3.1569,-3.1405,-3.1106,-3.0776,-3.0597,-3.0597,-3.0597,-3.0597,-3.0642,-3.1958,-3.2721,-3.3021,-3.3021,-3.3021,-3.3021,-3.3021,-3.3021,-3.3021,-3.3021,-3.3215,-3.3499,-3.3499,-3.3499,-3.344,-3.314,-3.3021,-3.308,-3.3425,-3.3305,-3.3155,-3.3799,-3.3544,-3.3095,-3.341,-3.3275,-3.3185,-3.3844,-3.3754,-3.3589,-3.3918,-3.4517,-3.5011,-3.5011,-3.5265,-3.5504,-3.5504,-3.5504,-3.54,-3.507,-3.4487,-3.3844,-3.314,-3.2437,-3.1884,-3.154,-3.1511,-3.1511,-3.1511,-3.1511,-3.1511,-3.1511,-3.0883,-3.0253,-2.9651,-2.8948,-2.8274,-2.763,-2.76,-2.76,-2.76,-2.76,-2.76,-2.76,-2.76,-2.76,-2.76,-2.76,-2.76,0.0,0.0,0.0,0.0,0.0,0.0,0.0,0.0,0.0,0.0,0.0,0.0,0.0,0.0,0.0,0.0,0.0,0.0,0.0,0.0,0.0,0.0,0.0,0.0,0.0,0.0,0.0,0.0,0.0,-2.9606,-2.9606,-3.0058,-3.0118,-2.9621,-3.0073,-3.0103,-2.9606,-2.9606,-2.9606,-2.9606,-2.9606,-2.9606,-2.9651,-3.0702,-3.1525,-3.2168,-3.2048,-3.2138,-3.2303,-3.2183,-3.2213,-3.2318,-3.2318,-3.2677,-3.3155,-3.3155,-3.3155,-3.308,-3.2512,-3.2318,-3.2333,-3.2452,-3.2407,-3.2437,-3.3125,-3.2871,-3.2452,-3.3006,-3.2766,-3.2467,-3.3155,-3.3245,-3.3185,-3.3305,-3.3739,-3.4234,-3.4459,-3.5026,-3.5504,-3.5504,-3.5415,-3.5115,-3.4459,-3.3305,-3.2512,-3.2512,-3.1929,-3.1511,-3.1511,-3.1511,-3.1511,-3.1511,-3.1511,-3.1511,-3.1511,-3.1301,-3.0731,-2.9681,-2.9397,-2.8768,-2.7645,-2.76,-2.76,-2.76,-2.76,-2.76,-2.76,-2.76,-2.76,-2.76,-2.76,-2.76,0.0,0.0,0.0,0.0,0.0,0.0,0.0,0.0,0.0,0.0,0.0,0.0,0.0,0.0,0.0,0.0,0.0,0.0,0.0,0.0,0.0,0.0,0.0,0.0,0.0,0.0,0.0,0.0,-2.9565,-2.9606,-2.9606,-2.9696,-2.9696,-2.9606,-2.9696,-2.9696,-2.9606,-2.9606,-2.9606,-2.9606,-2.9606,-2.9606,-2.9621,-2.9786,-3.0178,-3.0746,-3.0208,-3.0612,-3.1585,-3.1016,-3.1092,-3.163,-3.163,-3.169,-3.1765,-3.1765,-3.1765,-3.175,-3.166,-3.163,-3.1735,-3.2303,-3.2108,-3.1765,-3.2437,-3.2153,-3.1645,-3.1735,-3.1705,-3.1795,-3.2452,-3.2183,-3.1914,-3.2512,-3.2706,-3.3095,-3.4264,-3.5026,-3.5504,-3.5504,-3.5026,-3.4397,-3.3739,-3.3006,-3.2512,-3.2512,-3.1929,-3.1511,-3.1511,-3.1511,-3.1511,-3.1511,-3.1511,-3.1511,-3.1511,-3.0492,-2.9786,-2.9621,-2.8513,-2.7779,-2.76,-2.76,-2.76,-2.76,-2.76,-2.76,-2.76,-2.76,-2.76,-2.76,-2.76,-2.76,0.0,0.0,0.0,0.0,0.0,0.0,0.0,0.0,0.0,0.0,0.0,0.0,0.0,0.0,0.0,0.0,0.0,0.0,0.0,0.0,0.0,0.0,0.0,0.0,0.0,0.0,0.0,0.0,-2.8458,-2.8483,-2.8483,-2.8858,-2.8861,-2.8498,-2.8831,-2.8846,-2.8483,-2.8483,-2.8483,-2.8483,-2.8483,-2.8483,-2.8483,-2.8483,-2.9037,-2.9968,-2.9726,-3.0103,-3.0883,-3.0253,-3.0597,-3.1466,-3.1077,-3.1167,-3.1511,-3.1511,-3.1511,-3.1451,-3.1062,-3.1182,-3.1496,-3.142,-3.1421,-3.1481,-3.1391,-3.1436,-3.1421,-3.1032,-3.1212,-3.157,-3.1854,-3.172,-3.157,-3.1869,-3.2213,-3.2677,-3.3245,-3.3903,-3.4382,-3.4382,-3.3844,-3.329,-3.2991,-3.2363,-3.1929,-3.1929,-3.169,-3.1511,-3.1511,-3.1511,-3.1511,-3.1511,-3.1511,-3.1346,-3.0957,-3.0432,-2.9789,-2.9071,-2.8472,-2.8004,-2.7615,-2.76,-2.76,-2.76,-2.76,-2.76,-2.76,-2.76,-2.76,-2.76,-2.76,-2.76,0.0,0.0,0.0,0.0,0.0,0.0,0.0,0.0,0.0,0.0,0.0,0.0,0.0,0.0,0.0,0.0,0.0,0.0,0.0,0.0,0.0,0.0,0.0,0.0,0.0,0.0,0.0,0.0,-2.7785,-2.76,-2.76,-2.8053,-2.8113,-2.7615,-2.8094,-2.8124,-2.76,-2.76,-2.76,-2.76,-2.76,-2.76,-2.76,-2.76,-2.8139,-2.9097,-2.9097,-2.952,-3.0223,-2.9594,-3.0013,-3.0957,-3.0477,-3.0582,-3.1017,-3.1017,-3.1017,-3.0943,-3.0447,-3.0717,-3.1152,-3.0672,-3.0851,-3.1152,-3.0657,-3.0746,-3.0928,-3.0612,-3.0866,-3.1286,-3.1466,-3.1511,-3.1511,-3.1511,-3.1884,-3.2333,-3.2691,-3.3155,-3.344,-3.3275,-3.2841,-3.2437,-3.2273,-3.1824,-3.1511,-3.1511,-3.1511,-3.1511,-3.1511,-3.1511,-3.1511,-3.1511,-3.1511,-3.1227,-3.0567,-3.0357,-2.9789,-2.8667,-2.8442,-2.8113,-2.7615,-2.76,-2.76,-2.76,-2.76,-2.76,-2.76,-2.76,-2.76,-2.76,-2.76,-2.76,0.0,0.0,0.0,0.0,0.0,0.0,0.0,0.0,0.0,0.0,0.0,0.0,0.0,0.0,0.0,0.0,0.0,0.0,0.0,0.0,0.0,0.0,0.0,0.0,0.0,0.0,0.0,0.0,-2.8247,-2.76,-2.76,-2.763,-2.763,-2.76,-2.763,-2.763,-2.76,-2.76,-2.76,-2.76,-2.76,-2.76,-2.76,-2.76,-2.763,-2.7705,-2.7705,-2.8438,-2.9606,-2.8921,-2.9071,-2.9711,-2.9666,-2.9681,-2.9711,-2.9711,-2.9711,-2.9696,-2.9666,-3.0043,-3.0552,-3.0507,-3.0522,-3.0552,-3.0507,-3.0118,-2.9804,-3.0357,-3.0537,-3.0717,-3.1331,-3.1511,-3.1511,-3.1511,-3.1525,-3.1899,-3.317,-3.3469,-3.3305,-3.2691,-3.2512,-3.2288,-3.166,-3.1525,-3.1511,-3.1511,-3.1511,-3.1511,-3.1511,-3.1511,-3.1511,-3.1511,-3.1511,-3.1227,-3.0567,-2.9968,-2.9367,-2.8637,-2.8004,-2.763,-2.76,-2.76,-2.76,-2.76,-2.76,-2.76,-2.76,-2.76,-2.76,-2.76,-2.76,-2.76,0.0,0.0,0.0,0.0,0.0,0.0,0.0,0.0,0.0,0.0,0.0,0.0,0.0,0.0,0.0,0.0,0.0,0.0,0.0,0.0,0.0,0.0,0.0,0.0,0.0,0.0,0.0,0.0,0.0,-2.8189,-2.8189,-2.781,-2.76,-2.76,-2.76,-2.76,-2.76,-2.718,-2.718,-2.76,-2.76,-2.76,-2.76,-2.76,-2.76,-2.76,-2.76,-2.8124,-2.8906,-2.8244,-2.8618,-2.9577,-2.9116,-2.9205,-2.9606,-2.9606,-2.9606,-2.9547,-2.9101,-2.937,-2.9849,-2.9415,-2.9564,-2.9834,-2.9415,-2.9699,-3.0133,-2.9968,-3.0507,-3.1197,-3.1436,-3.1511,-3.1511,-3.1511,-3.1511,-3.163,-3.2108,-3.2213,-3.2138,-3.1899,-3.1854,-3.178,-3.154,-3.1511,-3.1511,-3.1511,-3.1511,-3.1511,-3.1511,-3.1511,-3.1511,-3.1511,-3.1107,-3.0612,-2.9968,-2.9325,-2.8667,-2.8004,-2.7735,-2.76,-2.76,-2.76,-2.76,-2.76,-2.76,-2.76,-2.76,-2.76,-2.76,-2.76,-2.76,-2.76,0.0,0.0,0.0,0.0,0.0,0.0,0.0,0.0,0.0,0.0,0.0,0.0,0.0,0.0,0.0,0.0,0.0,0.0,0.0,0.0,0.0,0.0,0.0,0.0,0.0,0.0,0.0,0.0,0.0,0.0,-2.8487,-2.8116,-2.791,-2.791,-2.75,-2.727,-2.727,-2.6587,-2.6482,-2.6941,-2.6941,-2.6941,-2.6941,-2.7165,-2.727,-2.7285,-2.7495,-2.7854,-2.8218,-2.7779,-2.8124,-2.8888,-2.8427,-2.8558,-2.8933,-2.8933,-2.8933,-2.8873,-2.8438,-2.8682,-2.9175,-2.8742,-2.8891,-2.916,-2.8742,-2.9026,-2.949,-2.9295,-2.9879,-3.0569,-3.0793,-3.1002,-3.1212,-3.1451,-3.1511,-3.1511,-3.1511,-3.1511,-3.1511,-3.1511,-3.1511,-3.1511,-3.1511,-3.1511,-3.1511,-3.1511,-3.1511,-3.1511,-3.1511,-3.1301,-3.1152,-3.1152,-3.0597,-2.9939,-2.931,-2.8846,-2.8308,-2.7645,-2.76,-2.76,-2.76,-2.76,-2.76,-2.76,-2.76,-2.76,-2.76,-2.76,-2.76,-2.76,-2.76,-2.76,0.0,0.0,0.0,0.0,0.0,0.0,0.0,0.0,0.0,0.0,0.0,0.0,0.0,0.0,0.0,0.0,0.0,0.0,0.0,0.0,0.0,0.0,0.0,0.0,0.0,0.0,0.0,0.0,-2.9155,-2.848,-2.848,-2.8456,-2.8432,-2.8432,-2.7213,-2.6542,-2.6557,-2.5914,-2.5585,-2.5615,-2.5615,-2.5615,-2.5659,-2.6303,-2.6602,-2.6686,-2.7315,-2.76,-2.76,-2.76,-2.76,-2.76,-2.76,-2.76,-2.76,-2.76,-2.76,-2.76,-2.76,-2.8034,-2.8562,-2.8562,-2.8562,-2.8562,-2.8562,-2.8113,-2.7764,-2.8412,-2.8607,-2.8771,-2.9442,-3.0028,-3.0642,-3.1286,-3.1466,-3.1466,-3.1466,-3.1496,-3.1511,-3.1511,-3.1511,-3.1511,-3.1511,-3.1511,-3.1511,-3.1511,-3.1511,-3.1511,-3.1511,-3.0898,-3.0507,-3.0507,-2.9939,-2.9295,-2.8652,-2.8577,-2.8278,-2.7645,-2.76,-2.76,-2.76,-2.76,-2.76,-2.76,-2.76,-2.76,-2.76,-2.76,-2.76,-2.76,-2.76,-2.76,-2.4331,0.0,0.0,0.0,0.0,0.0,0.0,0.0,0.0,0.0,0.0,0.0,0.0,0.0,0.0,0.0,0.0,0.0,0.0,0.0,0.0,0.0,0.0,0.0,0.0,0.0,0.0,0.0,-2.8735,-2.8351,-2.8351,-2.758,-2.7149,-2.7149,-2.5843,-2.5382,-2.5869,-2.5202,-2.5113,-2.5615,-2.5615,-2.5854,-2.6318,-2.6512,-2.6866,-2.733,-2.7525,-2.76,-2.76,-2.76,-2.76,-2.76,-2.76,-2.76,-2.76,-2.76,-2.76,-2.76,-2.76,-2.772,-2.7884,-2.7884,-2.7884,-2.7884,-2.7884,-2.8094,-2.8353,-2.8547,-2.8951,-2.9382,-2.9562,-2.9726,-2.9906,-3.0073,-3.0462,-3.0791,-3.0791,-3.1152,-3.1511,-3.1511,-3.1511,-3.1511,-3.1511,-3.1511,-3.1511,-3.1511,-3.1511,-3.1511,-3.1511,-3.0898,-3.0507,-3.0507,-2.952,-2.8801,-2.8622,-2.8169,-2.7809,-2.76,-2.76,-2.76,-2.76,-2.76,-2.76,-2.76,-2.76,-2.76,-2.76,-2.76,-2.76,-2.76,-2.76,-2.76,0.0,0.0,0.0,0.0,0.0,0.0,-2.661,-2.6733,0.0,0.0,0.0,0.0,0.0,0.0,0.0,0.0,0.0,0.0,0.0,0.0,0.0,0.0,0.0,0.0,0.0,-2.8501,-2.8636,-2.8976,-2.851,-2.8364,-2.8676,-2.7595,-2.7093,-2.7342,-2.5561,-2.4784,-2.5173,-2.4515,-2.4365,-2.4777,-2.4777,-2.4971,-2.536,-2.5929,-2.6393,-2.6806,-2.7618,-2.7984,-2.7978,-2.7915,-2.7616,-2.718,-2.718,-2.7016,-2.6776,-2.6776,-2.6776,-2.6821,-2.7091,-2.718,-2.7225,-2.751,-2.76,-2.76,-2.76,-2.7884,-2.8173,-2.8173,-2.8468,-2.8843,-2.9101,-2.9175,-2.9235,-2.9547,-2.9864,-3.0118,-3.0118,-3.0642,-3.1167,-3.1451,-3.1511,-3.1511,-3.1511,-3.1511,-3.1511,-3.1511,-3.1511,-3.1511,-3.1511,-3.0895,-3.0509,-3.0509,-2.9557,-2.8836,-2.8576,-2.8212,-2.7885,-2.7625,-2.76,-2.76,-2.76,-2.7835,-2.7984,-2.7984,-2.8222,-2.8352,-2.8352,-2.786,-2.76,-2.76,-2.76,-2.76,0.0,0.0,0.0,0.0,0.0,0.0,-2.6513,-2.6757,-2.6911,0.0,0.0,0.0,0.0,0.0,0.0,0.0,0.0,0.0,0.0,0.0,0.0,0.0,0.0,0.0,-2.7604,-2.7672,-2.7959,-2.8688,-2.8256,-2.8273,-2.894,-2.7947,-2.757,-2.8035,-2.587,-2.4619,-2.4485,-2.4025,-2.3745,-2.3702,-2.3752,-2.3818,-2.3939,-2.5123,-2.5711,-2.587,-2.7604,-2.8365,-2.835,-2.8231,-2.7646,-2.6775,-2.6714,-2.6298,-2.5786,-2.5786,-2.5786,-2.5861,-2.6449,-2.666,-2.6751,-2.7363,-2.7604,-2.765,-2.7589,-2.7604,-2.7665,-2.7605,-2.758,-2.772,-2.8334,-2.8539,-2.8726,-2.9339,-2.9534,-2.9594,-2.9594,-3.0008,-3.0582,-3.1167,-3.1406,-3.1511,-3.1511,-3.1511,-3.1511,-3.1511,-3.1582,-3.1581,-3.1506,-3.0991,-3.0586,-3.0509,-2.9785,-2.9065,-2.8559,-2.8439,-2.8165,-2.7635,-2.76,-2.7625,-2.7685,-2.8213,-2.8535,-2.8606,-2.9134,-2.9406,-2.9406,-2.8328,-2.776,-2.7685,-2.7685,-2.766,0.0,0.0,0.0,0.0,0.0,0.0,-2.6799,-2.6718,-2.6567,0.0,0.0,0.0,0.0,0.0,0.0,0.0,0.0,0.0,0.0,0.0,0.0,0.0,0.0,0.0,-2.6894,-2.6911,-2.6979,-2.7131,-2.7155,-2.7267,-2.7575,-2.6871,-2.632,-2.6002,-2.5397,-2.4673,-2.3789,-2.4513,-2.4672,-2.4246,-2.4677,-2.5171,-2.5699,-2.5962,-2.6388,-2.6902,-2.7294,-2.7448,-2.7448,-2.7434,-2.7624,-2.7914,-2.7296,-2.6991,-2.6902,-2.6902,-2.6902,-2.6918,-2.7023,-2.707,-2.7085,-2.7243,-2.7681,-2.805,-2.7469,-2.7696,-2.8054,-2.7581,-2.7433,-2.7491,-2.774,-2.8156,-2.8541,-2.8664,-2.9125,-2.951,-2.951,-2.9663,-2.9804,-2.9939,-3.0806,-3.1511,-3.1511,-3.1511,-3.1511,-3.1511,-3.2007,-3.2139,-3.1501,-3.135,-3.1086,-3.0482,-2.936,-2.863,-2.8511,-2.8042,-2.7735,-2.7625,-2.76,-2.781,-2.8295,-2.8439,-2.8732,-2.9203,-2.9339,-2.9406,-2.9406,-2.9157,-2.8803,-2.8319,-2.8319,-2.8067,0.0,0.0,0.0,-2.8003,0.0,0.0,0.0,-2.6366,-2.6088,-2.5097,0.0,0.0,0.0,0.0,0.0,0.0,0.0,0.0,0.0,0.0,0.0,0.0,0.0,0.0,-2.6691,-2.6691,-2.6691,-2.6691,-2.7106,-2.7383,-2.7482,-2.6958,-2.6529,-2.6254,-2.5586,-2.495,-2.441,-2.4914,-2.5067,-2.4796,-2.5067,-2.5374,-2.5723,-2.605,-2.6381,-2.6732,-2.7372,-2.7656,-2.7644,-2.7545,-2.7712,-2.7951,-2.7049,-2.6493,-2.6214,-2.6214,-2.6214,-2.6242,-2.6589,-2.6696,-2.6759,-2.7094,-2.7445,-2.7673,-2.7317,-2.7721,-2.8226,-2.7933,-2.8117,-2.8316,-2.8031,-2.8443,-2.8848,-2.8502,-2.8943,-2.9367,-2.9071,-2.954,-2.9919,-2.9617,-3.0595,-3.1351,-3.1058,-3.1274,-3.1485,-3.1459,-3.2125,-3.2322,-3.1491,-3.1718,-3.1677,-3.0917,-3.0249,-2.973,-2.9462,-2.9139,-2.8834,-2.8564,-2.8528,-2.8622,-2.8943,-2.9248,-2.9673,-3.0293,-3.0293,-3.0293,-3.0293,-3.0293,-2.9673,-2.8487,-2.8487,-2.8189,0.0,0.0,0.0,0.0,0.0,-2.7713,0.0,0.0,0.0,-2.473,0.0,0.0,0.0,0.0,0.0,0.0,0.0,0.0,0.0,0.0,0.0,0.0,0.0,0.0,-2.6488,-2.6607,-2.6691,-2.6691,-2.7249,-2.7587,-2.7587,-2.7234,-2.6996,-2.6887,-2.598,-2.5411,-2.5202,-2.5392,-2.5449,-2.5354,-2.5449,-2.5486,-2.5503,-2.6044,-2.6299,-2.6351,-2.7383,-2.7819,-2.7824,-2.7664,-2.7587,-2.75,-2.6627,-2.5982,-2.5486,-2.5486,-2.5486,-2.5567,-2.6109,-2.6299,-2.6396,-2.6921,-2.7098,-2.713,-2.7276,-2.7635,-2.799,-2.8014,-2.8458,-2.8774,-2.8233,-2.8648,-2.9032,-2.8435,-2.8856,-2.9271,-2.8779,-2.9485,-3.0068,-2.9585,-3.0425,-3.1101,-3.0738,-3.1125,-3.1478,-3.141,-3.2051,-3.2283,-3.1478,-3.1965,-3.215,-3.1555,-3.1195,-3.09,-3.0629,-3.0315,-2.9938,-2.9505,-2.9428,-2.9451,-2.9563,-3.0145,-3.0699,-3.119,-3.119,-3.119,-3.119,-3.119,-3.033,-2.8662,-2.8662,-2.8295,0.0,0.0,0.0,0.0,-2.8411,0.0,0.0,0.0,-2.6292,-2.5447,0.0,0.0,0.0,0.0,0.0,0.0,0.0,0.0,0.0,0.0,0.0,0.0,0.0,0.0,0.0,-2.6319,-2.6691,-2.6691,-2.6776,-2.6826,-2.6826,-2.6759,-2.6536,-2.6129,-2.6383,-2.6105,-2.5221,-2.6087,-2.6332,-2.5906,-2.6315,-2.6522,-2.6522,-2.6606,-2.6656,-2.6656,-2.6809,-2.686,-2.686,-2.6826,-2.6826,-2.681,-2.6691,-2.6606,-2.6522,-2.6522,-2.6522,-2.6539,-2.6623,-2.6656,-2.6673,-2.6723,-2.6757,-2.6891,-2.7529,-2.7327,-2.6904,-2.7041,-2.7117,-2.7215,-2.7315,-2.7886,-2.8403,-2.8307,-2.8856,-2.9384,-2.9316,-2.9403,-2.9496,-2.9405,-3.0002,-3.0672,-3.1197,-3.1362,-3.1426,-3.1397,-3.1981,-3.2168,-3.1417,-3.19,-3.2276,-3.2208,-3.1133,-3.0653,-3.1254,-3.0188,-2.9483,-2.9405,-2.9409,-2.9651,-3.0187,-3.0777,-3.1131,-3.119,-3.119,-3.119,-3.119,-3.119,-3.0539,-2.9293,-2.9293,-2.8693,0.0,0.0,0.0,0.0,0.0,0.0,-2.7457,0.0,-2.6502,0.0,0.0,0.0,0.0,0.0,0.0,0.0,-2.3949,0.0,0.0,0.0,0.0,0.0,0.0,0.0,0.0,0.0,0.0,-2.5422,-2.5812,-2.6065,-2.6065,-2.6471,-2.6607,-2.6401,-2.6607,-2.6505,-2.607,-2.6487,-2.6607,-2.6401,-2.6607,-2.6691,-2.6691,-2.6691,-2.6691,-2.6691,-2.6691,-2.6691,-2.6691,-2.6691,-2.6691,-2.6691,-2.6691,-2.6691,-2.6691,-2.6691,-2.6691,-2.6691,-2.6691,-2.6691,-2.6691,-2.6691,-2.6691,-2.6759,-2.7063,-2.7232,-2.735,-2.7405,-2.777,-2.8033,-2.7656,-2.8114,-2.8715,-2.8715,-2.9277,-2.9819,-2.9897,-3.0187,-3.0335,-2.9995,-3.0433,-3.096,-3.1252,-3.1355,-3.1373,-3.1309,-3.1924,-3.2116,-3.1337,-3.186,-3.2141,-3.1718,-3.116,-3.0962,-3.1298,-3.0806,-3.0453,-3.0494,-3.0876,-3.0991,-3.0834,-3.1479,-3.165,-3.1207,-3.119,-3.119,-3.119,-3.119,-3.0777,-2.9913,-2.9563,-2.8927,-2.9005,0.0,0.0,0.0,0.0,0.0,0.0,0.0,0.0,0.0,0.0,0.0,0.0,0.0,0.0,0.0,0.0,0.0,0.0,0.0,0.0,0.0,0.0,0.0,0.0,0.0,-2.4491,-2.4491,-2.5,-2.5389,-2.5592,-2.6116,-2.6488,-2.6691,-2.6691,-2.6691,-2.6691,-2.6691,-2.6691,-2.6691,-2.6691,-2.6691,-2.6691,-2.6691,-2.6691,-2.6691,-2.6691,-2.6691,-2.6691,-2.6691,-2.6691,-2.6691,-2.6691,-2.6691,-2.6691,-2.6691,-2.6691,-2.6691,-2.6691,-2.6691,-2.6691,-2.6691,-2.6691,-2.6691,-2.6691,-2.708,-2.7503,-2.7503,-2.7926,-2.8248,-2.7655,-2.7971,-2.8417,-2.8417,-2.9158,-2.9864,-2.998,-3.0627,-3.1055,-3.0638,-3.0898,-3.119,-3.119,-3.129,-3.1297,-3.1223,-3.17,-3.1874,-3.1266,-3.1667,-3.187,-3.1549,-3.1309,-3.1318,-3.1551,-3.1338,-3.1298,-3.1563,-3.203,-3.2056,-3.1512,-3.2022,-3.1955,-3.1207,-3.119,-3.119,-3.119,-3.119,-3.0975,-3.0539,-2.993,-2.9316,0.0,0.0,0.0,-2.8026,0.0,0.0,0.0,0.0,-2.753,0.0,0.0,0.0,0.0,0.0,0.0,0.0,0.0,0.0,0.0,0.0,0.0,0.0,0.0,0.0,0.0,0.0,-2.4491,-2.4491,-2.4508,-2.4846,-2.5559,-2.5625,-2.5964,-2.6674,-2.6691,-2.6691,-2.6691,-2.6691,-2.6691,-2.6691,-2.6691,-2.6691,-2.6691,-2.6691,-2.6691,-2.6691,-2.6691,-2.6691,-2.6691,-2.6691,-2.6691,-2.6691,-2.6691,-2.6691,-2.6691,-2.6691,-2.6691,-2.6691,-2.6691,-2.6691,-2.6691,-2.6691,-2.6691,-2.6691,-2.6691,-2.6708,-2.6725,-2.6725,-2.6742,-2.6759,-2.6742,-2.6846,-2.697,-2.697,-2.8132,-2.9226,-2.9222,-3.0279,-3.119,-3.1171,-3.119,-3.119,-3.119,-3.1205,-3.1202,-3.119,-3.1205,-3.1221,-3.119,-3.1207,-3.1515,-3.2192,-3.1633,-3.1495,-3.2222,-3.1613,-3.1512,-3.2222,-3.2273,-3.2293,-3.2276,-3.2293,-3.1955,-3.1207,-3.119,-3.119,-3.119,-3.119,-3.119,-3.1151,-3.0539,-2.9951,0.0,0.0,-2.8932,-2.8656,0.0,0.0,0.0,0.0,0.0,0.0,0.0,0.0,0.0,0.0,0.0,0.0,0.0,0.0,0.0,0.0,-2.3785,0.0,0.0,0.0,0.0,0.0,0.0,-2.3038,-2.3509,-2.3866,-2.4137,-2.5084,-2.571,-2.5964,-2.6437,-2.6691,-2.6691,-2.6691,-2.6691,-2.6691,-2.6691,-2.6691,-2.6691,-2.6691,-2.6691,-2.6691,-2.6691,-2.6691,-2.6691,-2.6691,-2.6691,-2.6691,-2.6691,-2.6691,-2.6691,-2.6691,-2.6691,-2.6691,-2.6691,-2.6691,-2.6691,-2.6691,-2.6691,-2.6691,-2.6691,-2.6691,-2.6691,-2.6691,-2.6691,-2.6691,-2.6691,-2.6724,-2.7021,-2.8044,-2.8682,-2.9338,-3.0311,-3.0886,-3.119,-3.119,-3.119,-3.119,-3.119,-3.119,-3.119,-3.119,-3.119,-3.119,-3.119,-3.119,-3.1292,-3.1565,-3.1343,-3.1292,-3.1565,-3.1326,-3.1495,-3.2242,-3.2293,-3.2293,-3.2293,-3.2293,-3.1955,-3.1207,-3.119,-3.119,-3.119,-3.119,-3.119,-3.119,-3.0995,-3.0559,-2.9005,-2.9005,0.0,-2.8638,-2.8565,0.0,-2.7567,0.0,0.0,0.0,0.0,0.0,0.0,0.0,0.0,0.0,0.0,0.0,0.0,-2.4016,0.0,0.0,0.0,0.0,0.0,0.0,-2.2296,-2.2296,-2.275,-2.3122,0.0,-2.4543,-2.5338,-2.5592,-2.6319,-2.6691,-2.6691,-2.6691,-2.6691,-2.6691,-2.6691,-2.6691,-2.6691,-2.6691,-2.6691,-2.6691,-2.6691,-2.6691,-2.6691,-2.6691,-2.6691,-2.6691,-2.6691,-2.6691,-2.6691,-2.6691,-2.6691,-2.6691,-2.6691,-2.6691,-2.6691,-2.6691,-2.6691,-2.6691,-2.6691,-2.6691,-2.6691,-2.6691,-2.6691,-2.6691,-2.6691,-2.6691,-2.6945,-2.7943,-2.8366,-2.8907,-3.0142,-3.0615,-3.0886,-3.114,-3.119,-3.119,-3.119,-3.119,-3.119,-3.119,-3.119,-3.119,-3.119,-3.119,-3.119,-3.119,-3.119,-3.119,-3.119,-3.119,-3.1495,-3.2242,-3.2293,-3.2293,-3.2293,-3.2293,-3.2209,-3.1985,-3.1461,-3.1461,-3.1985,-3.1461,-3.119,-3.119,-3.119,-3.0995]},{"header":{"parameterUnit":"m.s-1","parameterCategory":1,"la1":30.6,"la2":29.2853,"lo1":-89.7004,"lo2":-87.6739,"dy":0.0162,"dx":0.0183,"nx":112,"ny":82,"refTime":"2023-07-27T06:00:00:Z","depth":0,"parameterNumber":3,"parameterNumberName":"V-component_of_WINDS"},"data":[0.0,0.0,0.0,0.0,0.0,0.0,0.0,0.0,0.0,0.0,0.0,0.0,0.0,0.0,0.0,0.0,0.0,0.0,0.0,0.0,0.0,0.0,0.0,0.0,0.0,0.0,0.0,0.0,0.0,0.0,0.0,0.0,0.0,0.0,0.0,0.0,0.0,0.0,0.0,0.0,0.0,0.0,0.0,0.0,0.0,0.0,0.0,0.0,0.0,0.0,0.0,0.0,0.0,0.0,0.0,0.0,0.0,0.0,0.0,0.0,0.0,0.0,0.0,0.0,0.0,0.0,0.0,0.0,0.0,0.0,0.0,0.0,0.0,0.0,0.0,0.0,0.0,0.0,0.0,0.0,0.0,0.0,0.0,0.0,0.0,0.0,0.0,0.0,0.0,0.0,0.0,-1.9708,-1.9708,-1.9708,-1.9708,-1.9708,-1.9708,-1.9708,0.0,0.0,0.0,0.0,0.0,0.0,0.0,0.0,0.0,0.0,0.0,0.0,0.0,0.0,0.0,0.0,0.0,0.0,0.0,0.0,0.0,0.0,0.0,0.0,0.0,0.0,0.0,0.0,0.0,0.0,0.0,0.0,0.0,0.0,0.0,0.0,0.0,0.0,0.0,0.0,0.0,0.0,0.0,0.0,0.0,0.0,0.0,0.0,0.0,0.0,0.0,0.0,0.0,0.0,0.0,0.0,0.0,0.0,0.0,0.0,0.0,0.0,0.0,0.0,0.0,0.0,0.0,0.0,0.0,0.0,0.0,0.0,0.0,0.0,0.0,0.0,0.0,0.0,0.0,0.0,0.0,0.0,0.0,0.0,0.0,0.0,0.0,0.0,0.0,0.0,0.0,0.0,0.0,0.0,0.0,0.0,0.0,0.0,0.0,0.0,0.0,0.0,0.0,0.0,-1.9708,-1.9708,-1.9708,-1.9708,-1.9708,-1.9708,-1.9708,-1.9708,0.0,0.0,0.0,0.0,0.0,0.0,0.0,0.0,0.0,0.0,0.0,0.0,0.0,0.0,0.0,0.0,0.0,0.0,0.0,0.0,0.0,0.0,0.0,0.0,0.0,0.0,0.0,0.0,0.0,0.0,0.0,0.0,0.0,0.0,0.0,0.0,0.0,0.0,0.0,0.0,0.0,0.0,0.0,0.0,0.0,0.0,0.0,0.0,0.0,0.0,0.0,0.0,0.0,0.0,0.0,0.0,0.0,0.0,0.0,0.0,0.0,0.0,0.0,0.0,0.0,0.0,0.0,0.0,0.0,0.0,0.0,0.0,0.0,0.0,0.0,0.0,0.0,0.0,0.0,0.0,0.0,0.0,0.0,0.0,0.0,0.0,0.0,0.0,0.0,0.0,0.0,0.0,0.0,0.0,0.0,0.0,0.0,0.0,0.0,0.0,0.0,0.0,0.0,-1.9708,-1.9708,-1.9708,-1.9708,-1.9708,-1.9708,-1.9708,-1.9708,-1.9708,-1.9708,0.0,0.0,0.0,0.0,0.0,0.0,0.0,0.0,0.0,0.0,0.0,0.0,0.0,0.0,0.0,0.0,0.0,0.0,0.0,0.0,0.0,0.0,0.0,0.0,0.0,0.0,0.0,0.0,0.0,0.0,0.0,0.0,0.0,0.0,0.0,0.0,0.0,0.0,0.0,0.0,0.0,0.0,0.0,0.0,0.0,0.0,0.0,0.0,0.0,0.0,0.0,0.0,0.0,0.0,0.0,0.0,0.0,0.0,0.0,0.0,0.0,0.0,0.0,0.0,0.0,0.0,0.0,0.0,0.0,0.0,0.0,0.0,0.0,0.0,0.0,0.0,0.0,0.0,0.0,0.0,0.0,0.0,0.0,0.0,0.0,0.0,0.0,0.0,0.0,0.0,0.0,0.0,0.0,0.0,0.0,0.0,0.0,0.0,0.0,0.0,0.0,0.0,-1.9708,-1.9708,-1.9708,-1.9708,-1.9708,-1.9708,-1.9708,-1.9708,-1.9708,-1.9708,0.0,0.0,0.0,0.0,0.0,0.0,0.0,0.0,0.0,0.0,0.0,0.0,0.0,0.0,0.0,0.0,0.0,0.0,0.0,0.0,0.0,0.0,0.0,0.0,0.0,0.0,0.0,0.0,0.0,0.0,0.0,0.0,0.0,0.0,0.0,0.0,0.0,0.0,0.0,0.0,0.0,0.0,0.0,0.0,0.0,0.0,0.0,0.0,0.0,0.0,0.0,0.0,0.0,0.0,0.0,0.0,0.0,0.0,0.0,0.0,0.0,0.0,0.0,0.0,0.0,0.0,0.0,0.0,0.0,0.0,0.0,0.0,0.0,0.0,0.0,0.0,0.0,0.0,0.0,0.0,0.0,0.0,0.0,0.0,0.0,0.0,0.0,0.0,0.0,0.0,0.0,0.0,0.0,0.0,0.0,0.0,0.0,0.0,0.0,0.0,0.0,0.0,-1.9708,-1.9708,-1.9708,-1.9708,-1.9708,-1.9708,-1.9708,-1.9708,-1.9708,-1.9708,0.0,0.0,0.0,0.0,0.0,0.0,0.0,0.0,0.0,0.0,0.0,0.0,0.0,0.0,0.0,0.0,0.0,0.0,0.0,0.0,0.0,0.0,0.0,0.0,0.0,0.0,0.0,0.0,0.0,0.0,0.0,0.0,0.0,0.0,0.0,0.0,0.0,0.0,0.0,0.0,0.0,0.0,0.0,0.0,0.0,0.0,0.0,0.0,0.0,0.0,0.0,0.0,0.0,0.0,0.0,0.0,0.0,0.0,0.0,0.0,0.0,0.0,0.0,0.0,0.0,0.0,0.0,0.0,0.0,0.0,0.0,0.0,0.0,0.0,0.0,0.0,0.0,0.0,0.0,0.0,0.0,0.0,0.0,0.0,0.0,0.0,0.0,0.0,0.0,0.0,0.0,0.0,0.0,0.0,0.0,0.0,0.0,0.0,0.0,0.0,0.0,0.0,-1.9708,-1.9708,0.0,-1.9708,-1.9708,-1.9708,-1.9708,-1.9708,-1.9708,0.0,0.0,0.0,0.0,0.0,0.0,0.0,0.0,0.0,0.0,0.0,0.0,0.0,0.0,0.0,0.0,0.0,0.0,0.0,0.0,0.0,0.0,0.0,0.0,0.0,0.0,0.0,0.0,0.0,0.0,0.0,0.0,0.0,0.0,0.0,0.0,0.0,0.0,0.0,0.0,0.0,0.0,0.0,0.0,0.0,0.0,0.0,0.0,0.0,0.0,0.0,0.0,0.0,0.0,0.0,0.0,0.0,0.0,0.0,0.0,0.0,0.0,0.0,0.0,0.0,0.0,0.0,0.0,0.0,0.0,0.0,0.0,0.0,0.0,0.0,0.0,0.0,0.0,0.0,0.0,0.0,0.0,0.0,0.0,0.0,0.0,0.0,0.0,0.0,0.0,0.0,0.0,0.0,0.0,0.0,0.0,0.0,0.0,0.0,0.0,0.0,0.0,-1.9708,-1.9708,-1.9708,0.0,-1.9708,-1.9708,-1.9708,-1.9708,-1.9708,-1.9708,0.0,0.0,0.0,0.0,0.0,0.0,0.0,0.0,0.0,0.0,0.0,0.0,0.0,0.0,0.0,0.0,0.0,0.0,0.0,0.0,0.0,0.0,0.0,0.0,0.0,0.0,0.0,0.0,0.0,0.0,0.0,0.0,0.0,0.0,0.0,0.0,0.0,0.0,0.0,0.0,0.0,0.0,0.0,0.0,0.0,0.0,0.0,0.0,0.0,0.0,0.0,0.0,0.0,0.0,0.0,0.0,0.0,0.0,0.0,0.0,0.0,0.0,0.0,0.0,0.0,0.0,0.0,0.0,0.0,0.0,0.0,0.0,0.0,0.0,0.0,0.0,0.0,0.0,0.0,0.0,0.0,0.0,0.0,0.0,0.0,0.0,0.0,0.0,0.0,0.0,0.0,0.0,0.0,0.0,0.0,0.0,0.0,0.0,0.0,0.0,0.0,0.0,-1.9708,-1.9708,-1.9708,-1.9708,-1.9708,-1.9708,-1.9708,-1.9708,-1.9708,0.0,0.0,0.0,0.0,0.0,0.0,0.0,0.0,0.0,0.0,0.0,0.0,0.0,0.0,0.0,0.0,0.0,0.0,0.0,0.0,0.0,0.0,0.0,0.0,0.0,0.0,0.0,0.0,0.0,0.0,0.0,0.0,0.0,0.0,0.0,0.0,0.0,0.0,0.0,0.0,0.0,0.0,0.0,0.0,0.0,0.0,0.0,0.0,0.0,0.0,0.0,0.0,0.0,0.0,0.0,0.0,0.0,0.0,0.0,0.0,0.0,0.0,0.0,0.0,0.0,0.0,0.0,0.0,0.0,0.0,0.0,0.0,0.0,0.0,0.0,0.0,0.0,0.0,0.0,0.0,0.0,0.0,0.0,0.0,0.0,0.0,0.0,0.0,0.0,0.0,0.0,0.0,0.0,0.0,0.0,0.0,0.0,0.0,0.0,0.0,0.0,0.0,0.0,-1.9708,-1.9708,-1.9708,-1.9708,-1.9708,-1.9708,-1.9708,-1.9708,-1.9708,-1.9708,0.0,0.0,0.0,0.0,0.0,0.0,0.0,0.0,0.0,0.0,0.0,0.0,0.0,0.0,0.0,0.0,0.0,0.0,0.0,0.0,0.0,0.0,0.0,0.0,0.0,0.0,0.0,0.0,0.0,0.0,0.0,0.0,0.0,0.0,0.0,0.0,0.0,0.0,0.0,0.0,0.0,0.0,0.0,0.0,0.0,0.0,0.0,0.0,0.0,0.0,0.0,0.0,0.0,0.0,0.0,0.0,0.0,0.0,0.0,0.0,0.0,0.0,0.0,0.0,0.0,0.0,0.0,0.0,0.0,0.0,0.0,0.0,0.0,0.0,0.0,0.0,0.0,0.0,0.0,0.0,0.0,0.0,0.0,0.0,0.0,0.0,0.0,0.0,0.0,0.0,0.0,0.0,0.0,0.0,0.0,0.0,0.0,0.0,0.0,0.0,0.0,0.0,-2.0064,-1.9872,-1.9813,-2.0064,-1.9872,-1.9708,-1.9708,-1.9708,-1.9708,-1.9708,0.0,0.0,0.0,0.0,0.0,0.0,0.0,0.0,0.0,0.0,0.0,0.0,0.0,0.0,0.0,0.0,0.0,0.0,0.0,0.0,0.0,0.0,0.0,0.0,0.0,0.0,0.0,0.0,0.0,0.0,0.0,0.0,0.0,0.0,0.0,0.0,0.0,0.0,0.0,0.0,0.0,0.0,0.0,0.0,0.0,0.0,0.0,0.0,0.0,0.0,0.0,0.0,0.0,0.0,0.0,0.0,0.0,0.0,0.0,0.0,0.0,0.0,0.0,0.0,0.0,0.0,0.0,0.0,0.0,0.0,0.0,0.0,0.0,0.0,0.0,0.0,0.0,0.0,0.0,0.0,0.0,0.0,0.0,0.0,0.0,0.0,0.0,0.0,0.0,0.0,0.0,0.0,0.0,0.0,0.0,0.0,0.0,0.0,0.0,0.0,0.0,0.0,-2.0628,-2.0228,-2.0094,-2.0643,-2.0154,-1.9768,-1.9708,-1.9708,-1.9708,-1.9708,0.0,0.0,0.0,0.0,0.0,0.0,0.0,0.0,0.0,0.0,0.0,0.0,0.0,0.0,0.0,0.0,0.0,0.0,0.0,0.0,0.0,0.0,0.0,0.0,0.0,0.0,0.0,0.0,0.0,0.0,0.0,0.0,0.0,0.0,0.0,0.0,0.0,0.0,0.0,0.0,0.0,0.0,0.0,0.0,0.0,0.0,0.0,0.0,0.0,0.0,0.0,0.0,0.0,0.0,0.0,0.0,0.0,0.0,0.0,0.0,-2.3839,0.0,0.0,0.0,0.0,0.0,0.0,0.0,0.0,0.0,0.0,0.0,0.0,0.0,0.0,0.0,0.0,0.0,0.0,0.0,0.0,0.0,0.0,0.0,0.0,0.0,0.0,0.0,0.0,0.0,0.0,0.0,0.0,0.0,0.0,0.0,0.0,0.0,0.0,0.0,0.0,0.0,-2.0748,-2.1036,-2.1126,-2.0733,-2.0554,-2.0273,-1.9753,-1.9708,-1.9708,-1.9708,-1.9708,0.0,0.0,0.0,0.0,0.0,0.0,0.0,0.0,0.0,0.0,0.0,0.0,0.0,0.0,0.0,0.0,0.0,0.0,0.0,0.0,0.0,0.0,0.0,0.0,0.0,0.0,0.0,0.0,0.0,0.0,0.0,0.0,0.0,0.0,0.0,0.0,0.0,0.0,0.0,0.0,0.0,0.0,0.0,0.0,0.0,0.0,0.0,0.0,0.0,0.0,0.0,0.0,0.0,0.0,0.0,0.0,0.0,0.0,0.0,0.0,-2.4763,0.0,0.0,0.0,0.0,0.0,0.0,0.0,0.0,0.0,0.0,0.0,0.0,0.0,0.0,0.0,0.0,0.0,0.0,0.0,0.0,0.0,0.0,0.0,0.0,0.0,0.0,0.0,0.0,0.0,0.0,0.0,0.0,0.0,0.0,0.0,0.0,0.0,0.0,0.0,0.0,-2.1665,-2.168,-2.168,-2.1665,-2.1077,-2.0572,-2.0213,-1.9902,-1.9708,-1.9708,-1.9708,0.0,0.0,0.0,0.0,0.0,0.0,0.0,0.0,0.0,0.0,0.0,0.0,0.0,0.0,0.0,0.0,0.0,0.0,0.0,0.0,0.0,0.0,0.0,0.0,0.0,0.0,0.0,0.0,0.0,0.0,0.0,0.0,0.0,0.0,0.0,0.0,0.0,0.0,0.0,0.0,0.0,0.0,0.0,0.0,0.0,0.0,0.0,0.0,0.0,0.0,0.0,0.0,0.0,-2.409,-2.4383,-2.3881,-2.4849,-2.5015,-2.4611,-2.4882,-2.4937,-2.4912,-2.5642,0.0,0.0,0.0,0.0,0.0,0.0,0.0,0.0,0.0,0.0,0.0,0.0,0.0,0.0,0.0,0.0,0.0,0.0,0.0,0.0,0.0,0.0,0.0,0.0,-2.4335,-2.3954,-2.3954,0.0,0.0,0.0,0.0,0.0,0.0,0.0,0.0,0.0,0.0,0.0,-2.2643,-2.2293,-2.2188,-2.2643,-2.171,-2.1006,-2.0882,-2.0258,-1.9869,-1.9869,-1.9768,-1.9708,0.0,0.0,0.0,0.0,0.0,0.0,0.0,0.0,0.0,0.0,0.0,0.0,0.0,0.0,0.0,0.0,0.0,0.0,0.0,0.0,0.0,0.0,0.0,0.0,0.0,0.0,0.0,0.0,0.0,0.0,0.0,0.0,-1.699,-1.8888,0.0,0.0,0.0,0.0,0.0,0.0,0.0,0.0,0.0,0.0,0.0,0.0,0.0,-2.2406,-2.2882,-2.386,-2.4644,-2.5172,-2.5883,-2.6144,-2.6068,-2.5711,-2.5503,-2.5498,-2.6437,0.0,-2.6303,-2.7014,0.0,0.0,0.0,0.0,0.0,0.0,0.0,0.0,0.0,0.0,0.0,0.0,0.0,0.0,0.0,0.0,0.0,0.0,0.0,0.0,0.0,0.0,-2.5375,-2.5442,-2.5405,-2.5345,0.0,-2.4418,-2.3595,-2.3595,-2.3595,0.0,0.0,0.0,0.0,0.0,0.0,0.0,-2.2763,-2.3092,-2.3176,-2.2748,-2.2538,-2.2209,-2.162,-2.0961,-2.0554,-2.0554,-2.0019,-1.9708,-1.9708,-1.9708,0.0,0.0,0.0,0.0,0.0,0.0,0.0,0.0,0.0,0.0,0.0,0.0,0.0,0.0,0.0,0.0,0.0,0.0,0.0,0.0,0.0,0.0,0.0,0.0,0.0,0.0,0.0,0.0,0.0,-1.7464,-1.8419,-1.9862,-2.0327,-2.0362,0.0,0.0,0.0,0.0,0.0,0.0,0.0,0.0,0.0,-2.3778,-2.4343,-2.4757,-2.5008,-2.5498,-2.585,-2.6122,-2.6688,-2.6788,-2.6499,-2.6549,-2.6377,-2.6164,-2.7057,-2.7383,-2.7398,-2.7939,-2.7779,-2.7165,0.0,0.0,0.0,0.0,-2.7165,-2.7165,-2.7165,-2.7165,-2.7121,-2.6811,0.0,0.0,0.0,0.0,0.0,0.0,0.0,0.0,0.0,0.0,-2.5704,-2.6078,-2.5869,-2.5704,-2.6078,-2.5405,-2.4627,0.0,-2.3864,-2.3595,-2.3595,0.0,0.0,0.0,0.0,-2.3505,-2.3236,-2.343,-2.349,-2.3242,-2.2897,-2.2583,-2.2298,-2.165,-2.1261,-2.1261,-2.0632,-2.0258,-2.0258,-2.0258,-2.0408,0.0,0.0,0.0,0.0,0.0,0.0,0.0,0.0,0.0,0.0,0.0,0.0,0.0,0.0,0.0,0.0,0.0,0.0,0.0,0.0,0.0,0.0,0.0,0.0,0.0,0.0,0.0,0.0,-1.8692,-1.9596,-2.0776,-2.1685,-2.1965,0.0,0.0,0.0,0.0,0.0,0.0,-2.4582,-2.5021,-2.5423,-2.5799,-2.6411,-2.67,-2.67,-2.6989,-2.7128,-2.714,-2.7693,-2.7744,-2.7354,-2.7582,-2.7482,-2.715,-2.779,-2.8073,-2.812,-2.8568,-2.8367,-2.7869,-2.7869,-2.775,-2.76,-2.76,-2.7705,-2.7869,-2.7869,-2.7869,-2.7869,-2.7869,-2.775,-2.751,-2.7016,0.0,0.0,0.0,0.0,-2.6108,-2.6108,-2.6108,-2.6243,-2.6746,-2.6467,-2.6243,-2.6761,-2.6318,-2.5674,0.0,-2.4306,-2.3864,-2.3864,0.0,0.0,0.0,0.0,-2.3595,-2.3595,-2.3595,-2.3595,-2.3595,-2.3212,-2.2927,-2.2927,-2.2343,-2.1969,-2.1969,-2.1335,-2.0961,-2.0961,-2.0961,-2.1051,-2.1216,0.0,0.0,0.0,0.0,0.0,0.0,0.0,0.0,0.0,0.0,0.0,0.0,0.0,0.0,0.0,0.0,0.0,0.0,0.0,0.0,0.0,0.0,0.0,0.0,0.0,0.0,0.0,0.0,0.0,-2.1577,-2.1885,0.0,0.0,0.0,0.0,-2.3866,-2.4858,-2.5699,-2.6336,-2.6399,-2.6424,-2.6449,-2.6989,-2.7278,-2.7278,-2.8285,-2.8762,-2.8775,-2.939,-2.9654,-2.9616,-2.9089,-2.8787,-2.8812,-2.9175,-2.8939,-2.8422,-2.8876,-2.8866,-2.8547,-2.8547,-2.8169,-2.76,-2.76,-2.8004,-2.8547,-2.8547,-2.8547,-2.8547,-2.8547,-2.8113,-2.7585,-2.7555,-2.7525,0.0,0.0,-2.7495,-2.7495,-2.7495,-2.7495,-2.751,-2.754,-2.7525,-2.751,-2.754,-2.7031,-2.6348,0.0,-2.5008,-2.4545,-2.4545,0.0,-2.3595,-2.3595,-2.3595,-2.3595,-2.3595,-2.3595,-2.3595,-2.3595,-2.3565,-2.355,-2.355,-2.3002,-2.2643,-2.2643,-2.2009,-2.165,-2.165,-2.165,-2.1934,-2.2583,-2.2628,0.0,0.0,0.0,0.0,0.0,0.0,0.0,0.0,0.0,0.0,0.0,0.0,0.0,0.0,0.0,0.0,0.0,0.0,0.0,0.0,0.0,0.0,0.0,0.0,0.0,0.0,0.0,0.0,-2.3278,-2.4286,0.0,-2.4996,-2.5192,-2.5393,-2.5594,-2.5971,-2.6436,-2.6989,-2.7318,-2.7682,-2.8034,-2.8599,-2.89,-2.89,-2.9289,-2.9478,-2.949,-2.9691,-2.9792,-2.9779,-2.9578,-2.9478,-2.9478,-2.9593,-2.9628,-2.9579,-2.9912,-2.9622,-2.894,-2.9154,-2.9112,-2.8888,-2.8888,-2.9052,-2.922,-2.922,-2.8951,-2.8532,-2.8109,-2.7794,-2.76,-2.76,-2.76,-2.76,-2.76,-2.76,-2.76,-2.76,-2.76,-2.76,-2.76,-2.76,-2.76,-2.76,-2.7405,-2.7061,-2.6363,-2.5337,-2.447,-2.4022,-2.3759,-2.3595,-2.3595,-2.3595,-2.3595,-2.3595,-2.3595,-2.3595,-2.3595,-2.3595,-2.3595,-2.3595,-2.3385,-2.3287,-2.3287,-2.2703,-2.2343,-2.2343,-2.2343,-2.2463,-2.2703,-2.3092,-2.3092,0.0,0.0,0.0,0.0,0.0,0.0,0.0,0.0,0.0,0.0,0.0,0.0,0.0,0.0,0.0,0.0,0.0,0.0,0.0,0.0,0.0,0.0,0.0,0.0,0.0,0.0,-2.4025,-2.4775,-2.63,-2.7253,-2.7065,-2.7052,-2.7128,-2.7281,-2.7329,-2.7532,-2.8097,-2.8473,-2.885,-2.9202,-2.9591,-2.9792,-2.9792,-2.9792,-2.9792,-2.9792,-2.9792,-2.9792,-2.9792,-2.9792,-2.9792,-2.9792,-2.9792,-2.9897,-3.0086,-3.037,-2.9988,-2.925,-2.9706,-2.9786,-2.9606,-2.9606,-2.9741,-2.9894,-2.9894,-2.9475,-2.8816,-2.8169,-2.7779,-2.76,-2.76,-2.76,-2.76,-2.76,-2.76,-2.76,-2.76,-2.76,-2.76,-2.76,-2.76,-2.76,-2.76,-2.76,-2.733,-2.6437,-2.5555,-2.4724,-2.4059,-2.3744,-2.3595,-2.3595,-2.3595,-2.3595,-2.3595,-2.3595,-2.3595,-2.3595,-2.3595,-2.3595,-2.3595,-2.3595,-2.3595,-2.3595,-2.3206,-2.3002,-2.3002,-2.3002,-2.3002,-2.3002,-2.3385,-2.34,-2.3002,0.0,0.0,0.0,0.0,0.0,0.0,0.0,0.0,0.0,0.0,0.0,0.0,0.0,0.0,0.0,0.0,0.0,0.0,0.0,0.0,0.0,0.0,0.0,-2.1861,-2.3894,-2.5671,-2.6093,-2.7829,-2.8762,-2.826,-2.821,-2.8423,-2.89,-2.8938,-2.9189,-2.9792,-2.9817,-2.9829,-2.9842,-2.9829,-2.9817,-2.9817,-2.9804,-2.9792,-2.9792,-2.9792,-2.9792,-2.9792,-2.9792,-2.9792,-2.9792,-2.9779,-2.9767,-2.9793,-3.0021,-2.9819,-2.9462,-3.0187,-3.0123,-2.9612,-2.9582,-2.9998,-3.0507,-3.0507,-3.0118,-2.9532,-2.8846,-2.8173,-2.766,-2.763,-2.763,-2.763,-2.76,-2.76,-2.76,-2.76,-2.76,-2.76,-2.76,-2.76,-2.76,-2.76,-2.76,-2.721,-2.5899,-2.563,-2.5397,-2.4694,-2.4022,-2.3595,-2.3595,-2.3595,0.0,-2.3595,-2.3595,-2.3595,-2.3595,-2.3595,-2.3595,-2.3595,-2.3595,-2.3595,-2.3595,-2.3595,-2.3595,-2.3595,-2.3595,-2.3595,-2.3595,-2.3595,-2.3595,-2.3595,0.0,0.0,0.0,0.0,0.0,0.0,0.0,0.0,0.0,0.0,0.0,0.0,0.0,0.0,0.0,0.0,0.0,0.0,0.0,0.0,0.0,0.0,-2.5775,-2.4897,-2.6615,-2.83,-2.9218,-3.0163,-3.0645,-3.0507,-3.0482,-3.0394,-3.0168,-3.0116,-3.0218,-3.0382,-3.0394,-3.057,-3.0934,-3.0583,-3.0394,-3.0394,-2.9993,-2.9792,-2.9792,-2.9792,-2.9792,-2.9792,-2.9792,-2.9792,-2.9767,-2.9352,-2.9164,-2.9126,-2.9019,-2.8868,-2.882,-2.9679,-3.004,-3.0046,-2.958,-2.9865,-3.0507,-3.0507,-3.0387,-3.0148,-2.9547,-2.9217,-2.8963,-2.8457,-2.8323,-2.8203,-2.7735,-2.76,-2.76,-2.76,-2.76,-2.76,-2.76,-2.76,-2.76,-2.76,-2.76,-2.7345,-2.6482,-2.6318,-2.5794,-2.4163,-2.3729,-2.3595,-2.3595,-2.3595,0.0,-2.3595,-2.3595,-2.3595,-2.3595,-2.3595,-2.3595,-2.3595,-2.3595,-2.3595,-2.3595,-2.3595,-2.3595,-2.3595,-2.3595,-2.3595,-2.3595,-2.3595,-2.3595,0.0,0.0,0.0,0.0,0.0,0.0,0.0,0.0,0.0,0.0,0.0,0.0,0.0,0.0,0.0,0.0,0.0,0.0,0.0,0.0,0.0,0.0,-2.6622,-2.805,-2.822,-2.922,-3.0294,-3.1173,-3.1763,-3.2102,-3.2102,-3.1876,-3.1612,-3.1311,-3.1072,-3.0947,-3.0947,-3.0947,-3.1085,-3.1386,-3.1097,-3.0834,-3.062,-3.0294,-3.0018,-2.9792,-2.9792,-2.9792,-2.9792,-2.9792,-2.9792,-2.9779,-2.944,-2.9289,-2.9265,-2.8833,-2.8544,0.0,0.0,0.0,0.0,0.0,-3.0083,-3.0462,-3.0208,-2.9939,-2.9654,-2.9295,-2.916,-2.9101,-2.8712,-2.8607,-2.8517,-2.8113,-2.7824,-2.76,-2.76,-2.76,-2.76,-2.76,-2.76,-2.76,-2.76,-2.76,-2.7405,-2.6746,-2.6587,0.0,-2.4687,-2.4448,-2.4448,-2.4448,-2.4448,-2.4448,-2.4448,-2.4448,-2.4448,-2.4448,-2.4193,-2.4126,-2.4418,-2.3924,0.0,0.0,0.0,-2.3595,-2.3595,-2.3595,0.0,0.0,0.0,-2.3595,-2.3595,0.0,0.0,0.0,-2.367,-2.3745,0.0,0.0,0.0,0.0,0.0,0.0,0.0,0.0,0.0,0.0,0.0,0.0,0.0,0.0,0.0,0.0,-2.8286,-2.9792,-3.1436,-3.1612,-3.1763,-3.2252,-3.2767,-3.3124,-3.3124,-3.2616,-3.2277,-3.2227,-3.1763,-3.1486,-3.1486,0.0,0.0,0.0,0.0,-3.126,-3.0809,-3.0733,-3.0432,-2.988,-2.988,-2.9854,-2.9792,-2.9792,-2.9792,-2.9792,-2.9729,-2.9691,-2.9654,-2.9076,-2.8536,-2.828,-2.9508,-2.9968,-2.9931,-3.0321,-3.0427,-3.0306,-2.9851,0.0,0.0,-2.8757,-2.8757,-2.8786,-2.8637,-2.8607,-2.8607,-2.8607,-2.8113,-2.763,-2.7779,-2.7705,-2.7615,-2.769,-2.766,-2.76,-2.76,-2.76,-2.742,-2.6836,-2.6692,-2.6512,-2.5929,-2.5704,-2.5615,-2.5615,-2.5615,-2.5615,-2.5615,-2.5615,-2.5615,-2.5615,0.0,0.0,-2.5555,-2.4448,-2.3984,-2.4575,-2.3984,-2.367,-2.3819,-2.3744,-2.3744,-2.3819,-2.3744,-2.3714,-2.3714,-2.364,-2.3595,-2.3616,-2.4095,-2.4307,0.0,0.0,0.0,0.0,0.0,0.0,0.0,0.0,0.0,0.0,0.0,0.0,0.0,0.0,0.0,-2.8883,-3.015,-3.1499,-3.3181,-3.3031,-3.2792,-3.2893,-3.3048,-3.3124,-3.3124,-3.2968,-3.2717,-3.2252,-3.2114,-3.2051,-3.2051,-3.2051,-3.2265,-3.2742,-3.2303,-3.2001,-3.1901,-3.1461,-3.0984,-3.0457,0.0,0.0,-2.9792,-2.9792,-2.9792,-2.9767,-2.9302,-2.9051,-2.9013,-2.8499,-2.8329,-2.8399,-2.8252,-2.7873,-2.7642,-2.9608,-3.0001,-2.961,-3.0134,-3.0612,-3.0763,-2.9729,-2.9729,-2.9939,-2.8906,-2.8607,0.0,-2.8607,-2.8113,-2.7839,-2.8933,-2.8408,-2.7735,-2.8263,-2.8004,-2.76,-2.76,-2.76,-2.7555,-2.7435,-2.7405,-2.736,-2.724,-2.6318,-2.5615,-2.5615,-2.5615,-2.5615,-2.5615,-2.5615,-2.5615,-2.5615,-2.4993,-2.4874,-2.5555,-2.4859,-2.447,-2.459,-2.3984,-2.4088,-2.5181,-2.4694,-2.4649,-2.5211,-2.4679,-2.441,-2.441,-2.3864,-2.3595,-2.3595,-2.3724,-2.3752,0.0,0.0,0.0,0.0,0.0,0.0,0.0,0.0,0.0,0.0,0.0,-2.6299,0.0,0.0,-2.9707,-3.153,-3.2303,-3.3043,-3.4148,-3.4073,-3.3796,-3.352,-3.3244,-3.3124,-3.3124,-3.3124,-3.2955,-3.2667,-3.2641,-3.2641,-3.2641,-3.2641,-3.278,-3.3111,-3.2805,-3.2503,-3.2215,-3.1938,-3.1537,-3.0997,-3.0733,-3.047,-3.0193,-2.9917,-2.9792,-2.9779,-2.949,-2.9365,-2.9315,-2.875,-2.8415,-2.8257,-2.7704,-2.7636,-2.7967,-2.8825,-2.8949,-2.8729,-2.9217,-2.9399,-2.9411,-2.956,-2.9789,-2.9983,-2.9654,-2.9549,-2.9549,-2.9549,-2.9086,-2.8768,-2.9442,-2.9112,-2.8603,-2.8592,-2.8338,-2.8019,-2.7675,-2.76,-2.76,-2.76,-2.76,-2.76,-2.76,-2.7046,-2.6587,-2.6587,-2.6587,-2.6587,-2.6587,-2.6587,-2.6587,-2.6587,-2.6004,-2.5869,-2.6542,-2.5989,-2.5457,-2.5113,-2.4807,-2.4911,-2.5561,-2.5277,-2.5247,-2.56,-2.5262,-2.4933,-2.4605,-2.4261,-2.3939,-2.361,-2.3954,-2.3924,0.0,0.0,0.0,0.0,0.0,0.0,0.0,0.0,-2.6892,-2.8009,-2.8687,-2.9453,-3.0696,-3.1449,-3.2353,-3.3822,-3.406,-3.4286,-3.4951,-3.4864,-3.4562,-3.411,-3.3571,-3.3275,-3.3275,-3.3144,-3.3124,-3.3124,-3.3124,-3.3124,-3.3124,-3.3124,-3.3124,-3.3124,-3.3124,-3.2855,-3.239,-3.2378,-3.2102,-3.1549,-3.1022,-3.0708,-3.0595,-3.0043,-2.9792,-2.9792,-2.9792,-2.9792,-2.9754,-2.9289,-2.8762,-2.8222,-2.777,-2.8114,-2.875,-2.817,-2.7929,-2.7971,-2.816,-2.7968,-2.7797,-2.8786,-2.9186,-2.9391,-2.99,-3.0075,-3.0132,-3.0406,-3.0058,-2.9666,-2.9894,-2.9774,-2.9472,-2.8921,-2.8697,-2.8412,-2.775,-2.76,-2.76,-2.76,-2.76,-2.76,-2.76,-2.76,-2.76,-2.76,-2.76,-2.76,-2.76,-2.76,-2.76,-2.76,-2.7001,-2.6821,-2.736,-2.6926,-2.6422,-2.6019,-2.5749,-2.5719,-2.5974,-2.5869,-2.5854,-2.5989,-2.5869,-2.554,-2.4993,-2.4859,-2.4515,-2.3999,-2.453,-2.444,-2.3916,-2.4167,-2.4838,-2.5883,-2.626,-2.7153,0.0,0.0,-3.0357,-3.1436,-3.2114,-3.2416,-3.2102,-3.2905,-3.3847,-3.4512,-3.4625,-3.4989,-3.6078,-3.5341,-3.47,-3.4638,-3.4148,-3.3809,-3.3809,-3.337,-3.3124,-3.3124,-3.3124,-3.3124,-3.3124,-3.3124,-3.3124,-3.3124,-3.3124,-3.3086,-3.298,-3.298,-3.2692,-3.2114,-3.1574,-3.106,-3.0595,-3.0043,-2.9792,-2.9792,-2.9792,-2.9792,-2.9779,-2.9729,-2.9352,-2.8787,-2.8737,-2.8509,-2.8165,-2.7852,-2.7729,-2.7767,-2.7954,-2.836,-2.8643,-2.7617,-2.7688,-2.8214,-2.8455,-2.854,-2.8812,-3.0132,-3.0058,-2.9849,-3.0987,-3.0447,-2.9592,-2.9517,-2.9026,-2.8412,-2.775,-2.76,-2.76,-2.76,-2.76,-2.76,-2.76,-2.76,-2.76,-2.76,-2.76,-2.76,-2.76,-2.76,-2.76,-2.76,-2.7001,-2.6641,-2.6716,-2.6632,-2.6811,-2.7345,-2.6258,-2.6138,-2.733,-2.6806,-2.6776,-2.736,-2.6806,-2.6437,-2.6363,-2.5779,-2.5442,-2.539,-2.5442,-2.5128,-2.5619,-2.5632,0.0,0.0,-2.8184,-2.9691,-3.1072,-3.1738,-3.2265,-3.3031,-3.3646,-3.406,-3.4091,-3.4801,-3.5403,0.0,-3.568,-3.5843,-3.6342,-3.5692,-3.5044,-3.4718,-3.3947,-3.342,-3.342,-3.3206,-3.3124,-3.3124,-3.3124,-3.3262,-3.3533,-3.3558,-3.3558,-3.3558,-3.3558,-3.3395,-3.3124,-3.3124,-3.2955,-3.2704,-3.1813,-3.1273,-3.1035,-3.0181,-2.9792,-2.9792,-2.9792,-2.9792,-2.9792,-2.9792,-2.9641,-2.9402,-2.9026,-2.875,-2.8485,-2.7742,-2.746,-2.7507,-2.7728,-2.7739,-2.7714,-2.8054,-2.8081,-2.8088,-2.8552,-2.8715,-2.8939,-3.006,-3.0207,-3.0249,-3.1231,-3.1092,-3.0612,-3.0223,-2.9909,-2.9535,-2.8903,-2.8768,-2.8621,-2.8111,-2.7776,-2.738,-2.6866,-2.6874,-2.6956,-2.6956,-2.7331,-2.76,-2.76,-2.76,-2.76,-2.76,-2.7345,-2.718,-2.718,-2.718,-2.73,-2.7585,-2.7076,-2.7031,-2.757,-2.733,-2.7315,-2.7585,-2.733,-2.7001,-2.6587,-2.6318,-2.5989,-2.5615,-2.6004,-2.6033,-2.6323,0.0,0.0,-2.816,-3.0269,-3.2202,-3.2667,-3.3395,-3.4135,-3.4688,-3.4876,-3.5019,-3.542,-3.5742,-3.5956,-3.6107,-3.6132,-3.6132,-3.6132,-3.5667,-3.5019,-3.4349,-3.342,-3.278,-3.2629,-3.2754,-3.2905,-3.3111,-3.3262,-3.3483,-3.3872,-3.4048,-3.406,-3.3909,-3.3897,-3.3633,-3.3124,-3.3124,-3.3124,-3.3111,-3.2089,-3.1537,-3.1348,-3.0281,-2.9792,-2.9792,-2.9792,-2.9792,-2.9792,-2.9792,-2.9792,-2.9754,-2.934,-2.9126,-2.9013,-2.8097,-2.7645,-2.7538,-2.7554,-2.7369,-2.7254,-2.8231,-2.8193,-2.7956,-2.8665,-2.8775,-2.8812,-2.969,-2.995,-3.0072,-3.0644,-3.0807,-3.0705,-3.0274,-2.9998,-2.9707,-2.9328,-2.9055,-2.8707,-2.804,-2.7627,-2.7173,-2.653,-2.675,-2.693,-2.6757,-2.7376,-2.7809,-2.7615,-2.76,-2.76,-2.76,-2.76,-2.76,-2.76,-2.76,-2.76,-2.76,-2.76,-2.76,-2.76,-2.76,-2.76,-2.76,-2.76,-2.736,-2.6881,-2.6881,-2.6641,-2.6153,-2.6632,-2.6881,0.0,0.0,-2.8574,-3.0733,-3.2554,-3.4248,-3.5881,-3.6257,-3.6468,-3.6973,-3.6257,-3.5483,-3.5495,-3.5069,-3.4906,-3.5433,-3.552,-3.552,-3.552,-3.5044,-3.4349,-3.3257,-3.2604,-3.2026,0.0,-3.1926,-3.2466,-3.3074,-3.3571,-3.3884,-3.3897,-3.4412,-3.4449,-3.3922,-3.3897,-3.3633,-3.3124,-3.3124,-3.3124,-3.3111,-3.2466,-3.1901,-3.1348,-3.0281,-2.9792,-2.9792,-2.9792,-2.9792,-2.9792,-2.9792,-2.9792,-2.9792,-2.9779,-2.9767,-2.9691,-2.9101,-2.8499,-2.7996,-2.748,-2.763,-2.7982,-2.749,-2.7349,-2.7452,-2.8255,-2.8145,-2.792,-2.878,-2.9034,-2.9066,-2.9066,-2.9097,-2.9132,-2.9285,-2.8681,-2.8107,-2.8312,-2.7679,-2.7063,-2.7033,-2.7019,-2.7006,-2.6976,-2.7666,-2.8024,-2.7378,-2.8,-2.8323,-2.769,-2.76,-2.76,-2.76,-2.76,-2.76,-2.76,-2.76,-2.76,-2.76,-2.76,-2.76,-2.76,-2.76,-2.76,-2.76,-2.76,-2.7585,-2.757,-2.757,-2.7555,-2.754,-2.7555,-2.757,0.0,0.0,-3.0821,-3.3043,-3.4851,-3.632,-3.7249,-3.7462,-3.7199,-3.6282,-3.5215,-3.4223,-3.3427,-3.3181,-3.3244,-3.3809,-3.4525,-3.4956,-3.4956,-3.5107,-3.4542,-3.2717,-3.2328,0.0,0.0,0.0,0.0,-3.2466,-3.3031,-3.3671,-3.4412,-3.4919,-3.4969,-3.4462,-3.4449,-3.401,-3.3124,-3.3124,-3.3124,-3.3111,-3.2114,-3.1386,-3.0846,-3.0131,-2.9792,-2.9792,-2.9792,-2.9792,-2.9792,-2.9792,-2.9792,-2.9792,-2.9792,-2.9792,-2.9767,-2.9578,-2.9377,-2.9089,-2.816,-2.7946,-2.8072,-2.7896,-2.7582,-2.7352,-2.7631,-2.7573,-2.755,-2.7994,-2.8665,-2.9322,-2.9479,-2.9788,-3.0083,-3.0137,-2.9679,-2.9205,-2.9282,-2.8796,-2.8163,-2.7578,-2.7162,-2.6738,-2.618,-2.6898,-2.7697,-2.8106,-2.8033,-2.7869,-2.763,-2.76,-2.76,-2.76,-2.76,-2.76,-2.76,-2.76,-2.76,-2.76,-2.76,-2.76,-2.76,-2.76,-2.76,-2.76,-2.76,-2.76,-2.76,-2.76,-2.76,-2.76,-2.76,-2.76,0.0,-3.1173,-3.2817,-3.5039,-3.6709,-3.7877,-3.8228,-3.8002,-3.7249,-3.5545,-3.4048,-3.2667,-3.1549,-3.1185,-3.1286,-3.2077,-3.2955,-3.3746,-3.4349,-3.4342,-3.3928,-3.2943,-3.2453,0.0,0.0,0.0,0.0,-3.219,-3.3119,-3.3972,-3.4675,-3.5207,-3.5245,-3.4738,-3.4525,-3.3985,-3.3124,-3.3124,-3.3124,-3.3111,-3.1926,-3.1223,-3.0871,-3.0131,-2.9792,-2.9792,-2.9792,-2.9792,-2.9792,-2.9792,-2.9792,-2.9792,-2.9792,-2.9792,-2.9792,-2.9792,-2.9792,-2.9654,-2.8725,-2.8536,-2.8674,-2.8473,-2.816,-2.7871,-2.7871,-2.7733,-2.7637,-2.7803,-2.839,-2.8976,-2.9127,-2.9438,-2.9787,-3.0098,-2.9678,-2.9274,-2.9598,-2.8992,-2.8239,-2.7663,-2.7128,-2.6587,-2.6034,-2.6521,-2.7313,-2.8237,-2.7661,-2.7231,-2.7564,-2.7382,-2.7306,-2.7575,-2.76,-2.76,-2.76,-2.76,-2.76,-2.76,-2.76,-2.76,-2.76,-2.76,-2.76,-2.76,-2.76,-2.76,-2.76,-2.76,-2.76,-2.76,-2.76,-2.76,-3.0357,-3.2403,-3.4587,-3.6734,-3.8078,-3.8906,-3.8881,-3.7914,-3.6584,-3.4901,-3.2767,-3.0884,0.0,0.0,-2.9176,-3.0344,-3.106,-3.2039,-3.3671,-3.3043,-3.2792,0.0,0.0,0.0,0.0,0.0,0.0,-3.2303,0.0,-3.4655,-3.4718,-3.5207,-3.5245,-3.4738,-3.4186,-3.3633,-3.3124,-3.3124,-3.3124,-3.3111,-3.1964,-3.1411,-3.1348,-3.0319,-2.9817,-2.9792,-2.9792,-2.9792,-2.9792,-2.9792,-2.9792,-2.9792,-2.9792,-2.9792,-2.9792,-2.9792,-2.9792,-2.9716,-2.9126,-2.934,-2.9704,-2.9113,-2.8913,-2.8888,-2.8888,-2.8524,-2.8147,-2.8109,-2.8147,-2.8185,-2.816,-2.8172,-2.8391,-2.9203,-2.8774,-2.839,-2.92,-2.8312,-2.7318,-2.7329,-2.6876,-2.6499,-2.6555,-2.6664,-2.7011,-2.7848,-2.6964,-2.654,-2.745,-2.6959,-2.6774,-2.7524,-2.76,-2.76,-2.76,-2.76,-2.76,-2.76,-2.76,-2.76,-2.76,-2.76,-2.76,-2.76,-2.76,-2.76,-2.76,-2.76,-2.76,-2.76,-2.76,-2.76,-3.2963,-3.4977,-3.6684,-3.809,-3.8705,-3.8755,-3.8329,-3.6734,-3.4763,-3.2667,-3.0482,-2.8473,0.0,0.0,0.0,-2.9176,-3.121,0.0,-3.3784,-3.47,0.0,0.0,0.0,-3.3759,-3.293,-3.3232,0.0,0.0,-3.3872,-3.4462,-3.5245,-3.542,-3.5245,-3.4738,-3.4186,-3.3633,-3.3124,-3.3124,-3.3124,-3.3111,-3.2353,-3.1788,-3.1361,-3.0708,-3.0181,-2.9792,-2.9792,-2.9792,-2.9792,-2.9792,-2.9792,-2.9792,-2.9792,-2.9792,-2.9792,-2.9792,-2.9792,-2.9779,-2.9616,-2.9666,-2.9767,-2.9616,-2.9289,-2.8888,-2.8888,-2.8787,-2.8599,-2.8222,-2.8712,-2.9264,-2.8825,-2.9038,-2.9428,-2.9644,-2.9176,-2.8749,-2.8997,-2.8419,-2.777,-2.7369,-2.6876,-2.6679,-2.7284,-2.7419,-2.7434,-2.7415,-2.6657,-2.6415,-2.7272,-2.6864,-2.6774,-2.7524,-2.76,-2.76,-2.76,-2.76,-2.76,-2.76,-2.76,-2.76,-2.76,-2.76,-2.76,-2.76,-2.76,-2.76,-2.76,-2.76,-2.76,-2.76,-2.76,-2.76,-3.4555,-3.6471,-3.8015,-3.8391,-3.8492,-3.809,-3.6546,-3.4864,-3.2855,-3.0143,-2.821,0.0,0.0,0.0,0.0,0.0,0.0,0.0,-3.3319,-3.4381,-3.4984,0.0,-3.5039,0.0,-3.4223,-3.4449,-3.4625,0.0,-3.4625,-3.4843,-3.547,-3.5495,-3.5245,-3.4738,-3.4186,-3.3633,-3.3124,-3.3124,-3.3124,-3.3111,-3.2491,-3.2051,-3.1725,-3.0959,-3.0444,-3.0143,0.0,-2.9792,-2.9792,-2.9792,-2.9792,-2.9817,-3.0055,-3.0005,-2.9829,-3.0068,-2.9993,-2.9792,-2.9792,-2.9792,-2.9792,-2.9792,-2.9578,-2.9302,-2.9302,-2.9302,-2.9239,-2.8925,-2.9302,-2.9716,-2.939,-2.9553,-2.9792,-2.9792,-2.9541,-2.9302,-2.9302,-2.8863,-2.8298,-2.7758,-2.7241,-2.699,-2.7434,-2.733,-2.7109,-2.6929,-2.6117,-2.5827,-2.6579,-2.6288,-2.6416,-2.7484,-2.76,-2.76,-2.76,-2.76,-2.7458,-2.7137,-2.7408,-2.7458,-2.7111,-2.7126,-2.728,-2.76,-2.728,-2.728,-2.76,-2.76,-2.76,-2.76,-2.76,-2.76,-3.5633,-3.7337,-3.8743,-3.8253,-3.7952,-3.7098,-3.4399,-3.2742,-3.0884,-2.7708,0.0,0.0,-2.4067,0.0,-2.5285,-2.6424,0.0,-3.0068,-3.2747,-3.3206,-3.4035,-3.6065,-3.5893,-3.5608,-3.5608,-3.5608,-3.5608,-3.5608,-3.5608,-3.5608,-3.5608,-3.5533,-3.5207,-3.4625,-3.4073,-3.3558,-3.3081,-3.3124,-3.3124,-3.3111,-3.2491,-3.2215,-3.2177,-3.111,-3.062,-3.0583,-3.003,-2.9829,-2.9905,-2.9905,-2.9942,-3.0055,-3.0532,-3.0419,-3.0068,-3.0545,-3.0369,-2.9905,-2.9905,-2.9854,-2.9792,-2.9792,-2.9792,-2.9792,-2.9792,-2.9792,-2.9792,-2.9792,-2.9792,-2.9792,-2.9792,-2.9792,-2.9792,-2.9792,-2.9792,-2.9792,-2.9792,-2.934,-2.875,-2.831,-2.7708,-2.7281,-2.7281,-2.6864,-2.6461,-2.6386,-2.5473,-2.5058,-2.5721,-2.5484,-2.5783,-2.7163,-2.7306,-2.7357,-2.7433,-2.7357,-2.7086,-2.6537,-2.7008,-2.7034,-2.6377,-2.6336,-2.6654,-2.7306,-2.6774,-2.6774,-2.7306,-2.7408,-2.7408,-2.7316,-2.7408,-2.7458,-3.7186,-3.8216,-3.8894,-3.8743,-3.7701,-3.6081,-3.3746,-3.1286,0.0,0.0,0.0,-2.4067,-2.3384,-2.4469,0.0,-2.6989,0.0,0.0,0.0,0.0,-3.4751,0.0,0.0,0.0,0.0,0.0,0.0,0.0,0.0,-3.6267,-3.6267,-3.5793,-3.5044,-3.4073,-3.3508,-3.3169,-3.3124,-3.3124,-3.3124,-3.3111,-3.2491,-3.2215,-3.2177,-3.111,-3.062,-3.0583,-3.003,0.0,-3.047,-3.047,-3.0721,-3.1122,-3.1223,-3.1198,-3.1122,-3.1223,-3.0922,-3.047,-3.047,-3.0168,-2.9792,-2.9792,-2.9792,-2.9792,-2.9792,-2.9792,-2.9792,-2.9792,-2.9792,-2.9792,-2.9792,-2.9792,-2.9792,-2.9792,-2.9792,-2.9792,-2.9792,-2.934,-2.8863,-2.8762,-2.7971,-2.7281,-2.7281,-2.6864,-2.6336,-2.5824,-2.5222,-2.4919,-2.521,-2.4789,-2.4809,-2.5701,-2.5783,-2.6027,-2.6642,-2.6135,-2.5973,-2.6484,-2.6054,-2.5728,-2.5591,-2.5591,-2.5646,-2.5783,-2.6256,-2.6256,-2.5783,-2.639,-2.639,-2.581,-2.6416,-2.6695,-3.7638,-3.8429,-3.8781,-3.814,-3.6546,-3.4227,-3.0988,0.0,0.0,0.0,0.0,-2.296,-2.3067,0.0,0.0,0.0,0.0,0.0,0.0,0.0,0.0,0.0,0.0,0.0,0.0,0.0,0.0,0.0,0.0,-3.6405,-3.6405,-3.5843,-3.5132,-3.4349,-3.3796,-3.337,-3.3124,-3.3124,-3.3124,-3.3111,-3.2491,-3.2215,-3.219,-3.1386,-3.1022,-3.0997,-3.0733,-3.0771,-3.1022,-3.1022,-3.1173,-3.1411,-3.17,-3.165,-3.1424,-3.1712,-3.1311,-3.062,-3.062,-3.0256,-2.9792,-2.9792,-2.9792,-2.9792,-2.9792,-2.9792,-2.9792,-2.9792,-2.9792,-2.9792,-2.9792,-2.9792,-2.9792,-2.9792,-2.9792,-2.9792,-2.9792,-2.9578,-2.9377,-2.9377,-2.8712,-2.8134,-2.8134,-2.7444,-2.6826,-2.6515,-2.5762,-2.5252,-2.5345,-2.4669,-2.4459,-2.53,-2.5398,-2.5536,-2.5906,-2.5591,-2.5398,-2.537,-2.537,-2.5231,-2.4851,-2.4823,-2.5007,-2.5398,-2.537,-2.537,-2.5398,-2.5755,-2.5755,-2.5425,-2.6149,-2.6283,-3.7387,-3.8165,-3.8442,-3.7437,-3.5441,-3.2696,-2.8748,-2.6395,0.0,0.0,-2.1908,-2.2106,-2.2732,0.0,0.0,0.0,0.0,0.0,0.0,0.0,0.0,0.0,0.0,0.0,0.0,0.0,0.0,0.0,0.0,0.0,-3.6405,-3.5843,-3.5245,-3.4738,-3.4186,-3.3633,-3.3124,-3.3124,-3.3124,-3.3111,-3.2491,-3.2215,-3.219,-3.1637,-3.1386,-3.1386,-3.1386,-3.1461,-3.1562,-3.1562,-3.1637,-3.18,-3.2227,-3.2139,-3.18,-3.224,-3.1788,-3.0947,-3.0821,-3.0419,-2.9942,-2.9829,-2.9792,-2.9792,-2.9792,-2.9792,-2.9792,-2.9792,-2.9792,-2.9792,-2.9792,-2.9792,-2.9792,-2.9792,-2.9792,-2.9792,-2.9792,-2.9792,-2.9792,-2.9792,-2.9327,-2.8888,-2.8888,-2.8109,-2.7419,-2.7341,-2.6427,-2.5737,-2.5611,-2.4757,-2.4423,-2.5037,-2.4975,-2.4979,-2.5147,-2.5007,-2.4724,-2.4321,-2.4667,-2.4639,-2.406,-2.4031,-2.4308,-2.4894,-2.4509,-2.4509,-2.4922,-2.5091,-2.5063,-2.4922,-2.5673,-2.5728,-3.6345,-3.7287,-3.7939,-3.7337,-3.5152,-3.2403,-2.945,0.0,0.0,0.0,-2.1908,-2.1908,-2.2013,-2.3096,0.0,0.0,0.0,0.0,0.0,0.0,0.0,0.0,0.0,0.0,0.0,0.0,0.0,0.0,0.0,0.0,-3.6405,-3.5843,-3.5245,-3.4738,-3.4186,-3.3633,-3.3124,-3.3124,-3.3124,-3.3111,-3.2491,-3.2215,-3.219,-3.1637,-3.1386,-3.1386,-3.1386,-3.1675,0.0,-3.2139,-3.2453,-3.2973,-3.3023,-3.3011,-3.2973,-3.298,-3.2604,-3.1989,-3.1499,-3.0984,-3.0457,-2.9955,-2.9792,-2.9792,-2.9792,-2.9792,-2.9792,-2.9792,-2.9792,-2.9792,-2.9792,-2.9792,-2.9792,-2.9792,-2.9792,-2.9792,-2.9792,-2.9792,-2.9792,-2.9792,-2.9327,-2.8888,-2.8888,-2.8423,-2.7858,-2.7356,-2.6801,-2.6223,-2.5661,-2.5096,-2.4563,-2.4184,-2.3652,-2.3619,-2.435,-2.3738,-2.359,-2.4263,-2.3679,-2.3275,-2.3215,-2.3215,-2.3245,-2.3305,-2.3972,-2.3972,-2.3305,-2.4031,-2.4031,-2.3335,-2.4134,-2.4452,-3.5203,-3.6433,-3.681,-3.5918,-3.3872,-3.1201,-2.7926,0.0,0.0,-2.217,-2.1908,-2.2032,-2.2537,-2.307,-2.381,0.0,0.0,0.0,0.0,0.0,0.0,0.0,0.0,0.0,0.0,0.0,0.0,0.0,0.0,0.0,-3.6405,-3.5843,-3.5245,-3.4738,-3.4186,-3.3633,-3.3124,-3.3124,-3.3124,-3.3111,-3.2491,-3.2215,-3.2202,-3.1989,-3.1888,-3.1901,-3.2252,-3.2528,0.0,-3.2729,-3.2867,-3.3124,-3.3124,-3.3124,-3.3124,-3.3124,-3.2503,-3.1687,-3.1461,-3.0834,-3.008,-2.9867,-2.9792,-2.9792,-2.9792,-2.9792,-2.9792,-2.9792,-2.9792,-2.9792,-2.9792,-2.9792,-2.9792,-2.9792,-2.9792,-2.9792,-2.9792,-2.9792,-2.9792,-2.9792,-2.9603,-2.9453,-2.9453,-2.8976,-2.8411,-2.7858,-2.7341,-2.6788,-2.6223,-2.5636,-2.5209,-2.4983,-2.418,-2.3624,-2.3569,-2.3275,-2.3245,-2.3573,-2.3275,-2.3108,-2.3108,-2.3108,-2.3108,-2.3108,-2.3424,-2.3424,-2.3108,-2.3424,-2.3424,-2.3138,-2.3943,-2.4031,-3.2945,-3.4532,-3.5248,-3.4424,-3.2247,-2.952,0.0,0.0,-2.2311,-2.1646,-2.1302,-2.1447,-2.2537,-2.2763,-2.3133,0.0,0.0,0.0,0.0,0.0,0.0,0.0,0.0,0.0,0.0,0.0,0.0,0.0,0.0,0.0,-3.6119,-3.5604,-3.5082,-3.4726,-3.4186,-3.3633,-3.3124,-3.3124,-3.3124,-3.3111,-3.2667,-3.2378,-3.2227,-3.239,-3.2378,-3.224,-3.283,-3.3124,0.0,-3.3124,-3.3124,-3.3124,-3.3124,-3.2968,-3.2817,-3.2817,-3.2215,-3.1361,-3.1223,-3.067,-3.0005,-2.9842,-2.9792,-2.9792,-2.9792,-2.9792,-2.9792,-2.9792,-2.9792,-2.9792,-2.9792,-2.9792,-2.9792,-2.9792,-2.9792,-2.9792,-2.9792,-2.9792,-2.9792,-2.9792,-2.9792,-2.9792,-2.9792,-2.9453,-2.9001,-2.8436,-2.8021,-2.7507,-2.6839,-2.6386,-2.5963,-2.5636,-2.4921,-2.418,-2.3421,-2.3195,-2.3108,-2.3108,-2.3108,-2.3108,-2.3108,-2.3108,-2.3108,-2.3108,-2.3108,-2.3108,-2.3108,-2.3108,-2.3108,-2.3108,-2.3679,-2.3649,-2.9229,-3.1201,-3.3106,-3.3136,-3.0351,-2.7342,0.0,0.0,-2.0227,-2.0562,-1.9922,-1.9846,-2.1585,-2.1908,-2.238,-2.3779,-2.4469,0.0,0.0,0.0,0.0,0.0,0.0,0.0,0.0,0.0,0.0,0.0,0.0,0.0,-3.5533,-3.4981,-3.4726,-3.468,-3.4186,-3.3633,-3.3124,-3.3124,-3.3124,-3.3124,-3.3111,-3.2767,-3.2227,-3.2805,-3.2754,-3.224,-3.283,-3.3124,0.0,-3.3124,-3.3124,-3.3124,-3.3124,-3.2729,-3.2227,-3.2227,-3.1863,-3.1311,-3.0809,-3.062,-3.052,-2.9967,-2.9792,-2.9792,-2.9792,-2.9792,-2.9792,-2.9792,-2.9792,-2.9792,-2.9792,-2.9792,-2.9792,-2.9792,-2.9792,-2.9792,-2.9792,-2.9792,-2.9792,-2.9792,-2.9792,-2.9792,-2.9792,-2.9779,-2.9591,-2.8963,-2.8875,-2.8511,-2.7419,-2.7304,-2.6841,-2.5711,-2.5586,-2.5146,-2.4079,-2.3434,-2.3108,-2.3108,-2.3108,-2.3108,-2.3108,-2.3108,-2.3108,-2.3108,-2.3108,-2.3108,-2.3108,-2.3108,-2.3108,-2.3108,-2.3108,-2.3108,-2.6105,-2.7587,-2.8407,-2.8028,-2.721,-2.6116,-2.4632,-2.3042,-2.1818,-2.1533,-2.127,-2.1239,-2.1815,-2.2353,-2.3133,-2.4342,-2.4675,0.0,0.0,0.0,0.0,0.0,0.0,0.0,0.0,0.0,0.0,0.0,0.0,0.0,-3.5508,-3.4618,-3.4161,-3.4161,-3.3621,-3.3257,-3.3124,-3.3124,-3.3124,-3.3124,-3.3124,-3.298,-3.2805,-3.2993,-3.3023,-3.2817,-3.3006,-3.3124,-3.3124,-3.3124,-3.3124,-3.3074,-3.2641,-3.2378,-3.2164,-3.1788,-3.1311,-3.0834,-3.067,-3.0369,-3.003,-2.9854,-2.9792,-2.9792,-2.9792,-2.9792,-2.9792,-2.9792,-2.9792,-2.9792,-2.9792,-2.9792,-2.9792,-2.9792,-2.9792,-2.9792,-2.9792,-2.9792,-2.9792,-2.9792,-2.9792,-2.9792,-2.9792,-2.9792,-2.9591,-2.8976,-2.8888,-2.8499,-2.7419,-2.7281,-2.704,-2.6298,-2.5871,-2.5159,-2.4092,-2.3828,-2.3521,-2.3133,-2.3108,-2.3108,-2.3108,-2.3108,-2.3108,-2.3108,-2.3108,-2.3108,-2.3108,-2.3108,-2.3108,-2.3108,-2.3108,-2.3108,0.0,-2.4495,-2.5364,-2.4994,-2.4473,0.0,0.0,-2.1932,-2.1426,-2.1391,-2.1396,-2.1585,-2.2249,-2.2506,-2.2985,-2.3973,-2.4512,0.0,0.0,0.0,0.0,0.0,0.0,0.0,0.0,0.0,0.0,0.0,0.0,0.0,-3.4893,-3.4274,-3.3809,-3.3596,-3.3257,-3.3124,-3.3124,-3.3124,-3.3124,-3.3124,-3.3124,-3.3124,-3.3124,-3.3124,-3.3124,-3.3124,-3.3124,-3.3124,0.0,-3.3124,-3.2955,-3.2717,-3.2353,-3.1964,-3.1574,-3.1223,-3.0758,-3.0306,-3.0306,-3.008,-2.9792,-2.9792,-2.9792,-2.9792,-2.9792,-2.9792,-2.9792,-2.9792,-2.9792,-2.9792,-2.9792,-2.9792,-2.9792,-2.9792,-2.9792,-2.9792,-2.9792,-2.9792,-2.9792,-2.9792,-2.9792,-2.9792,-2.9792,-2.9792,-2.9666,-2.9315,-2.9252,-2.885,-2.7733,-2.7595,-2.7341,-2.6575,-2.6172,-2.5594,-2.4682,-2.423,-2.3841,-2.3446,-2.3233,-2.3108,-2.3108,-2.3108,-2.3108,-2.3108,-2.3108,-2.3108,-2.3108,-2.3108,-2.3108,-2.3108,-2.3108,-2.3108,0.0,0.0,0.0,0.0,0.0,0.0,0.0,-2.002,0.0,-2.043,-2.059,-2.108,-2.2678,-2.2439,-2.2266,-2.3045,-2.4092,0.0,0.0,0.0,0.0,0.0,0.0,0.0,0.0,0.0,0.0,0.0,0.0,0.0,-3.3922,-3.3859,-3.3583,-3.3031,-3.3061,-3.3061,-3.3061,-3.3061,-3.3061,-3.3061,-3.3061,-3.3061,-3.3018,-3.3023,-3.2998,0.0,-3.3006,-3.2993,-3.2998,-3.3006,-3.2667,-3.2152,-3.2114,-3.1486,-3.0608,-3.057,-3.0231,-2.9792,-2.9792,-2.9792,-2.9792,-2.9792,-2.9792,-2.9792,-2.9792,-2.9792,-2.9792,-2.9792,-2.9792,-2.9792,-2.9792,-2.9792,-2.9792,-2.9792,-2.9792,-2.9792,-2.9792,-2.9792,-2.9792,-2.9792,-2.9792,-2.9792,-2.9792,-2.9792,-2.9792,-2.9792,-2.9792,-2.939,-2.8247,-2.8109,-2.7682,-2.6612,-2.6499,-2.6273,-2.5699,-2.4707,-2.4104,-2.4054,-2.3484,-2.3158,-2.3158,-2.3133,-2.3108,-2.3108,-2.3108,-2.3108,-2.3108,-2.3108,-2.3108,-2.3108,-2.3108,-2.3108,-1.7402,0.0,-1.9375,-1.9375,0.0,0.0,0.0,0.0,-1.9562,0.0,0.0,0.0,0.0,-2.2284,-2.3077,0.0,0.0,0.0,0.0,0.0,0.0,0.0,0.0,0.0,0.0,0.0,0.0,0.0,0.0,-3.4035,-3.3909,-3.3495,-3.3006,-3.2441,-3.2416,-3.2416,-3.2416,-3.2416,-3.2416,-3.2416,-3.2416,-3.2416,-3.2403,-3.1976,-3.1788,-3.1813,-3.2227,-3.2177,-3.1813,-3.224,-3.2089,-3.1549,-3.1148,-3.0834,-3.057,-3.0143,-2.9905,-2.9792,-2.9792,-2.9792,-2.9792,-2.9792,-2.9792,-2.9792,-2.9792,-2.9792,-2.9792,-2.9792,-2.9792,-2.9792,-2.9792,-2.9792,-2.9792,-2.9792,-2.9792,-2.9792,-2.9792,-2.9792,-2.9792,-2.9792,-2.9792,-2.9792,-2.9792,-2.9792,-2.9792,-2.9792,-2.9792,-2.939,-2.8247,-2.8109,-2.7682,-2.6612,-2.6499,-2.6436,-2.6298,-2.5624,-2.5059,-2.4657,-2.4104,-2.3791,-2.3791,-2.3346,-2.3108,-2.3108,-2.3108,-2.3108,-2.3108,-2.3108,-2.3108,-2.3108,-2.3108,-2.3108,-1.6973,-1.751,-1.8008,-1.8008,-1.8361,-1.8687,0.0,0.0,0.0,0.0,0.0,0.0,0.0,0.0,0.0,0.0,0.0,0.0,0.0,0.0,0.0,0.0,0.0,0.0,0.0,0.0,0.0,0.0,0.0,-3.3407,-3.3144,-3.2842,-3.2416,-3.1851,-3.1599,-3.1587,-3.1838,-3.1838,-3.1838,-3.1838,-3.1838,-3.1838,-3.1825,-3.1524,-3.1524,-3.1763,-3.1813,-3.1813,-3.1763,-3.1813,-3.1524,-3.0997,-3.0721,-3.0457,-3.0206,-2.9905,-2.9792,-2.9792,-2.9792,-2.9792,-2.9792,-2.9792,-2.9792,-2.9792,-2.9792,-2.9792,-2.9792,-2.9792,-2.9792,-2.9792,-2.9792,-2.9792,-2.9792,-2.9792,-2.9792,-2.9792,-2.9792,-2.9792,-2.9792,-2.9792,-2.9792,-2.9792,-2.9792,-2.9792,-2.9792,-2.9792,-2.9792,-2.939,-2.8247,-2.8109,-2.7682,-2.6612,-2.6499,-2.6499,-2.6499,-2.621,-2.5762,-2.5209,-2.4669,-2.4268,-2.4004,-2.3703,-2.3371,-2.3108,-2.3108,-2.3108,-2.3108,-2.3108,-2.3108,-2.3108,-2.3108,-2.3108,-1.7168,-1.7588,-1.793,-1.7988,-1.8008,-1.8008,0.0,0.0,0.0,0.0,0.0,0.0,0.0,0.0,0.0,0.0,0.0,0.0,0.0,0.0,0.0,0.0,0.0,0.0,0.0,0.0,0.0,0.0,0.0,-3.2604,-3.2114,-3.2089,-3.1838,-3.1286,-3.0846,-3.0783,-3.1148,-3.1235,-3.1273,-3.1273,-3.1273,-3.1273,-3.1273,-3.1185,-3.1399,-3.1825,0.0,0.0,-3.1813,-3.1424,-3.0959,-3.0495,-3.0495,-3.0206,-2.9792,-2.9792,-2.9792,-2.9792,-2.9792,-2.9792,-2.9792,-2.9792,-2.9792,-2.9792,-2.9792,-2.9792,-2.9792,-2.9792,-2.9792,-2.9792,-2.9792,-2.9792,-2.9792,-2.9792,-2.9792,-2.9792,-2.9792,-2.9792,-2.9792,-2.9792,-2.9792,-2.9792,-2.9792,-2.9792,-2.9792,-2.9792,-2.9792,-2.939,-2.8247,-2.8109,-2.7682,-2.6612,-2.6499,-2.6499,-2.6499,-2.6499,-2.6285,-2.5762,-2.5234,-2.4625,-2.4029,-2.4004,-2.3728,-2.3108,-2.3108,-2.3108,-2.3108,-2.3108,-2.3108,-2.3108,-2.3108,-2.3108,-1.6709,-1.7148,-1.7568,-1.792,-1.8008,-1.8008,-1.8008,0.0,0.0,0.0,0.0,0.0,0.0,0.0,0.0,0.0,0.0,0.0,0.0,0.0,0.0,0.0,0.0,0.0,0.0,0.0,0.0,0.0,0.0,-3.1612,-3.1524,-3.1512,-3.1273,-3.0758,-3.0658,-3.0432,-3.0043,-3.0495,-3.0733,-3.0733,-3.0733,-3.0733,-3.0721,-3.0244,-3.008,-3.0181,0.0,-3.052,-3.0193,-3.0583,-3.0419,-2.9917,-2.9917,-2.9867,-2.9792,-2.9792,-2.9792,-2.9792,-2.9792,-2.9792,-2.9792,-2.9792,-2.9792,-2.9792,-2.9792,-2.9792,-2.9792,-2.9792,-2.9792,-2.9792,-2.9792,-2.9792,-2.9792,-2.9792,-2.9792,-2.9792,-2.9792,-2.9792,-2.9792,-2.9792,-2.9792,-2.9792,-2.9792,-2.9792,-2.9792,-2.9792,-2.9792,-2.939,-2.8247,-2.8109,-2.7682,-2.6612,-2.6499,-2.6499,-2.6499,-2.6499,-2.6461,-2.6361,-2.5799,-2.5034,-2.4042,-2.4004,-2.3728,-2.3108,-2.3108,-2.3108,-2.3108,-2.3108,-2.3108,-2.3108,-2.3108,-2.3108,-1.6377,-1.7031,-1.7715,-1.7676,-1.7842,-1.8008,-1.8008,0.0,0.0,0.0,0.0,0.0,0.0,0.0,0.0,0.0,0.0,0.0,0.0,0.0,0.0,0.0,0.0,0.0,0.0,0.0,0.0,0.0,0.0,0.0,-3.0984,-3.0972,-3.0721,-3.0181,-3.0168,-3.0043,-2.9792,-3.0043,-3.0168,-3.0168,-3.0168,-3.0168,-3.0168,-2.9905,-2.9955,-3.0231,0.0,-3.0193,-3.0231,-3.0193,-3.0018,-2.9792,-2.9792,-2.9792,-2.9792,-2.9792,-2.9792,-2.9792,-2.9792,-2.9792,-2.9792,-2.9792,-2.9792,-2.9792,-2.9792,-2.9792,-2.9792,-2.9792,-2.9792,-2.9792,-2.9792,-2.9792,-2.9792,-2.9792,-2.9792,-2.9792,-2.9792,-2.9792,-2.9792,-2.9792,-2.9792,-2.9792,-2.9792,-2.9792,-2.9792,-2.9792,-2.9792,-2.949,-2.8624,-2.8285,-2.7795,-2.7027,-2.6675,-2.6499,-2.6499,-2.6499,-2.6499,-2.6499,-2.5649,-2.4958,-2.4456,-2.3853,-2.3371,-2.3108,-2.3108,-2.3108,-2.3108,-2.3108,-2.3108,-2.3108,-2.3108,-2.3108,-1.6153,-1.6819,-1.7529,-1.7445,0.0,-1.8037,-1.8135,0.0,0.0,0.0,0.0,0.0,0.0,0.0,0.0,0.0,0.0,0.0,0.0,0.0,0.0,0.0,0.0,0.0,0.0,0.0,0.0,0.0,0.0,0.0,-3.0444,-3.0419,-3.0231,-2.9804,-2.9792,-2.9792,-2.9792,-2.9792,-2.9792,-2.9792,-2.9792,-2.9792,-2.9792,-2.9792,-3.0018,-3.0407,-2.998,-3.003,-3.0394,-2.9967,-2.9792,-2.9792,-2.9792,-2.9792,-2.9792,-2.9792,-2.9792,-2.9792,-2.9792,-2.9792,-2.9792,-2.9792,-2.9792,-2.9792,-2.9792,-2.9792,-2.9792,-2.9792,-2.9792,-2.9792,-2.9792,-2.9792,-2.9792,-2.9792,-2.9792,-2.9792,-2.9792,-2.9792,-2.9792,-2.9792,-2.9792,-2.9792,-2.9792,-2.9792,-2.9792,-2.9792,-2.9679,-2.9377,-2.8775,-2.8247,-2.7708,-2.719,-2.6751,-2.6499,-2.6499,-2.6373,-2.6298,-2.6298,-2.5473,-2.4863,-2.4612,-2.376,-2.3246,-2.3108,-2.3108,-2.3108,-2.3108,-2.3108,-2.3108,-2.3108,-2.3108,-2.3108,-1.5987,-1.6163,-1.6427,-1.722,0.0,0.0,-1.8461,-1.8559,0.0,0.0,0.0,0.0,0.0,0.0,0.0,0.0,0.0,0.0,0.0,0.0,0.0,0.0,0.0,0.0,0.0,0.0,0.0,0.0,0.0,0.0,-2.9854,-2.9854,-2.9829,-2.9792,-2.9792,-2.9792,-2.9792,-2.9792,-2.9792,-2.9792,-2.9792,-2.9792,-2.9792,-2.9792,-2.9817,-2.9854,-2.9817,-2.9817,-2.9842,-2.9817,-2.9792,-2.9792,-2.9792,-2.9792,-2.9792,-2.9792,-2.9792,-2.9792,-2.9792,-2.9792,-2.9792,-2.9792,-2.9792,-2.9792,-2.9792,-2.9792,-2.9792,-2.9792,-2.9792,-2.9792,-2.9792,-2.9792,-2.9792,-2.9792,-2.9792,-2.9792,-2.9792,-2.9792,-2.9792,-2.9792,-2.9792,-2.9792,-2.9792,-2.9792,-2.9792,-2.9792,-2.934,-2.875,-2.8235,-2.7682,-2.7165,-2.6612,-2.6512,-2.6499,-2.6499,-2.5996,-2.5649,-2.5649,-2.5586,-2.5096,-2.4104,-2.3979,-2.369,-2.3108,-2.3108,-2.3108,-2.3108,-2.3108,-2.3108,-2.3108,-2.3108,-2.3108,-1.5684,-1.626,-1.6936,-1.6963,0.0,0.0,0.0,0.0,0.0,0.0,0.0,0.0,0.0,0.0,0.0,0.0,0.0,0.0,0.0,0.0,0.0,0.0,0.0,0.0,0.0,0.0,0.0,0.0,0.0,0.0,-2.9792,-2.9792,-2.9792,-2.9792,-2.9792,-2.9792,-2.9792,-2.9792,-2.9792,-2.9792,-2.9792,-2.9792,-2.9792,-2.9792,-2.9792,-2.9792,-2.9792,-2.9792,-2.9792,-2.9792,-2.9792,-2.9792,-2.9792,-2.9792,-2.9792,-2.9792,-2.9792,-2.9792,-2.9792,-2.9792,-2.9792,-2.9792,-2.9792,-2.9792,-2.9792,-2.9792,-2.9792,-2.9792,-2.9792,-2.9792,-2.9792,-2.9792,-2.9792,-2.9792,-2.9792,-2.9792,-2.9792,-2.9792,-2.9792,-2.9792,-2.9792,-2.9792,-2.9792,-2.9792,-2.9792,-2.9792,-2.9302,-2.8813,-2.8599,-2.7833,-2.7241,-2.7027,-2.67,-2.6499,-2.6499,-2.5971,-2.546,-2.5134,-2.4795,-2.4418,-2.4017,-2.3653,-2.3333,-2.3108,-2.3108,-2.3108,-2.3108,-2.3108,-2.3108,-2.3108,-2.3108,-2.3108,-1.5498,-1.6074,-1.6758,0.0,0.0,0.0,0.0,0.0,0.0,0.0,0.0,0.0,0.0,0.0,0.0,0.0,0.0,0.0,0.0,0.0,0.0,0.0,0.0,0.0,0.0,0.0,0.0,0.0,0.0,0.0,0.0,-2.9792,-2.9792,-2.9792,-2.9616,-2.9616,-2.9792,-2.9616,-2.9616,-2.9792,-2.9792,-2.9792,-2.9792,-2.9792,-2.9792,-2.9792,-2.9792,-2.9792,-2.9792,-2.9792,-2.9792,-2.9792,-2.9792,-2.9792,-2.9792,-2.9792,-2.9792,-2.9792,-2.9792,-2.9792,-2.9792,-2.9792,-2.9792,-2.9792,-2.9792,-2.9792,-2.9792,-2.9792,-2.9792,-2.9792,-2.9792,-2.9792,-2.9792,-2.9792,-2.9792,-2.9792,-2.9792,-2.9792,-2.9792,-2.9792,-2.9792,-2.9792,-2.9792,-2.9792,-2.9729,-2.9553,-2.9038,-2.8612,-2.8436,-2.7595,-2.7052,-2.7052,-2.6713,-2.6499,-2.6499,-2.5774,-2.5197,-2.4813,-2.413,-2.3728,-2.3728,-2.3308,-2.3108,-2.3108,-2.3108,-2.3108,-2.3108,-2.3108,-2.3108,-2.3108,-2.3108,-2.3108,-1.541,-1.542,0.0,0.0,0.0,0.0,0.0,0.0,0.0,0.0,0.0,0.0,0.0,0.0,0.0,0.0,0.0,0.0,0.0,0.0,0.0,0.0,0.0,0.0,0.0,0.0,0.0,0.0,0.0,0.0,0.0,-2.9792,-2.9792,-2.9792,-2.9189,-2.9202,-2.9779,-2.9176,-2.9202,-2.9779,-2.9779,-2.9779,-2.9792,-2.9792,-2.9792,-2.9792,-2.9792,-2.9792,-2.9792,-2.9792,-2.9792,-2.9792,-2.9792,-2.9792,-2.9792,-2.9792,-2.9792,-2.9792,-2.9792,-2.9792,-2.9792,-2.9792,-2.9792,-2.9792,-2.9792,-2.9792,-2.9792,-2.9792,-2.9792,-2.9792,-2.9792,-2.9792,-2.9792,-2.9792,-2.9792,-2.9792,-2.9792,-2.9792,-2.9792,-2.9792,-2.9792,-2.9792,-2.9792,-2.9792,-2.9591,-2.8988,-2.8461,-2.7908,-2.7344,-2.6839,-2.6499,-2.6499,-2.6499,-2.6499,-2.6499,-2.5448,-2.4788,-2.4788,-2.3735,-2.3108,-2.3108,-2.3108,-2.3108,-2.3108,-2.3108,-2.3108,-2.3108,-2.3108,-2.3108,-2.3108,-2.3108,-2.3108,-1.541,-1.5839,0.0,0.0,0.0,0.0,0.0,0.0,0.0,0.0,0.0,0.0,0.0,0.0,0.0,0.0,0.0,0.0,0.0,0.0,0.0,0.0,0.0,0.0,0.0,0.0,0.0,0.0,0.0,0.0,0.0,-2.9792,-2.9792,-2.9792,-2.9189,-2.8976,-2.9189,-2.8637,-2.8436,-2.8599,-2.8599,-2.9026,-2.9792,-2.9792,-2.9792,-2.9792,-2.9792,-2.9792,-2.9792,-2.9792,-2.9792,-2.9792,-2.9792,-2.9792,-2.9792,-2.9792,-2.9792,-2.9792,-2.9792,-2.9792,-2.9792,-2.9792,-2.9792,-2.9792,-2.9792,-2.9792,-2.9792,-2.9792,-2.9792,-2.9792,-2.9792,-2.9792,-2.9792,-2.9792,-2.9792,-2.9792,-2.9792,-2.9792,-2.9792,-2.9792,-2.9792,-2.9792,-2.9792,-2.9792,-2.9729,-2.9566,-2.8725,-2.777,-2.6851,-2.66,-2.6499,-2.6499,-2.6499,-2.6499,-2.6499,-2.5448,-2.4788,-2.4788,-2.3735,-2.3108,-2.3108,-2.3108,-2.3108,-2.3108,-2.3108,-2.3108,-2.3108,-2.3108,-2.3108,-2.3108,-2.3108,-2.3108,-1.5625,0.0,0.0,0.0,0.0,0.0,0.0,0.0,0.0,0.0,0.0,0.0,0.0,0.0,0.0,0.0,0.0,0.0,0.0,0.0,0.0,0.0,0.0,0.0,0.0,0.0,0.0,0.0,0.0,0.0,0.0,-2.9126,-2.9126,-2.9126,-2.8574,-2.8386,-2.8562,-2.8059,-2.7896,-2.8109,-2.8109,-2.8461,-2.9126,-2.9126,-2.9126,-2.9139,-2.9352,-2.9453,-2.9453,-2.9453,-2.9453,-2.9453,-2.9453,-2.9591,-2.9792,-2.9792,-2.9792,-2.9767,-2.9528,-2.9453,-2.9453,-2.9453,-2.9453,-2.949,-2.9729,-2.9628,-2.9503,-2.9729,-2.9628,-2.9503,-2.9729,-2.9792,-2.9792,-2.9792,-2.9792,-2.9792,-2.9792,-2.9792,-2.9792,-2.9792,-2.9792,-2.9792,-2.9792,-2.9792,-2.9641,-2.9189,-2.8172,-2.7241,-2.6575,-2.6499,-2.6499,-2.6499,-2.6499,-2.6499,-2.6499,-2.5636,-2.5046,-2.48,-2.3948,-2.3346,-2.3108,-2.3108,-2.3108,-2.3108,-2.3108,-2.3108,-2.3108,-2.3108,-2.3108,-2.3108,-2.3108,-2.3108,0.0,0.0,0.0,0.0,0.0,0.0,0.0,0.0,0.0,0.0,0.0,0.0,0.0,0.0,0.0,0.0,0.0,0.0,0.0,0.0,0.0,0.0,0.0,0.0,0.0,0.0,0.0,0.0,0.0,0.0,0.0,-2.8109,-2.8109,-2.8109,-2.757,-2.7519,-2.8021,-2.7482,-2.7457,-2.7959,-2.7959,-2.7959,-2.7959,-2.8059,-2.8109,-2.8134,-2.8637,-2.8813,-2.8813,-2.8813,-2.8813,-2.8813,-2.8813,-2.9176,-2.9641,-2.9641,-2.9641,-2.9566,-2.9038,-2.8813,-2.8825,-2.8875,-2.8863,-2.8925,-2.9541,-2.9315,-2.8925,-2.949,-2.9264,-2.895,-2.9566,-2.9679,-2.9654,-2.9704,-2.9754,-2.9792,-2.9792,-2.9792,-2.9792,-2.9792,-2.9792,-2.9792,-2.9792,-2.9792,-2.9402,-2.8273,-2.7241,-2.6549,-2.6499,-2.6499,-2.6499,-2.6499,-2.6499,-2.6499,-2.6499,-2.5887,-2.5322,-2.4813,-2.4255,-2.369,-2.3133,-2.3108,-2.3108,-2.3108,-2.3108,-2.3108,-2.3108,-2.3108,-2.3108,-2.3108,-2.3108,-2.3108,0.0,0.0,0.0,0.0,0.0,0.0,0.0,0.0,0.0,0.0,0.0,0.0,0.0,0.0,0.0,0.0,0.0,0.0,0.0,0.0,0.0,0.0,0.0,0.0,0.0,0.0,0.0,0.0,0.0,0.0,-2.8109,-2.8109,-2.8109,-2.8109,-2.757,-2.7379,-2.7457,-2.6952,-2.6738,-2.6851,-2.6851,-2.6851,-2.6876,-2.7708,-2.8109,-2.8109,-2.8235,-2.8285,-2.8285,-2.8285,-2.8285,-2.8285,-2.8285,-2.836,-2.8473,-2.8473,-2.8473,-2.8448,-2.8335,-2.8285,-2.8348,-2.875,-2.8637,-2.8386,-2.895,-2.8725,-2.831,-2.8436,-2.8386,-2.8411,-2.8925,-2.8787,-2.8574,-2.8976,-2.9465,-2.9792,-2.9792,-2.9792,-2.9792,-2.9792,-2.9792,-2.9792,-2.9792,-2.9792,-2.9402,-2.8273,-2.7544,-2.6989,-2.6549,-2.6499,-2.6499,-2.6499,-2.6499,-2.6499,-2.6499,-2.5548,-2.4913,-2.48,-2.3847,-2.3233,-2.3108,-2.3108,-2.3108,-2.3108,-2.3108,-2.3108,-2.3108,-2.3108,-2.3108,-2.3108,-2.3108,-2.3108,0.0,0.0,0.0,0.0,0.0,0.0,0.0,0.0,0.0,0.0,0.0,0.0,0.0,0.0,0.0,0.0,0.0,0.0,0.0,0.0,0.0,0.0,0.0,0.0,0.0,0.0,0.0,0.0,0.0,-2.6527,-2.6527,-2.6766,-2.6791,-2.654,-2.649,-2.6352,-2.6101,-2.5824,-2.5674,-2.5674,-2.5674,-2.5674,-2.5711,-2.6816,-2.7457,-2.7708,-2.7708,-2.7708,-2.7708,-2.7708,-2.7708,-2.7708,-2.7708,-2.7871,-2.8109,-2.8109,-2.8109,-2.8059,-2.7808,-2.7708,-2.7758,-2.8047,-2.7946,-2.7821,-2.836,-2.8147,-2.777,-2.8034,-2.7921,-2.7846,-2.8398,-2.8323,-2.8185,-2.8461,-2.8963,-2.9377,-2.9377,-2.9591,-2.9792,-2.9792,-2.9792,-2.9704,-2.9428,-2.8938,-2.8398,-2.7808,-2.7278,-2.6813,-2.6524,-2.6499,-2.6499,-2.6499,-2.6499,-2.6499,-2.6499,-2.5971,-2.5385,-2.4825,-2.4236,-2.3672,-2.3133,-2.3108,-2.3108,-2.3108,-2.3108,-2.3108,-2.3108,-2.3108,-2.3108,-2.3108,-2.3108,-2.3108,0.0,0.0,0.0,0.0,0.0,0.0,0.0,0.0,0.0,0.0,0.0,0.0,0.0,0.0,0.0,0.0,0.0,0.0,0.0,0.0,0.0,0.0,0.0,0.0,0.0,0.0,0.0,0.0,0.0,-2.4788,-2.4788,-2.5222,-2.5272,-2.48,-2.5234,-2.5259,-2.4788,-2.4788,-2.4788,-2.4788,-2.4788,-2.4788,-2.4825,-2.5762,-2.6512,-2.6992,-2.6892,-2.6967,-2.7165,-2.7065,-2.709,-2.7178,-2.7178,-2.7419,-2.7821,-2.7821,-2.7821,-2.7758,-2.7341,-2.7178,-2.719,-2.7291,-2.7253,-2.7278,-2.7795,-2.7582,-2.7231,-2.7695,-2.7494,-2.7304,-2.7821,-2.7896,-2.7846,-2.7946,-2.831,-2.8662,-2.885,-2.939,-2.9792,-2.9792,-2.9716,-2.9465,-2.885,-2.7946,-2.7281,-2.7281,-2.6851,-2.6499,-2.6499,-2.6499,-2.6499,-2.6499,-2.6499,-2.6499,-2.6499,-2.6323,-2.5787,-2.485,-2.4612,-2.4086,-2.3145,-2.3108,-2.3108,-2.3108,-2.3108,-2.3108,-2.3108,-2.3108,-2.3108,-2.3108,-2.3108,-2.3108,0.0,0.0,0.0,0.0,0.0,0.0,0.0,0.0,0.0,0.0,0.0,0.0,0.0,0.0,0.0,0.0,0.0,0.0,0.0,0.0,0.0,0.0,0.0,0.0,0.0,0.0,0.0,0.0,-2.4102,-2.4788,-2.4788,-2.4863,-2.4863,-2.4788,-2.4863,-2.4863,-2.4788,-2.4788,-2.4788,-2.4788,-2.4788,-2.4788,-2.48,-2.4938,-2.5322,-2.5799,-2.5347,-2.5686,-2.6562,-2.6025,-2.6147,-2.66,-2.66,-2.665,-2.6713,-2.6713,-2.6713,-2.67,-2.6625,-2.66,-2.6688,-2.7165,-2.7002,-2.6713,-2.7218,-2.704,-2.6612,-2.6688,-2.6663,-2.6738,-2.7291,-2.7065,-2.6839,-2.7281,-2.7444,-2.777,-2.8687,-2.939,-2.9792,-2.9792,-2.939,-2.8863,-2.831,-2.7695,-2.7281,-2.7281,-2.6851,-2.6499,-2.6499,-2.6499,-2.6499,-2.6499,-2.6499,-2.6499,-2.6499,-2.5586,-2.4938,-2.48,-2.3873,-2.3258,-2.3108,-2.3108,-2.3108,-2.3108,-2.3108,-2.3108,-2.3108,-2.3108,-2.3108,-2.3108,-2.3108,-2.3108,0.0,0.0,0.0,0.0,0.0,0.0,0.0,0.0,0.0,0.0,0.0,0.0,0.0,0.0,0.0,0.0,0.0,0.0,0.0,0.0,0.0,0.0,0.0,0.0,0.0,0.0,0.0,0.0,-2.3511,-2.3847,-2.3847,-2.4161,-2.4217,-2.386,-2.4192,-2.4205,-2.3847,-2.3847,-2.3847,-2.3847,-2.3847,-2.3847,-2.3847,-2.3847,-2.4311,-2.5146,-2.4888,-2.5259,-2.5971,-2.5385,-2.5674,-2.6461,-2.6135,-2.621,-2.6499,-2.6499,-2.6499,-2.6449,-2.6122,-2.6223,-2.6487,-2.6364,-2.6424,-2.6474,-2.6399,-2.6436,-2.6424,-2.6097,-2.6248,-2.6549,-2.6788,-2.6675,-2.6549,-2.6801,-2.709,-2.7419,-2.7896,-2.8448,-2.885,-2.885,-2.8398,-2.7934,-2.7682,-2.7216,-2.6851,-2.6851,-2.665,-2.6499,-2.6499,-2.6499,-2.6499,-2.6499,-2.6499,-2.6361,-2.6034,-2.5536,-2.4996,-2.4393,-2.3891,-2.3446,-2.312,-2.3108,-2.3108,-2.3108,-2.3108,-2.3108,-2.3108,-2.3108,-2.3108,-2.3108,-2.3108,-2.3108,0.0,0.0,0.0,0.0,0.0,0.0,0.0,0.0,0.0,0.0,0.0,0.0,0.0,0.0,0.0,0.0,0.0,0.0,0.0,0.0,0.0,0.0,0.0,0.0,0.0,0.0,0.0,0.0,-2.2854,-2.3108,-2.3108,-2.354,-2.359,-2.312,-2.3521,-2.3547,-2.3108,-2.3108,-2.3108,-2.3108,-2.3108,-2.3108,-2.3108,-2.3108,-2.3559,-2.4362,-2.4362,-2.477,-2.536,-2.4833,-2.5184,-2.6034,-2.5573,-2.5661,-2.6084,-2.6084,-2.6084,-2.6021,-2.5548,-2.5774,-2.6197,-2.5737,-2.5887,-2.6197,-2.5724,-2.5799,-2.6009,-2.5686,-2.59,-2.6311,-2.6461,-2.6499,-2.6499,-2.6499,-2.6813,-2.719,-2.7431,-2.7821,-2.8059,-2.7921,-2.7557,-2.7278,-2.714,-2.6763,-2.6499,-2.6499,-2.6499,-2.6499,-2.6499,-2.6499,-2.6499,-2.6499,-2.6499,-2.626,-2.5649,-2.5473,-2.4996,-2.4054,-2.3866,-2.359,-2.312,-2.3108,-2.3108,-2.3108,-2.3108,-2.3108,-2.3108,-2.3108,-2.3108,-2.3108,-2.3108,-2.3108,0.0,0.0,0.0,0.0,0.0,0.0,0.0,0.0,0.0,0.0,0.0,0.0,0.0,0.0,0.0,0.0,0.0,0.0,0.0,0.0,0.0,0.0,0.0,0.0,0.0,0.0,0.0,0.0,-2.2218,-2.3108,-2.3108,-2.3133,-2.3133,-2.3108,-2.3133,-2.3133,-2.3108,-2.3108,-2.3108,-2.3108,-2.3108,-2.3108,-2.3108,-2.3108,-2.3133,-2.3195,-2.3195,-2.381,-2.4788,-2.4268,-2.4393,-2.4876,-2.4838,-2.485,-2.4876,-2.4876,-2.4876,-2.4863,-2.4838,-2.5209,-2.5636,-2.5598,-2.5611,-2.5636,-2.5598,-2.5272,-2.5008,-2.5473,-2.5624,-2.5774,-2.6348,-2.6499,-2.6499,-2.6499,-2.6512,-2.6826,-2.7833,-2.8084,-2.7946,-2.7431,-2.7341,-2.7153,-2.6625,-2.6512,-2.6499,-2.6499,-2.6499,-2.6499,-2.6499,-2.6499,-2.6499,-2.6499,-2.6499,-2.626,-2.5649,-2.5146,-2.4587,-2.4029,-2.3446,-2.3133,-2.3108,-2.3108,-2.3108,-2.3108,-2.3108,-2.3108,-2.3108,-2.3108,-2.3108,-2.3108,-2.3108,-2.3108,0.0,0.0,0.0,0.0,0.0,0.0,0.0,0.0,0.0,0.0,0.0,0.0,0.0,0.0,0.0,0.0,0.0,0.0,0.0,0.0,0.0,0.0,0.0,0.0,0.0,0.0,0.0,0.0,0.0,-2.2322,-2.2322,-2.2823,-2.3108,-2.3108,-2.3108,-2.3108,-2.3108,-2.2757,-2.2757,-2.3108,-2.3108,-2.3108,-2.3108,-2.3108,-2.3108,-2.3108,-2.3108,-2.3547,-2.4255,-2.3647,-2.396,-2.4763,-2.4431,-2.4506,-2.4788,-2.4788,-2.4788,-2.4738,-2.4418,-2.4644,-2.5046,-2.4682,-2.4808,-2.5034,-2.4682,-2.4921,-2.5285,-2.5146,-2.5598,-2.6235,-2.6436,-2.6499,-2.6499,-2.6499,-2.6499,-2.66,-2.7002,-2.709,-2.7027,-2.6826,-2.6788,-2.6725,-2.6524,-2.6499,-2.6499,-2.6499,-2.6499,-2.6499,-2.6499,-2.6499,-2.6499,-2.6499,-2.616,-2.5686,-2.5146,-2.4607,-2.4054,-2.3446,-2.3221,-2.3108,-2.3108,-2.3108,-2.3108,-2.3108,-2.3108,-2.3108,-2.3108,-2.3108,-2.3108,-2.3108,-2.3108,-2.3108,0.0,0.0,0.0,0.0,0.0,0.0,0.0,0.0,0.0,0.0,0.0,0.0,0.0,0.0,0.0,0.0,0.0,0.0,0.0,0.0,0.0,0.0,0.0,0.0,0.0,0.0,0.0,0.0,0.0,0.0,-2.1908,-2.2414,-2.2702,-2.2702,-2.277,-2.2832,-2.2832,-2.2309,-2.2221,-2.2556,-2.2556,-2.2556,-2.2556,-2.2744,-2.2832,-2.2844,-2.302,-2.3321,-2.3678,-2.3258,-2.3547,-2.4186,-2.3853,-2.391,-2.4224,-2.4224,-2.4224,-2.4173,-2.381,-2.4067,-2.4481,-2.4117,-2.4243,-2.4469,-2.4117,-2.4356,-2.4745,-2.4582,-2.5071,-2.5707,-2.5896,-2.6072,-2.6248,-2.6449,-2.6499,-2.6499,-2.6499,-2.6499,-2.6499,-2.6499,-2.6499,-2.6499,-2.6499,-2.6499,-2.6499,-2.6499,-2.6499,-2.6499,-2.6499,-2.6323,-2.6197,-2.6197,-2.5674,-2.5121,-2.4594,-2.4205,-2.3753,-2.3145,-2.3108,-2.3108,-2.3108,-2.3108,-2.3108,-2.3108,-2.3108,-2.3108,-2.3108,-2.3108,-2.3108,-2.3108,-2.3108,-2.3108,0.0,0.0,0.0,0.0,0.0,0.0,0.0,0.0,0.0,0.0,0.0,0.0,0.0,0.0,0.0,0.0,0.0,0.0,0.0,0.0,0.0,0.0,0.0,0.0,0.0,0.0,0.0,0.0,-2.0844,-2.1854,-2.1854,-2.1885,-2.1916,-2.1916,-2.2135,-2.2272,-2.2284,-2.1744,-2.1468,-2.1493,-2.1493,-2.1493,-2.1531,-2.2071,-2.2322,-2.2343,-2.2869,-2.3108,-2.3108,-2.3108,-2.3108,-2.3108,-2.3108,-2.3108,-2.3108,-2.3108,-2.3108,-2.3108,-2.3108,-2.3471,-2.3966,-2.3966,-2.3966,-2.3966,-2.3966,-2.359,-2.3246,-2.3841,-2.4004,-2.4142,-2.465,-2.5197,-2.5711,-2.6311,-2.6461,-2.6461,-2.6461,-2.6487,-2.6499,-2.6499,-2.6499,-2.6499,-2.6499,-2.6499,-2.6499,-2.6499,-2.6499,-2.6499,-2.6499,-2.5984,-2.5598,-2.5598,-2.5121,-2.4582,-2.4042,-2.3979,-2.3728,-2.3145,-2.3108,-2.3108,-2.3108,-2.3108,-2.3108,-2.3108,-2.3108,-2.3108,-2.3108,-2.3108,-2.3108,-2.3108,-2.3108,-2.3108,-1.2131,0.0,0.0,0.0,0.0,0.0,0.0,0.0,0.0,0.0,0.0,0.0,0.0,0.0,0.0,0.0,0.0,0.0,0.0,0.0,0.0,0.0,0.0,0.0,0.0,0.0,0.0,0.0,-1.9291,-2.0457,-2.0457,-2.1548,-2.2182,-2.2182,-2.1494,-2.1345,-2.1707,-2.1194,-2.1119,-2.1493,-2.1493,-2.1694,-2.2083,-2.2246,-2.2493,-2.2882,-2.3045,-2.3108,-2.3108,-2.3108,-2.3108,-2.3108,-2.3108,-2.3108,-2.3108,-2.3108,-2.3108,-2.3108,-2.3108,-2.3208,-2.3346,-2.3346,-2.3346,-2.3346,-2.3346,-2.3521,-2.3791,-2.3954,-2.4293,-2.46,-2.475,-2.4888,-2.5039,-2.5234,-2.5561,-2.5837,-2.5837,-2.6197,-2.6499,-2.6499,-2.6499,-2.6499,-2.6499,-2.6499,-2.6499,-2.6499,-2.6499,-2.6499,-2.6499,-2.5984,-2.5598,-2.5598,-2.477,-2.4167,-2.4017,-2.3584,-2.3283,-2.3108,-2.3108,-2.3108,-2.3108,-2.3108,-2.3108,-2.3108,-2.3108,-2.3108,-2.3108,-2.3108,-2.3108,-2.3108,-2.3108,-2.3108,0.0,0.0,0.0,0.0,0.0,0.0,-1.4599,-1.478,0.0,0.0,0.0,0.0,0.0,0.0,0.0,0.0,0.0,0.0,0.0,0.0,0.0,0.0,0.0,0.0,0.0,-1.6455,-1.6533,-1.6687,-1.8207,-1.9177,-1.9342,-2.0889,-2.1599,-2.1218,-2.0884,-2.0842,-2.1169,-2.0616,-2.049,-2.079,-2.079,-2.0953,-2.128,-2.1757,-2.2146,-2.2443,-2.2565,-2.261,-2.2555,-2.2007,-2.2164,-2.2757,-2.2757,-2.2619,-2.2418,-2.2418,-2.2418,-2.2456,-2.2681,-2.2757,-2.2794,-2.3032,-2.3108,-2.3108,-2.3108,-2.3346,-2.364,-2.364,-2.3835,-2.4148,-2.4418,-2.4481,-2.4531,-2.4738,-2.5059,-2.5272,-2.5272,-2.5711,-2.621,-2.6449,-2.6499,-2.6499,-2.6499,-2.6499,-2.6499,-2.6499,-2.6499,-2.6499,-2.6499,-2.5468,-2.4706,-2.4706,-2.3458,-2.2732,-2.3089,-2.2794,-2.2732,-2.3078,-2.3108,-2.3108,-2.3108,-2.2793,-2.261,-2.261,-2.2249,-2.2051,-2.2051,-2.2763,-2.3108,-2.3108,-2.3108,-2.3108,0.0,0.0,0.0,0.0,0.0,0.0,-1.34,-1.3781,-1.4121,0.0,0.0,0.0,0.0,0.0,0.0,0.0,0.0,0.0,0.0,0.0,0.0,0.0,0.0,0.0,-1.5977,-1.6016,-1.6183,-1.6521,-1.74,-1.8142,-1.8659,-1.9981,-2.0401,-1.9722,-2.0121,-2.043,-2.0591,-1.9893,-1.9618,-1.9669,-1.9579,-1.9591,-1.969,-2.071,-2.1194,-2.1278,-2.1518,-2.1618,-2.1509,-2.0323,-2.0691,-2.2022,-2.1973,-2.1679,-2.1256,-2.1256,-2.1256,-2.1319,-2.1803,-2.1977,-2.2051,-2.2506,-2.2705,-2.2742,-2.2692,-2.2705,-2.2754,-2.2857,-2.2887,-2.3055,-2.3722,-2.3841,-2.3891,-2.4347,-2.4509,-2.4559,-2.4559,-2.5069,-2.5661,-2.621,-2.6411,-2.6499,-2.6499,-2.6499,-2.6499,-2.6499,-2.6383,-2.6324,-2.6261,-2.4541,-2.3311,-2.3252,-2.174,-2.1069,-2.1815,-2.197,-2.2353,-2.3035,-2.3108,-2.3078,-2.2975,-2.2292,-2.1846,-2.1753,-2.0974,-2.059,-2.059,-2.2082,-2.2884,-2.2975,-2.2975,-2.3005,0.0,0.0,0.0,0.0,0.0,0.0,-1.2818,-1.2851,-1.285,0.0,0.0,0.0,0.0,0.0,0.0,0.0,0.0,0.0,0.0,0.0,0.0,0.0,0.0,0.0,-1.5527,-1.5537,-1.5576,-1.5664,-1.6804,-1.8005,-1.9085,-1.9034,-1.9166,-1.9594,-1.8707,-1.8762,-1.9962,-1.8682,-1.834,-1.89,-1.8301,-1.8288,-1.8757,-1.8993,-1.9304,-1.9726,-1.9785,-1.9805,-1.9805,-1.9523,-1.9795,-2.0327,-2.0014,-1.9836,-1.9726,-1.9726,-1.9726,-1.9737,-1.9859,-1.9894,-1.9905,-2.0021,-2.025,-2.0473,-2.0141,-2.0261,-2.0665,-2.1356,-2.1578,-2.1819,-2.2969,-2.2801,-2.2349,-2.2445,-2.2806,-2.3107,-2.3107,-2.4074,-2.5008,-2.5121,-2.585,-2.6499,-2.6499,-2.6499,-2.6499,-2.6499,-2.5804,-2.5167,-2.4778,-2.3304,-2.2173,-2.1843,-2.1725,-2.1721,-2.1877,-2.2506,-2.2914,-2.3078,-2.3108,-2.2823,-2.2156,-2.197,-2.1553,-2.0878,-2.0687,-2.059,-2.059,-2.0942,-2.1459,-2.2125,-2.2125,-2.2476,0.0,0.0,0.0,-1.0925,0.0,0.0,0.0,-1.1705,-1.1752,-1.1803,0.0,0.0,0.0,0.0,0.0,0.0,0.0,0.0,0.0,0.0,0.0,0.0,0.0,0.0,-1.541,-1.541,-1.541,-1.541,-1.6246,-1.7028,-1.7677,-1.7801,-1.802,-1.8384,-1.7874,-1.7961,-1.8688,-1.7977,-1.7797,-1.814,-1.7797,-1.7767,-1.8053,-1.8368,-1.8644,-1.8892,-1.8725,-1.8654,-1.8602,-1.7974,-1.7825,-1.8065,-1.8677,-1.8723,-1.8441,-1.8441,-1.8441,-1.8503,-1.8791,-1.891,-1.8955,-1.9193,-1.9441,-1.9558,-1.9351,-1.9591,-1.9994,-2.0434,-2.0711,-2.1001,-2.1412,-2.1385,-2.1201,-2.0946,-2.127,-2.178,-2.2206,-2.2718,-2.3218,-2.3664,-2.4065,-2.4494,-2.4927,-2.5837,-2.6012,-2.4578,-2.4706,-2.4578,-2.3409,-2.2158,-2.1216,-2.0805,-2.0259,-2.0433,-2.1553,-2.1366,-2.1679,-2.2823,-2.2238,-2.1667,-2.127,-2.0814,-2.0204,-1.9299,-1.9299,-1.9299,-1.9299,-1.9299,-2.0204,-2.1908,-2.1908,-2.2322,0.0,0.0,0.0,0.0,0.0,-1.0258,0.0,0.0,0.0,-1.101,0.0,0.0,0.0,0.0,0.0,0.0,0.0,0.0,0.0,0.0,0.0,0.0,0.0,0.0,-1.5293,-1.5361,-1.541,-1.541,-1.5732,-1.5968,-1.5968,-1.6526,-1.691,-1.7047,-1.7155,-1.7302,-1.7605,-1.733,-1.7246,-1.7385,-1.7246,-1.7191,-1.7202,-1.7691,-1.7906,-1.79,-1.7613,-1.751,-1.7429,-1.6377,-1.5968,-1.6078,-1.7416,-1.7608,-1.7191,-1.7191,-1.7191,-1.7245,-1.7735,-1.7906,-1.7972,-1.8416,-1.8537,-1.8559,-1.8658,-1.886,-1.9102,-1.9343,-1.9696,-1.9961,-1.9815,-2.0106,-2.0376,-2.0003,-2.0252,-2.0782,-2.1491,-2.1422,-2.1447,-2.2142,-2.2155,-2.2287,-2.311,-2.4592,-2.4871,-2.256,-2.334,-2.3617,-2.199,-2.0957,-2.0236,-1.9861,-1.8883,-1.9028,-2.0952,-2.016,-2.0336,-2.2183,-2.1234,-2.0526,-2.0365,-1.9529,-1.8721,-1.8008,-1.8008,-1.8008,-1.8008,-1.8008,-1.9276,-2.1647,-2.1647,-2.2156,0.0,0.0,0.0,0.0,-1.0341,0.0,0.0,0.0,-0.9765,-0.9514,0.0,0.0,0.0,0.0,0.0,0.0,0.0,0.0,0.0,0.0,0.0,0.0,0.0,0.0,0.0,-1.5195,-1.541,-1.541,-1.5459,-1.5488,-1.5488,-1.5566,-1.5905,-1.6566,-1.597,-1.6273,-1.7578,-1.6301,-1.5979,-1.6624,-1.5968,-1.5661,-1.5661,-1.5711,-1.5741,-1.5741,-1.5713,-1.5703,-1.5664,-1.5527,-1.5488,-1.5517,-1.5683,-1.5711,-1.5661,-1.5661,-1.5661,-1.5671,-1.5721,-1.5741,-1.5751,-1.582,-1.584,-1.5919,-1.6337,-1.6218,-1.6165,-1.7351,-1.7736,-1.8013,-1.9082,-1.9662,-1.998,-1.9913,-2.0252,-2.0623,-2.0719,-2.0732,-2.0701,-2.083,-2.1203,-2.1677,-2.2253,-2.2526,-2.2571,-2.2241,-2.1673,-2.104,-2.0403,-1.9453,-1.8823,-1.8783,-1.8985,-1.9387,-2.0007,-2.0314,-2.0549,-2.083,-2.0688,-2.0236,-1.9464,-1.863,-1.811,-1.8008,-1.8008,-1.8008,-1.8008,-1.8008,-1.8944,-2.0751,-2.0751,-2.1573,0.0,0.0,0.0,0.0,0.0,0.0,-0.9993,0.0,-0.9646,0.0,0.0,0.0,0.0,0.0,0.0,0.0,-1.0507,0.0,0.0,0.0,0.0,0.0,0.0,0.0,0.0,0.0,0.0,-1.464,-1.4902,-1.5049,-1.5049,-1.5283,-1.5555,-1.5864,-1.5555,-1.569,-1.633,-1.5719,-1.5555,-1.5864,-1.5555,-1.541,-1.541,-1.541,-1.541,-1.541,-1.541,-1.541,-1.541,-1.541,-1.541,-1.541,-1.541,-1.541,-1.541,-1.541,-1.541,-1.541,-1.541,-1.541,-1.541,-1.541,-1.541,-1.5449,-1.5625,-1.5762,-1.591,-1.6507,-1.681,-1.7053,-1.7366,-1.7738,-1.803,-1.803,-1.8383,-1.8951,-1.9695,-1.9464,-1.9233,-1.9759,-1.9622,-1.9487,-1.9719,-2.1099,-2.1663,-1.9994,-2.0338,-2.0362,-1.9063,-1.872,-1.851,-1.8266,-1.8446,-1.8927,-1.9939,-1.9437,-1.9447,-2.0279,-1.9765,-1.9178,-1.8573,-1.8404,-1.8227,-1.8018,-1.8008,-1.8008,-1.8008,-1.8008,-1.863,-1.9846,-2.0365,-2.1259,-1.0593,0.0,0.0,0.0,0.0,0.0,0.0,0.0,0.0,0.0,0.0,0.0,0.0,0.0,0.0,0.0,0.0,0.0,0.0,0.0,0.0,0.0,0.0,0.0,0.0,0.0,-1.4104,-1.4104,-1.4434,-1.4658,-1.4775,-1.5078,-1.5293,-1.541,-1.541,-1.541,-1.541,-1.541,-1.541,-1.541,-1.541,-1.541,-1.541,-1.541,-1.541,-1.541,-1.541,-1.541,-1.541,-1.541,-1.541,-1.541,-1.541,-1.541,-1.541,-1.541,-1.541,-1.541,-1.541,-1.541,-1.541,-1.541,-1.541,-1.541,-1.541,-1.5635,-1.5919,-1.5919,-1.6123,-1.6268,-1.5967,-1.6394,-1.6907,-1.6907,-1.7304,-1.7988,-1.8916,-1.8539,-1.8202,-1.8821,-1.8428,-1.8008,-1.8008,-1.9695,-2.0373,-1.83,-1.9142,-1.9532,-1.8188,-1.8237,-1.8354,-1.8169,-1.8076,-1.8448,-1.9572,-1.8644,-1.8482,-1.9627,-1.9009,-1.8461,-1.8193,-1.8442,-1.8403,-1.8018,-1.8008,-1.8008,-1.8008,-1.8008,-1.8337,-1.8944,-1.9857,-2.0719,0.0,0.0,0.0,-1.02,0.0,0.0,0.0,0.0,-1.002,0.0,0.0,0.0,0.0,0.0,0.0,0.0,0.0,0.0,0.0,0.0,0.0,0.0,0.0,0.0,0.0,0.0,-1.4104,-1.4104,-1.4114,-1.4309,-1.4793,-1.4795,-1.499,-1.54,-1.541,-1.541,-1.541,-1.541,-1.541,-1.541,-1.541,-1.541,-1.541,-1.541,-1.541,-1.541,-1.541,-1.541,-1.541,-1.541,-1.541,-1.541,-1.541,-1.541,-1.541,-1.541,-1.541,-1.541,-1.541,-1.541,-1.541,-1.541,-1.541,-1.541,-1.541,-1.542,-1.543,-1.543,-1.5439,-1.5449,-1.5439,-1.6411,-1.7389,-1.7389,-1.7965,-1.8574,-1.8617,-1.8284,-1.8008,-1.8042,-1.8008,-1.8008,-1.8008,-1.8061,-1.8105,-1.8008,-1.8061,-1.8071,-1.8008,-1.8018,-1.8149,-1.8539,-1.8217,-1.8184,-1.8603,-1.8252,-1.8193,-1.8603,-1.8633,-1.8598,-1.8588,-1.8598,-1.8403,-1.8018,-1.8008,-1.8008,-1.8008,-1.8008,-1.8008,-1.8076,-1.8944,-1.9824,0.0,0.0,-1.0566,-1.0466,0.0,0.0,0.0,0.0,0.0,0.0,0.0,0.0,0.0,0.0,0.0,0.0,0.0,0.0,0.0,0.0,-0.964,0.0,0.0,0.0,0.0,0.0,0.0,-1.3301,-1.3539,-1.3779,-1.3936,-1.4482,-1.4844,-1.499,-1.5264,-1.541,-1.541,-1.541,-1.541,-1.541,-1.541,-1.541,-1.541,-1.541,-1.541,-1.541,-1.541,-1.541,-1.541,-1.541,-1.541,-1.541,-1.541,-1.541,-1.541,-1.541,-1.541,-1.541,-1.541,-1.541,-1.541,-1.541,-1.541,-1.541,-1.541,-1.541,-1.541,-1.541,-1.541,-1.541,-1.541,-1.5742,-1.6236,-1.6809,-1.7149,-1.7498,-1.8078,-1.8103,-1.8008,-1.8008,-1.8008,-1.8008,-1.8008,-1.8008,-1.8008,-1.8008,-1.8008,-1.8008,-1.8008,-1.8008,-1.8066,-1.8178,-1.8096,-1.8066,-1.8178,-1.8086,-1.8184,-1.8568,-1.8598,-1.8598,-1.8598,-1.8598,-1.8403,-1.8018,-1.8008,-1.8008,-1.8008,-1.8008,-1.8008,-1.8008,-1.8303,-1.8911,-1.0593,-1.0593,0.0,-1.0459,-1.0432,0.0,-1.0033,0.0,0.0,0.0,0.0,0.0,0.0,0.0,0.0,0.0,0.0,0.0,0.0,-0.9159,0.0,0.0,0.0,0.0,0.0,0.0,-1.2905,-1.2905,-1.3135,-1.335,0.0,-1.417,-1.4629,-1.4775,-1.5195,-1.541,-1.541,-1.541,-1.541,-1.541,-1.541,-1.541,-1.541,-1.541,-1.541,-1.541,-1.541,-1.541,-1.541,-1.541,-1.541,-1.541,-1.541,-1.541,-1.541,-1.541,-1.541,-1.541,-1.541,-1.541,-1.541,-1.541,-1.541,-1.541,-1.541,-1.541,-1.541,-1.541,-1.541,-1.541,-1.541,-1.541,-1.5557,-1.6093,-1.6377,-1.6689,-1.7402,-1.7676,-1.7832,-1.7978,-1.8008,-1.8008,-1.8008,-1.8008,-1.8008,-1.8008,-1.8008,-1.8008,-1.8008,-1.8008,-1.8008,-1.8008,-1.8008,-1.8008,-1.8008,-1.8008,-1.8184,-1.8568,-1.8598,-1.8598,-1.8598,-1.8598,-1.8549,-1.8467,-1.8164,-1.8164,-1.8467,-1.8164,-1.8008,-1.8008,-1.8008,-1.8303]}]]